<?xml version="1.0" encoding="UTF-8" standalone="yes"?>
<gpx
 xmlns="http://www.topografix.com/GPX/1/1"
 creator="OziExplorer Version 3956f - http://www.oziexplorer.com"
 version="1.1"
 xmlns:xsi="http://www.w3.org/2001/XMLSchema-instance"
 xsi:schemaLocation="http://www.topografix.com/GPX/1/1 http://www.topografix.com/GPX/1/1/gpx.xsd">
<metadata>
 <time>2016-12-08T10:18:05Z</time>
 <bounds minlat="31.700491" minlon="35.289799" maxlat="31.801212" maxlon="35.453348"/>
</metadata>
<trk>
 <name>MaaleAdomim_Marsaba_Almog, 35 km</name>
 <desc>MaaleAdomim_Marsaba_Almog, 35 km</desc>
<trkseg>
<trkpt lat="31.7675246" lon="35.2928086">
<ele>525.979980</ele>
<time>2012-04-14T04:33:35.000Z</time>
</trkpt>
<trkpt lat="31.7675258" lon="35.2927815">
<ele>525.500000</ele>
<time>2012-04-14T04:33:54.000Z</time>
</trkpt>
<trkpt lat="31.7675040" lon="35.2927464">
<ele>525.979980</ele>
<time>2012-04-14T04:34:06.000Z</time>
</trkpt>
<trkpt lat="31.7674980" lon="35.2927361">
<ele>525.979980</ele>
<time>2012-04-14T04:34:36.000Z</time>
</trkpt>
<trkpt lat="31.7674704" lon="35.2927086">
<ele>525.500000</ele>
<time>2012-04-14T04:34:53.000Z</time>
</trkpt>
<trkpt lat="31.7674628" lon="35.2927024">
<ele>525.500000</ele>
<time>2012-04-14T04:35:17.000Z</time>
</trkpt>
<trkpt lat="31.7674570" lon="35.2926986">
<ele>525.500000</ele>
<time>2012-04-14T04:35:38.000Z</time>
</trkpt>
<trkpt lat="31.7674883" lon="35.2927300">
<ele>525.500000</ele>
<time>2012-04-14T04:35:54.000Z</time>
</trkpt>
<trkpt lat="31.7675059" lon="35.2927479">
<ele>525.979980</ele>
<time>2012-04-14T04:35:56.000Z</time>
</trkpt>
<trkpt lat="31.7675580" lon="35.2928319">
<ele>526.460022</ele>
<time>2012-04-14T04:36:11.000Z</time>
</trkpt>
<trkpt lat="31.7675550" lon="35.2928366">
<ele>525.979980</ele>
<time>2012-04-14T04:36:44.000Z</time>
</trkpt>
<trkpt lat="31.7675678" lon="35.2928347">
<ele>526.460022</ele>
<time>2012-04-14T04:37:06.000Z</time>
</trkpt>
<trkpt lat="31.7675786" lon="35.2928336">
<ele>525.979980</ele>
<time>2012-04-14T04:37:42.000Z</time>
</trkpt>
<trkpt lat="31.7675774" lon="35.2928330">
<ele>525.979980</ele>
<time>2012-04-14T04:38:07.000Z</time>
</trkpt>
<trkpt lat="31.7676079" lon="35.2927987">
<ele>525.979980</ele>
<time>2012-04-14T04:38:42.000Z</time>
</trkpt>
<trkpt lat="31.7676313" lon="35.2927899">
<ele>525.500000</ele>
<time>2012-04-14T04:38:59.000Z</time>
</trkpt>
<trkpt lat="31.7676321" lon="35.2927939">
<ele>525.500000</ele>
<time>2012-04-14T04:39:09.000Z</time>
</trkpt>
<trkpt lat="31.7676817" lon="35.2927384">
<ele>525.979980</ele>
<time>2012-04-14T04:39:13.000Z</time>
</trkpt>
<trkpt lat="31.7678057" lon="35.2923831">
<ele>525.500000</ele>
<time>2012-04-14T04:39:27.000Z</time>
</trkpt>
<trkpt lat="31.7677770" lon="35.2919166">
<ele>525.979980</ele>
<time>2012-04-14T04:39:42.000Z</time>
</trkpt>
<trkpt lat="31.7678319" lon="35.2915647">
<ele>525.979980</ele>
<time>2012-04-14T04:39:54.000Z</time>
</trkpt>
<trkpt lat="31.7678399" lon="35.2915089">
<ele>525.979980</ele>
<time>2012-04-14T04:39:56.000Z</time>
</trkpt>
<trkpt lat="31.7679405" lon="35.2911551">
<ele>525.979980</ele>
<time>2012-04-14T04:40:08.000Z</time>
</trkpt>
<trkpt lat="31.7680561" lon="35.2906968">
<ele>526.460022</ele>
<time>2012-04-14T04:40:21.000Z</time>
</trkpt>
<trkpt lat="31.7680579" lon="35.2905479">
<ele>526.460022</ele>
<time>2012-04-14T04:40:26.000Z</time>
</trkpt>
<trkpt lat="31.7680853" lon="35.2901110">
<ele>526.940002</ele>
<time>2012-04-14T04:40:39.000Z</time>
</trkpt>
<trkpt lat="31.7678436" lon="35.2899368">
<ele>528.859985</ele>
<time>2012-04-14T04:40:50.000Z</time>
</trkpt>
<trkpt lat="31.7674503" lon="35.2897993">
<ele>531.750000</ele>
<time>2012-04-14T04:41:07.000Z</time>
</trkpt>
<trkpt lat="31.7671791" lon="35.2898652">
<ele>533.190002</ele>
<time>2012-04-14T04:41:18.000Z</time>
</trkpt>
<trkpt lat="31.7667952" lon="35.2901130">
<ele>535.109985</ele>
<time>2012-04-14T04:41:34.000Z</time>
</trkpt>
<trkpt lat="31.7663730" lon="35.2903344">
<ele>534.630005</ele>
<time>2012-04-14T04:41:48.000Z</time>
</trkpt>
<trkpt lat="31.7662661" lon="35.2903951">
<ele>534.149963</ele>
<time>2012-04-14T04:41:51.000Z</time>
</trkpt>
<trkpt lat="31.7656724" lon="35.2906789">
<ele>530.789978</ele>
<time>2012-04-14T04:42:02.000Z</time>
</trkpt>
<trkpt lat="31.7652917" lon="35.2907060">
<ele>529.820007</ele>
<time>2012-04-14T04:42:07.000Z</time>
</trkpt>
<trkpt lat="31.7652141" lon="35.2907213">
<ele>528.859985</ele>
<time>2012-04-14T04:42:08.000Z</time>
</trkpt>
<trkpt lat="31.7645865" lon="35.2910259">
<ele>525.020020</ele>
<time>2012-04-14T04:42:16.000Z</time>
</trkpt>
<trkpt lat="31.7638296" lon="35.2914449">
<ele>521.649963</ele>
<time>2012-04-14T04:42:25.000Z</time>
</trkpt>
<trkpt lat="31.7631222" lon="35.2918523">
<ele>518.289978</ele>
<time>2012-04-14T04:42:33.000Z</time>
</trkpt>
<trkpt lat="31.7628829" lon="35.2920707">
<ele>516.850037</ele>
<time>2012-04-14T04:42:36.000Z</time>
</trkpt>
<trkpt lat="31.7628118" lon="35.2921606">
<ele>515.880005</ele>
<time>2012-04-14T04:42:37.000Z</time>
</trkpt>
<trkpt lat="31.7627440" lon="35.2922570">
<ele>514.919983</ele>
<time>2012-04-14T04:42:38.000Z</time>
</trkpt>
<trkpt lat="31.7626804" lon="35.2923591">
<ele>514.440002</ele>
<time>2012-04-14T04:42:39.000Z</time>
</trkpt>
<trkpt lat="31.7626225" lon="35.2924703">
<ele>513.479980</ele>
<time>2012-04-14T04:42:40.000Z</time>
</trkpt>
<trkpt lat="31.7625733" lon="35.2925880">
<ele>513.000000</ele>
<time>2012-04-14T04:42:41.000Z</time>
</trkpt>
<trkpt lat="31.7625344" lon="35.2927144">
<ele>512.520020</ele>
<time>2012-04-14T04:42:42.000Z</time>
</trkpt>
<trkpt lat="31.7625063" lon="35.2928478">
<ele>511.079987</ele>
<time>2012-04-14T04:42:43.000Z</time>
</trkpt>
<trkpt lat="31.7624865" lon="35.2929859">
<ele>510.600006</ele>
<time>2012-04-14T04:42:44.000Z</time>
</trkpt>
<trkpt lat="31.7624748" lon="35.2931285">
<ele>509.639984</ele>
<time>2012-04-14T04:42:45.000Z</time>
</trkpt>
<trkpt lat="31.7624734" lon="35.2932719">
<ele>508.670013</ele>
<time>2012-04-14T04:42:46.000Z</time>
</trkpt>
<trkpt lat="31.7624861" lon="35.2934088">
<ele>507.709991</ele>
<time>2012-04-14T04:42:47.000Z</time>
</trkpt>
<trkpt lat="31.7625093" lon="35.2935363">
<ele>506.270020</ele>
<time>2012-04-14T04:42:48.000Z</time>
</trkpt>
<trkpt lat="31.7626681" lon="35.2940120">
<ele>502.910004</ele>
<time>2012-04-14T04:42:52.000Z</time>
</trkpt>
<trkpt lat="31.7628011" lon="35.2942273">
<ele>501.459991</ele>
<time>2012-04-14T04:42:54.000Z</time>
</trkpt>
<trkpt lat="31.7628815" lon="35.2943252">
<ele>500.500031</ele>
<time>2012-04-14T04:42:55.000Z</time>
</trkpt>
<trkpt lat="31.7632374" lon="35.2947055">
<ele>496.660004</ele>
<time>2012-04-14T04:42:59.000Z</time>
</trkpt>
<trkpt lat="31.7633977" lon="35.2948982">
<ele>494.259979</ele>
<time>2012-04-14T04:43:01.000Z</time>
</trkpt>
<trkpt lat="31.7634610" lon="35.2949987">
<ele>493.290009</ele>
<time>2012-04-14T04:43:02.000Z</time>
</trkpt>
<trkpt lat="31.7635144" lon="35.2951046">
<ele>491.850006</ele>
<time>2012-04-14T04:43:03.000Z</time>
</trkpt>
<trkpt lat="31.7635594" lon="35.2952174">
<ele>490.890015</ele>
<time>2012-04-14T04:43:04.000Z</time>
</trkpt>
<trkpt lat="31.7635970" lon="35.2953388">
<ele>490.410004</ele>
<time>2012-04-14T04:43:05.000Z</time>
</trkpt>
<trkpt lat="31.7636275" lon="35.2954675">
<ele>489.450012</ele>
<time>2012-04-14T04:43:06.000Z</time>
</trkpt>
<trkpt lat="31.7636500" lon="35.2956001">
<ele>488.489990</ele>
<time>2012-04-14T04:43:07.000Z</time>
</trkpt>
<trkpt lat="31.7636612" lon="35.2957369">
<ele>487.530029</ele>
<time>2012-04-14T04:43:08.000Z</time>
</trkpt>
<trkpt lat="31.7636597" lon="35.2958758">
<ele>487.050018</ele>
<time>2012-04-14T04:43:09.000Z</time>
</trkpt>
<trkpt lat="31.7636481" lon="35.2960180">
<ele>486.079987</ele>
<time>2012-04-14T04:43:10.000Z</time>
</trkpt>
<trkpt lat="31.7636221" lon="35.2961585">
<ele>484.640015</ele>
<time>2012-04-14T04:43:11.000Z</time>
</trkpt>
<trkpt lat="31.7635859" lon="35.2962933">
<ele>483.679993</ele>
<time>2012-04-14T04:43:12.000Z</time>
</trkpt>
<trkpt lat="31.7635376" lon="35.2964208">
<ele>482.720001</ele>
<time>2012-04-14T04:43:13.000Z</time>
</trkpt>
<trkpt lat="31.7634793" lon="35.2965428">
<ele>481.280029</ele>
<time>2012-04-14T04:43:14.000Z</time>
</trkpt>
<trkpt lat="31.7634128" lon="35.2966571">
<ele>480.320007</ele>
<time>2012-04-14T04:43:15.000Z</time>
</trkpt>
<trkpt lat="31.7633357" lon="35.2967624">
<ele>479.350006</ele>
<time>2012-04-14T04:43:16.000Z</time>
</trkpt>
<trkpt lat="31.7632497" lon="35.2968591">
<ele>478.390015</ele>
<time>2012-04-14T04:43:17.000Z</time>
</trkpt>
<trkpt lat="31.7631533" lon="35.2969522">
<ele>477.429993</ele>
<time>2012-04-14T04:43:18.000Z</time>
</trkpt>
<trkpt lat="31.7627554" lon="35.2973330">
<ele>473.589996</ele>
<time>2012-04-14T04:43:22.000Z</time>
</trkpt>
<trkpt lat="31.7623426" lon="35.2977292">
<ele>469.739990</ele>
<time>2012-04-14T04:43:26.000Z</time>
</trkpt>
<trkpt lat="31.7620235" lon="35.2980305">
<ele>466.380005</ele>
<time>2012-04-14T04:43:29.000Z</time>
</trkpt>
<trkpt lat="31.7617161" lon="35.2983201">
<ele>463.009979</ele>
<time>2012-04-14T04:43:32.000Z</time>
</trkpt>
<trkpt lat="31.7614210" lon="35.2986084">
<ele>460.130005</ele>
<time>2012-04-14T04:43:35.000Z</time>
</trkpt>
<trkpt lat="31.7610542" lon="35.2990002">
<ele>455.800018</ele>
<time>2012-04-14T04:43:39.000Z</time>
</trkpt>
<trkpt lat="31.7607289" lon="35.2994434">
<ele>452.440002</ele>
<time>2012-04-14T04:43:43.000Z</time>
</trkpt>
<trkpt lat="31.7604300" lon="35.2999390">
<ele>448.589996</ele>
<time>2012-04-14T04:43:47.000Z</time>
</trkpt>
<trkpt lat="31.7601839" lon="35.3004675">
<ele>445.709991</ele>
<time>2012-04-14T04:43:51.000Z</time>
</trkpt>
<trkpt lat="31.7599468" lon="35.3010116">
<ele>442.339996</ele>
<time>2012-04-14T04:43:55.000Z</time>
</trkpt>
<trkpt lat="31.7597474" lon="35.3014041">
<ele>439.459991</ele>
<time>2012-04-14T04:43:58.000Z</time>
</trkpt>
<trkpt lat="31.7596606" lon="35.3015136">
<ele>438.500000</ele>
<time>2012-04-14T04:43:59.000Z</time>
</trkpt>
<trkpt lat="31.7595676" lon="35.3016075">
<ele>438.019989</ele>
<time>2012-04-14T04:44:00.000Z</time>
</trkpt>
<trkpt lat="31.7594688" lon="35.3016877">
<ele>437.059998</ele>
<time>2012-04-14T04:44:01.000Z</time>
</trkpt>
<trkpt lat="31.7593656" lon="35.3017499">
<ele>436.580017</ele>
<time>2012-04-14T04:44:02.000Z</time>
</trkpt>
<trkpt lat="31.7592570" lon="35.3017951">
<ele>435.609985</ele>
<time>2012-04-14T04:44:03.000Z</time>
</trkpt>
<trkpt lat="31.7591443" lon="35.3018246">
<ele>435.130005</ele>
<time>2012-04-14T04:44:04.000Z</time>
</trkpt>
<trkpt lat="31.7590302" lon="35.3018406">
<ele>434.170013</ele>
<time>2012-04-14T04:44:05.000Z</time>
</trkpt>
<trkpt lat="31.7589151" lon="35.3018410">
<ele>433.690002</ele>
<time>2012-04-14T04:44:06.000Z</time>
</trkpt>
<trkpt lat="31.7588005" lon="35.3018263">
<ele>432.730011</ele>
<time>2012-04-14T04:44:07.000Z</time>
</trkpt>
<trkpt lat="31.7586873" lon="35.3018009">
<ele>432.250000</ele>
<time>2012-04-14T04:44:08.000Z</time>
</trkpt>
<trkpt lat="31.7585774" lon="35.3017623">
<ele>431.289978</ele>
<time>2012-04-14T04:44:09.000Z</time>
</trkpt>
<trkpt lat="31.7584730" lon="35.3017085">
<ele>430.809998</ele>
<time>2012-04-14T04:44:10.000Z</time>
</trkpt>
<trkpt lat="31.7583750" lon="35.3016398">
<ele>429.850006</ele>
<time>2012-04-14T04:44:11.000Z</time>
</trkpt>
<trkpt lat="31.7582839" lon="35.3015598">
<ele>429.369995</ele>
<time>2012-04-14T04:44:12.000Z</time>
</trkpt>
<trkpt lat="31.7582001" lon="35.3014708">
<ele>428.889984</ele>
<time>2012-04-14T04:44:13.000Z</time>
</trkpt>
<trkpt lat="31.7581257" lon="35.3013720">
<ele>427.920013</ele>
<time>2012-04-14T04:44:14.000Z</time>
</trkpt>
<trkpt lat="31.7580659" lon="35.3012632">
<ele>427.440002</ele>
<time>2012-04-14T04:44:15.000Z</time>
</trkpt>
<trkpt lat="31.7580152" lon="35.3011459">
<ele>426.480011</ele>
<time>2012-04-14T04:44:16.000Z</time>
</trkpt>
<trkpt lat="31.7579731" lon="35.3010206">
<ele>426.000000</ele>
<time>2012-04-14T04:44:17.000Z</time>
</trkpt>
<trkpt lat="31.7579374" lon="35.3008953">
<ele>425.519989</ele>
<time>2012-04-14T04:44:18.000Z</time>
</trkpt>
<trkpt lat="31.7577542" lon="35.3002722">
<ele>422.160004</ele>
<time>2012-04-14T04:44:23.000Z</time>
</trkpt>
<trkpt lat="31.7575670" lon="35.2996306">
<ele>418.789978</ele>
<time>2012-04-14T04:44:28.000Z</time>
</trkpt>
<trkpt lat="31.7574509" lon="35.2992594">
<ele>416.389984</ele>
<time>2012-04-14T04:44:31.000Z</time>
</trkpt>
<trkpt lat="31.7572132" lon="35.2986699">
<ele>413.980011</ele>
<time>2012-04-14T04:44:36.000Z</time>
</trkpt>
<trkpt lat="31.7565847" lon="35.2975592">
<ele>411.100006</ele>
<time>2012-04-14T04:44:48.000Z</time>
</trkpt>
<trkpt lat="31.7559205" lon="35.2964988">
<ele>409.660004</ele>
<time>2012-04-14T04:45:03.000Z</time>
</trkpt>
<trkpt lat="31.7552887" lon="35.2955295">
<ele>408.700012</ele>
<time>2012-04-14T04:45:18.000Z</time>
</trkpt>
<trkpt lat="31.7552440" lon="35.2954655">
<ele>408.700012</ele>
<time>2012-04-14T04:45:19.000Z</time>
</trkpt>
<trkpt lat="31.7551993" lon="35.2954093">
<ele>408.700012</ele>
<time>2012-04-14T04:45:20.000Z</time>
</trkpt>
<trkpt lat="31.7551528" lon="35.2953598">
<ele>408.700012</ele>
<time>2012-04-14T04:45:21.000Z</time>
</trkpt>
<trkpt lat="31.7550992" lon="35.2953167">
<ele>408.700012</ele>
<time>2012-04-14T04:45:22.000Z</time>
</trkpt>
<trkpt lat="31.7550418" lon="35.2952789">
<ele>408.700012</ele>
<time>2012-04-14T04:45:23.000Z</time>
</trkpt>
<trkpt lat="31.7549850" lon="35.2952442">
<ele>408.220001</ele>
<time>2012-04-14T04:45:24.000Z</time>
</trkpt>
<trkpt lat="31.7548644" lon="35.2951842">
<ele>408.700012</ele>
<time>2012-04-14T04:45:26.000Z</time>
</trkpt>
<trkpt lat="31.7547418" lon="35.2951489">
<ele>408.220001</ele>
<time>2012-04-14T04:45:28.000Z</time>
</trkpt>
<trkpt lat="31.7546797" lon="35.2951427">
<ele>408.220001</ele>
<time>2012-04-14T04:45:29.000Z</time>
</trkpt>
<trkpt lat="31.7546180" lon="35.2951422">
<ele>408.220001</ele>
<time>2012-04-14T04:45:30.000Z</time>
</trkpt>
<trkpt lat="31.7545588" lon="35.2951484">
<ele>408.220001</ele>
<time>2012-04-14T04:45:31.000Z</time>
</trkpt>
<trkpt lat="31.7545002" lon="35.2951593">
<ele>408.220001</ele>
<time>2012-04-14T04:45:32.000Z</time>
</trkpt>
<trkpt lat="31.7544436" lon="35.2951746">
<ele>408.220001</ele>
<time>2012-04-14T04:45:33.000Z</time>
</trkpt>
<trkpt lat="31.7543891" lon="35.2951920">
<ele>408.220001</ele>
<time>2012-04-14T04:45:34.000Z</time>
</trkpt>
<trkpt lat="31.7541679" lon="35.2953116">
<ele>409.660004</ele>
<time>2012-04-14T04:45:39.000Z</time>
</trkpt>
<trkpt lat="31.7541320" lon="35.2953463">
<ele>409.660004</ele>
<time>2012-04-14T04:45:40.000Z</time>
</trkpt>
<trkpt lat="31.7540967" lon="35.2953790">
<ele>410.139984</ele>
<time>2012-04-14T04:45:41.000Z</time>
</trkpt>
<trkpt lat="31.7538571" lon="35.2958124">
<ele>412.539978</ele>
<time>2012-04-14T04:45:54.000Z</time>
</trkpt>
<trkpt lat="31.7538183" lon="35.2962681">
<ele>415.910004</ele>
<time>2012-04-14T04:46:09.000Z</time>
</trkpt>
<trkpt lat="31.7538525" lon="35.2964696">
<ele>417.830017</ele>
<time>2012-04-14T04:46:19.000Z</time>
</trkpt>
<trkpt lat="31.7538530" lon="35.2964876">
<ele>418.309998</ele>
<time>2012-04-14T04:46:20.000Z</time>
</trkpt>
<trkpt lat="31.7538534" lon="35.2965072">
<ele>418.309998</ele>
<time>2012-04-14T04:46:21.000Z</time>
</trkpt>
<trkpt lat="31.7538597" lon="35.2965275">
<ele>418.309998</ele>
<time>2012-04-14T04:46:22.000Z</time>
</trkpt>
<trkpt lat="31.7538669" lon="35.2965517">
<ele>418.309998</ele>
<time>2012-04-14T04:46:23.000Z</time>
</trkpt>
<trkpt lat="31.7539111" lon="35.2966452">
<ele>419.269989</ele>
<time>2012-04-14T04:46:28.000Z</time>
</trkpt>
<trkpt lat="31.7539144" lon="35.2966631">
<ele>419.269989</ele>
<time>2012-04-14T04:46:29.000Z</time>
</trkpt>
<trkpt lat="31.7539190" lon="35.2966809">
<ele>419.750000</ele>
<time>2012-04-14T04:46:30.000Z</time>
</trkpt>
<trkpt lat="31.7539211" lon="35.2966978">
<ele>419.269989</ele>
<time>2012-04-14T04:46:31.000Z</time>
</trkpt>
<trkpt lat="31.7539248" lon="35.2967157">
<ele>419.750000</ele>
<time>2012-04-14T04:46:32.000Z</time>
</trkpt>
<trkpt lat="31.7539296" lon="35.2967382">
<ele>420.709991</ele>
<time>2012-04-14T04:46:33.000Z</time>
</trkpt>
<trkpt lat="31.7539377" lon="35.2967596">
<ele>420.230011</ele>
<time>2012-04-14T04:46:34.000Z</time>
</trkpt>
<trkpt lat="31.7539459" lon="35.2967791">
<ele>420.230011</ele>
<time>2012-04-14T04:46:35.000Z</time>
</trkpt>
<trkpt lat="31.7539507" lon="35.2967982">
<ele>420.230011</ele>
<time>2012-04-14T04:46:36.000Z</time>
</trkpt>
<trkpt lat="31.7539526" lon="35.2968199">
<ele>420.230011</ele>
<time>2012-04-14T04:46:37.000Z</time>
</trkpt>
<trkpt lat="31.7539559" lon="35.2968398">
<ele>420.709991</ele>
<time>2012-04-14T04:46:38.000Z</time>
</trkpt>
<trkpt lat="31.7539602" lon="35.2968584">
<ele>421.190002</ele>
<time>2012-04-14T04:46:39.000Z</time>
</trkpt>
<trkpt lat="31.7539681" lon="35.2968751">
<ele>421.190002</ele>
<time>2012-04-14T04:46:40.000Z</time>
</trkpt>
<trkpt lat="31.7539698" lon="35.2968939">
<ele>421.190002</ele>
<time>2012-04-14T04:46:41.000Z</time>
</trkpt>
<trkpt lat="31.7539653" lon="35.2969157">
<ele>421.680023</ele>
<time>2012-04-14T04:46:42.000Z</time>
</trkpt>
<trkpt lat="31.7539649" lon="35.2969366">
<ele>421.680023</ele>
<time>2012-04-14T04:46:43.000Z</time>
</trkpt>
<trkpt lat="31.7539700" lon="35.2969567">
<ele>421.680023</ele>
<time>2012-04-14T04:46:44.000Z</time>
</trkpt>
<trkpt lat="31.7540387" lon="35.2972333">
<ele>424.080017</ele>
<time>2012-04-14T04:46:59.000Z</time>
</trkpt>
<trkpt lat="31.7541101" lon="35.2975297">
<ele>426.480011</ele>
<time>2012-04-14T04:47:16.000Z</time>
</trkpt>
<trkpt lat="31.7541262" lon="35.2975749">
<ele>426.959991</ele>
<time>2012-04-14T04:47:19.000Z</time>
</trkpt>
<trkpt lat="31.7541290" lon="35.2975924">
<ele>427.440002</ele>
<time>2012-04-14T04:47:20.000Z</time>
</trkpt>
<trkpt lat="31.7541444" lon="35.2976444">
<ele>427.440002</ele>
<time>2012-04-14T04:47:23.000Z</time>
</trkpt>
<trkpt lat="31.7541511" lon="35.2976615">
<ele>427.920013</ele>
<time>2012-04-14T04:47:24.000Z</time>
</trkpt>
<trkpt lat="31.7542265" lon="35.2979975">
<ele>430.330017</ele>
<time>2012-04-14T04:47:43.000Z</time>
</trkpt>
<trkpt lat="31.7542446" lon="35.2980374">
<ele>431.289978</ele>
<time>2012-04-14T04:47:45.000Z</time>
</trkpt>
<trkpt lat="31.7542497" lon="35.2980565">
<ele>431.289978</ele>
<time>2012-04-14T04:47:46.000Z</time>
</trkpt>
<trkpt lat="31.7542530" lon="35.2980772">
<ele>431.289978</ele>
<time>2012-04-14T04:47:47.000Z</time>
</trkpt>
<trkpt lat="31.7542571" lon="35.2980965">
<ele>431.289978</ele>
<time>2012-04-14T04:47:48.000Z</time>
</trkpt>
<trkpt lat="31.7542602" lon="35.2981170">
<ele>431.289978</ele>
<time>2012-04-14T04:47:49.000Z</time>
</trkpt>
<trkpt lat="31.7542621" lon="35.2981344">
<ele>431.769989</ele>
<time>2012-04-14T04:47:50.000Z</time>
</trkpt>
<trkpt lat="31.7542639" lon="35.2981519">
<ele>431.769989</ele>
<time>2012-04-14T04:47:51.000Z</time>
</trkpt>
<trkpt lat="31.7542644" lon="35.2981693">
<ele>431.769989</ele>
<time>2012-04-14T04:47:52.000Z</time>
</trkpt>
<trkpt lat="31.7542696" lon="35.2981846">
<ele>431.769989</ele>
<time>2012-04-14T04:47:53.000Z</time>
</trkpt>
<trkpt lat="31.7542761" lon="35.2982005">
<ele>432.250000</ele>
<time>2012-04-14T04:47:54.000Z</time>
</trkpt>
<trkpt lat="31.7542806" lon="35.2982183">
<ele>432.250000</ele>
<time>2012-04-14T04:47:55.000Z</time>
</trkpt>
<trkpt lat="31.7543481" lon="35.2985103">
<ele>435.130005</ele>
<time>2012-04-14T04:48:11.000Z</time>
</trkpt>
<trkpt lat="31.7543945" lon="35.2987744">
<ele>437.059998</ele>
<time>2012-04-14T04:48:26.000Z</time>
</trkpt>
<trkpt lat="31.7544051" lon="35.2988455">
<ele>438.019989</ele>
<time>2012-04-14T04:48:30.000Z</time>
</trkpt>
<trkpt lat="31.7544084" lon="35.2988653">
<ele>438.019989</ele>
<time>2012-04-14T04:48:31.000Z</time>
</trkpt>
<trkpt lat="31.7544109" lon="35.2988838">
<ele>437.539978</ele>
<time>2012-04-14T04:48:32.000Z</time>
</trkpt>
<trkpt lat="31.7544119" lon="35.2989029">
<ele>438.019989</ele>
<time>2012-04-14T04:48:33.000Z</time>
</trkpt>
<trkpt lat="31.7544113" lon="35.2989206">
<ele>438.500000</ele>
<time>2012-04-14T04:48:34.000Z</time>
</trkpt>
<trkpt lat="31.7544139" lon="35.2989356">
<ele>438.019989</ele>
<time>2012-04-14T04:48:35.000Z</time>
</trkpt>
<trkpt lat="31.7544716" lon="35.2992849">
<ele>440.899994</ele>
<time>2012-04-14T04:48:54.000Z</time>
</trkpt>
<trkpt lat="31.7545386" lon="35.2995261">
<ele>442.820007</ele>
<time>2012-04-14T04:49:07.000Z</time>
</trkpt>
<trkpt lat="31.7545573" lon="35.2998131">
<ele>444.750000</ele>
<time>2012-04-14T04:49:23.000Z</time>
</trkpt>
<trkpt lat="31.7545315" lon="35.3001256">
<ele>446.190002</ele>
<time>2012-04-14T04:49:40.000Z</time>
</trkpt>
<trkpt lat="31.7545170" lon="35.3001615">
<ele>446.670013</ele>
<time>2012-04-14T04:49:42.000Z</time>
</trkpt>
<trkpt lat="31.7545137" lon="35.3001848">
<ele>446.670013</ele>
<time>2012-04-14T04:49:43.000Z</time>
</trkpt>
<trkpt lat="31.7545100" lon="35.3002069">
<ele>446.670013</ele>
<time>2012-04-14T04:49:44.000Z</time>
</trkpt>
<trkpt lat="31.7545059" lon="35.3002291">
<ele>447.149994</ele>
<time>2012-04-14T04:49:45.000Z</time>
</trkpt>
<trkpt lat="31.7545038" lon="35.3002549">
<ele>447.149994</ele>
<time>2012-04-14T04:49:46.000Z</time>
</trkpt>
<trkpt lat="31.7545044" lon="35.3002817">
<ele>447.630005</ele>
<time>2012-04-14T04:49:47.000Z</time>
</trkpt>
<trkpt lat="31.7544756" lon="35.3006966">
<ele>449.550018</ele>
<time>2012-04-14T04:50:05.000Z</time>
</trkpt>
<trkpt lat="31.7544366" lon="35.3011604">
<ele>451.480011</ele>
<time>2012-04-14T04:50:24.000Z</time>
</trkpt>
<trkpt lat="31.7543763" lon="35.3017273">
<ele>453.399994</ele>
<time>2012-04-14T04:50:41.000Z</time>
</trkpt>
<trkpt lat="31.7543286" lon="35.3022276">
<ele>454.839996</ele>
<time>2012-04-14T04:50:55.000Z</time>
</trkpt>
<trkpt lat="31.7542746" lon="35.3027684">
<ele>455.800018</ele>
<time>2012-04-14T04:51:09.000Z</time>
</trkpt>
<trkpt lat="31.7543523" lon="35.3034811">
<ele>455.800018</ele>
<time>2012-04-14T04:51:26.000Z</time>
</trkpt>
<trkpt lat="31.7543082" lon="35.3038676">
<ele>456.279968</ele>
<time>2012-04-14T04:51:36.000Z</time>
</trkpt>
<trkpt lat="31.7540238" lon="35.3038764">
<ele>458.690002</ele>
<time>2012-04-14T04:51:48.000Z</time>
</trkpt>
<trkpt lat="31.7537920" lon="35.3037029">
<ele>462.050018</ele>
<time>2012-04-14T04:52:02.000Z</time>
</trkpt>
<trkpt lat="31.7537828" lon="35.3036888">
<ele>462.050018</ele>
<time>2012-04-14T04:52:03.000Z</time>
</trkpt>
<trkpt lat="31.7537727" lon="35.3036740">
<ele>461.570007</ele>
<time>2012-04-14T04:52:04.000Z</time>
</trkpt>
<trkpt lat="31.7537629" lon="35.3036598">
<ele>462.050018</ele>
<time>2012-04-14T04:52:05.000Z</time>
</trkpt>
<trkpt lat="31.7537502" lon="35.3036453">
<ele>462.050018</ele>
<time>2012-04-14T04:52:06.000Z</time>
</trkpt>
<trkpt lat="31.7537405" lon="35.3036303">
<ele>462.529968</ele>
<time>2012-04-14T04:52:07.000Z</time>
</trkpt>
<trkpt lat="31.7537333" lon="35.3036141">
<ele>462.529968</ele>
<time>2012-04-14T04:52:08.000Z</time>
</trkpt>
<trkpt lat="31.7536651" lon="35.3033763">
<ele>464.929993</ele>
<time>2012-04-14T04:52:22.000Z</time>
</trkpt>
<trkpt lat="31.7536375" lon="35.3031304">
<ele>467.339996</ele>
<time>2012-04-14T04:52:36.000Z</time>
</trkpt>
<trkpt lat="31.7536383" lon="35.3030885">
<ele>467.820007</ele>
<time>2012-04-14T04:52:39.000Z</time>
</trkpt>
<trkpt lat="31.7536361" lon="35.3030723">
<ele>468.300018</ele>
<time>2012-04-14T04:52:40.000Z</time>
</trkpt>
<trkpt lat="31.7536369" lon="35.3030564">
<ele>468.300018</ele>
<time>2012-04-14T04:52:41.000Z</time>
</trkpt>
<trkpt lat="31.7536279" lon="35.3029800">
<ele>468.779968</ele>
<time>2012-04-14T04:52:46.000Z</time>
</trkpt>
<trkpt lat="31.7536281" lon="35.3029643">
<ele>469.739990</ele>
<time>2012-04-14T04:52:47.000Z</time>
</trkpt>
<trkpt lat="31.7536259" lon="35.3029518">
<ele>469.259979</ele>
<time>2012-04-14T04:52:48.000Z</time>
</trkpt>
<trkpt lat="31.7536232" lon="35.3029394">
<ele>469.739990</ele>
<time>2012-04-14T04:52:49.000Z</time>
</trkpt>
<trkpt lat="31.7536229" lon="35.3029269">
<ele>469.739990</ele>
<time>2012-04-14T04:52:50.000Z</time>
</trkpt>
<trkpt lat="31.7536198" lon="35.3029135">
<ele>469.739990</ele>
<time>2012-04-14T04:52:51.000Z</time>
</trkpt>
<trkpt lat="31.7536150" lon="35.3028999">
<ele>469.739990</ele>
<time>2012-04-14T04:52:52.000Z</time>
</trkpt>
<trkpt lat="31.7535936" lon="35.3027353">
<ele>471.660004</ele>
<time>2012-04-14T04:53:03.000Z</time>
</trkpt>
<trkpt lat="31.7535953" lon="35.3027191">
<ele>471.660004</ele>
<time>2012-04-14T04:53:04.000Z</time>
</trkpt>
<trkpt lat="31.7535955" lon="35.3027018">
<ele>471.660004</ele>
<time>2012-04-14T04:53:05.000Z</time>
</trkpt>
<trkpt lat="31.7535503" lon="35.3024447">
<ele>474.550018</ele>
<time>2012-04-14T04:53:21.000Z</time>
</trkpt>
<trkpt lat="31.7535372" lon="35.3024043">
<ele>475.029968</ele>
<time>2012-04-14T04:53:24.000Z</time>
</trkpt>
<trkpt lat="31.7535378" lon="35.3023872">
<ele>475.029968</ele>
<time>2012-04-14T04:53:25.000Z</time>
</trkpt>
<trkpt lat="31.7535403" lon="35.3023706">
<ele>475.029968</ele>
<time>2012-04-14T04:53:26.000Z</time>
</trkpt>
<trkpt lat="31.7535398" lon="35.3023550">
<ele>475.509979</ele>
<time>2012-04-14T04:53:27.000Z</time>
</trkpt>
<trkpt lat="31.7535400" lon="35.3023394">
<ele>475.509979</ele>
<time>2012-04-14T04:53:28.000Z</time>
</trkpt>
<trkpt lat="31.7535411" lon="35.3023239">
<ele>475.509979</ele>
<time>2012-04-14T04:53:29.000Z</time>
</trkpt>
<trkpt lat="31.7535380" lon="35.3023084">
<ele>475.989990</ele>
<time>2012-04-14T04:53:30.000Z</time>
</trkpt>
<trkpt lat="31.7535364" lon="35.3022954">
<ele>475.989990</ele>
<time>2012-04-14T04:53:31.000Z</time>
</trkpt>
<trkpt lat="31.7535369" lon="35.3022814">
<ele>475.989990</ele>
<time>2012-04-14T04:53:32.000Z</time>
</trkpt>
<trkpt lat="31.7535367" lon="35.3022685">
<ele>476.470001</ele>
<time>2012-04-14T04:53:33.000Z</time>
</trkpt>
<trkpt lat="31.7535343" lon="35.3022547">
<ele>476.470001</ele>
<time>2012-04-14T04:53:34.000Z</time>
</trkpt>
<trkpt lat="31.7535342" lon="35.3022426">
<ele>476.470001</ele>
<time>2012-04-14T04:53:35.000Z</time>
</trkpt>
<trkpt lat="31.7534910" lon="35.3020074">
<ele>478.390015</ele>
<time>2012-04-14T04:53:51.000Z</time>
</trkpt>
<trkpt lat="31.7534758" lon="35.3018715">
<ele>480.320007</ele>
<time>2012-04-14T04:54:01.000Z</time>
</trkpt>
<trkpt lat="31.7534684" lon="35.3018567">
<ele>480.320007</ele>
<time>2012-04-14T04:54:02.000Z</time>
</trkpt>
<trkpt lat="31.7534408" lon="35.3016062">
<ele>482.720001</ele>
<time>2012-04-14T04:54:18.000Z</time>
</trkpt>
<trkpt lat="31.7534093" lon="35.3013525">
<ele>485.119995</ele>
<time>2012-04-14T04:54:34.000Z</time>
</trkpt>
<trkpt lat="31.7533772" lon="35.3010967">
<ele>487.530029</ele>
<time>2012-04-14T04:54:50.000Z</time>
</trkpt>
<trkpt lat="31.7533369" lon="35.3008123">
<ele>488.009979</ele>
<time>2012-04-14T04:55:06.000Z</time>
</trkpt>
<trkpt lat="31.7532981" lon="35.3005245">
<ele>489.450012</ele>
<time>2012-04-14T04:55:21.000Z</time>
</trkpt>
<trkpt lat="31.7532380" lon="35.3001942">
<ele>491.850006</ele>
<time>2012-04-14T04:55:38.000Z</time>
</trkpt>
<trkpt lat="31.7531673" lon="35.2998851">
<ele>492.809998</ele>
<time>2012-04-14T04:55:54.000Z</time>
</trkpt>
<trkpt lat="31.7530651" lon="35.2995959">
<ele>494.739990</ele>
<time>2012-04-14T04:56:10.000Z</time>
</trkpt>
<trkpt lat="31.7529290" lon="35.2992945">
<ele>496.660004</ele>
<time>2012-04-14T04:56:27.000Z</time>
</trkpt>
<trkpt lat="31.7527646" lon="35.2990221">
<ele>498.100006</ele>
<time>2012-04-14T04:56:44.000Z</time>
</trkpt>
<trkpt lat="31.7525587" lon="35.2987582">
<ele>500.500031</ele>
<time>2012-04-14T04:57:02.000Z</time>
</trkpt>
<trkpt lat="31.7523168" lon="35.2985208">
<ele>501.950012</ele>
<time>2012-04-14T04:57:20.000Z</time>
</trkpt>
<trkpt lat="31.7520741" lon="35.2983108">
<ele>504.350006</ele>
<time>2012-04-14T04:57:37.000Z</time>
</trkpt>
<trkpt lat="31.7518503" lon="35.2981285">
<ele>505.309998</ele>
<time>2012-04-14T04:57:52.000Z</time>
</trkpt>
<trkpt lat="31.7516870" lon="35.2980249">
<ele>506.750031</ele>
<time>2012-04-14T04:58:03.000Z</time>
</trkpt>
<trkpt lat="31.7516742" lon="35.2980124">
<ele>506.750031</ele>
<time>2012-04-14T04:58:04.000Z</time>
</trkpt>
<trkpt lat="31.7516632" lon="35.2979988">
<ele>506.750031</ele>
<time>2012-04-14T04:58:05.000Z</time>
</trkpt>
<trkpt lat="31.7515042" lon="35.2978620">
<ele>509.160004</ele>
<time>2012-04-14T04:58:19.000Z</time>
</trkpt>
<trkpt lat="31.7514946" lon="35.2978525">
<ele>509.160004</ele>
<time>2012-04-14T04:58:20.000Z</time>
</trkpt>
<trkpt lat="31.7514825" lon="35.2978415">
<ele>509.160004</ele>
<time>2012-04-14T04:58:21.000Z</time>
</trkpt>
<trkpt lat="31.7514722" lon="35.2978284">
<ele>509.639984</ele>
<time>2012-04-14T04:58:22.000Z</time>
</trkpt>
<trkpt lat="31.7514615" lon="35.2978203">
<ele>509.639984</ele>
<time>2012-04-14T04:58:23.000Z</time>
</trkpt>
<trkpt lat="31.7514502" lon="35.2978117">
<ele>509.639984</ele>
<time>2012-04-14T04:58:24.000Z</time>
</trkpt>
<trkpt lat="31.7514406" lon="35.2978026">
<ele>510.119995</ele>
<time>2012-04-14T04:58:25.000Z</time>
</trkpt>
<trkpt lat="31.7514312" lon="35.2977944">
<ele>510.119995</ele>
<time>2012-04-14T04:58:26.000Z</time>
</trkpt>
<trkpt lat="31.7514214" lon="35.2977873">
<ele>510.119995</ele>
<time>2012-04-14T04:58:27.000Z</time>
</trkpt>
<trkpt lat="31.7514095" lon="35.2977796">
<ele>510.600006</ele>
<time>2012-04-14T04:58:28.000Z</time>
</trkpt>
<trkpt lat="31.7513976" lon="35.2977706">
<ele>510.600006</ele>
<time>2012-04-14T04:58:29.000Z</time>
</trkpt>
<trkpt lat="31.7513867" lon="35.2977635">
<ele>511.079987</ele>
<time>2012-04-14T04:58:30.000Z</time>
</trkpt>
<trkpt lat="31.7513726" lon="35.2977565">
<ele>510.600006</ele>
<time>2012-04-14T04:58:31.000Z</time>
</trkpt>
<trkpt lat="31.7512498" lon="35.2976514">
<ele>513.000000</ele>
<time>2012-04-14T04:58:44.000Z</time>
</trkpt>
<trkpt lat="31.7511077" lon="35.2975307">
<ele>514.919983</ele>
<time>2012-04-14T04:58:59.000Z</time>
</trkpt>
<trkpt lat="31.7510981" lon="35.2975267">
<ele>514.919983</ele>
<time>2012-04-14T04:59:00.000Z</time>
</trkpt>
<trkpt lat="31.7510897" lon="35.2975185">
<ele>515.399963</ele>
<time>2012-04-14T04:59:01.000Z</time>
</trkpt>
<trkpt lat="31.7510799" lon="35.2975091">
<ele>515.399963</ele>
<time>2012-04-14T04:59:02.000Z</time>
</trkpt>
<trkpt lat="31.7510708" lon="35.2974986">
<ele>515.399963</ele>
<time>2012-04-14T04:59:03.000Z</time>
</trkpt>
<trkpt lat="31.7510602" lon="35.2974897">
<ele>515.880005</ele>
<time>2012-04-14T04:59:04.000Z</time>
</trkpt>
<trkpt lat="31.7510503" lon="35.2974794">
<ele>515.399963</ele>
<time>2012-04-14T04:59:05.000Z</time>
</trkpt>
<trkpt lat="31.7510406" lon="35.2974722">
<ele>515.399963</ele>
<time>2012-04-14T04:59:06.000Z</time>
</trkpt>
<trkpt lat="31.7510336" lon="35.2974647">
<ele>515.880005</ele>
<time>2012-04-14T04:59:07.000Z</time>
</trkpt>
<trkpt lat="31.7510249" lon="35.2974565">
<ele>516.369995</ele>
<time>2012-04-14T04:59:08.000Z</time>
</trkpt>
<trkpt lat="31.7510163" lon="35.2974481">
<ele>516.369995</ele>
<time>2012-04-14T04:59:09.000Z</time>
</trkpt>
<trkpt lat="31.7510082" lon="35.2974413">
<ele>516.369995</ele>
<time>2012-04-14T04:59:10.000Z</time>
</trkpt>
<trkpt lat="31.7509992" lon="35.2974343">
<ele>516.369995</ele>
<time>2012-04-14T04:59:11.000Z</time>
</trkpt>
<trkpt lat="31.7509903" lon="35.2974251">
<ele>516.850037</ele>
<time>2012-04-14T04:59:12.000Z</time>
</trkpt>
<trkpt lat="31.7509802" lon="35.2974177">
<ele>516.850037</ele>
<time>2012-04-14T04:59:13.000Z</time>
</trkpt>
<trkpt lat="31.7509713" lon="35.2974095">
<ele>516.850037</ele>
<time>2012-04-14T04:59:14.000Z</time>
</trkpt>
<trkpt lat="31.7509605" lon="35.2974007">
<ele>516.850037</ele>
<time>2012-04-14T04:59:15.000Z</time>
</trkpt>
<trkpt lat="31.7509476" lon="35.2973988">
<ele>516.850037</ele>
<time>2012-04-14T04:59:16.000Z</time>
</trkpt>
<trkpt lat="31.7509360" lon="35.2973945">
<ele>517.329956</ele>
<time>2012-04-14T04:59:17.000Z</time>
</trkpt>
<trkpt lat="31.7509257" lon="35.2973876">
<ele>517.809998</ele>
<time>2012-04-14T04:59:18.000Z</time>
</trkpt>
<trkpt lat="31.7508263" lon="35.2972933">
<ele>519.250000</ele>
<time>2012-04-14T04:59:29.000Z</time>
</trkpt>
<trkpt lat="31.7508191" lon="35.2972830">
<ele>519.250000</ele>
<time>2012-04-14T04:59:30.000Z</time>
</trkpt>
<trkpt lat="31.7508104" lon="35.2972764">
<ele>519.250000</ele>
<time>2012-04-14T04:59:31.000Z</time>
</trkpt>
<trkpt lat="31.7508013" lon="35.2972686">
<ele>519.729980</ele>
<time>2012-04-14T04:59:32.000Z</time>
</trkpt>
<trkpt lat="31.7507926" lon="35.2972594">
<ele>520.210022</ele>
<time>2012-04-14T04:59:33.000Z</time>
</trkpt>
<trkpt lat="31.7507514" lon="35.2972238">
<ele>520.690002</ele>
<time>2012-04-14T04:59:37.000Z</time>
</trkpt>
<trkpt lat="31.7507245" lon="35.2971788">
<ele>521.169983</ele>
<time>2012-04-14T04:59:41.000Z</time>
</trkpt>
<trkpt lat="31.7507155" lon="35.2971699">
<ele>521.169983</ele>
<time>2012-04-14T04:59:42.000Z</time>
</trkpt>
<trkpt lat="31.7507075" lon="35.2971619">
<ele>521.649963</ele>
<time>2012-04-14T04:59:43.000Z</time>
</trkpt>
<trkpt lat="31.7505679" lon="35.2969961">
<ele>524.059998</ele>
<time>2012-04-14T04:59:59.000Z</time>
</trkpt>
<trkpt lat="31.7504957" lon="35.2968996">
<ele>525.500000</ele>
<time>2012-04-14T05:00:08.000Z</time>
</trkpt>
<trkpt lat="31.7504885" lon="35.2968889">
<ele>525.500000</ele>
<time>2012-04-14T05:00:09.000Z</time>
</trkpt>
<trkpt lat="31.7504807" lon="35.2968787">
<ele>525.979980</ele>
<time>2012-04-14T05:00:10.000Z</time>
</trkpt>
<trkpt lat="31.7504727" lon="35.2968667">
<ele>525.979980</ele>
<time>2012-04-14T05:00:11.000Z</time>
</trkpt>
<trkpt lat="31.7504641" lon="35.2968562">
<ele>525.979980</ele>
<time>2012-04-14T05:00:12.000Z</time>
</trkpt>
<trkpt lat="31.7504559" lon="35.2968452">
<ele>526.460022</ele>
<time>2012-04-14T05:00:13.000Z</time>
</trkpt>
<trkpt lat="31.7504486" lon="35.2968336">
<ele>526.460022</ele>
<time>2012-04-14T05:00:14.000Z</time>
</trkpt>
<trkpt lat="31.7504408" lon="35.2968219">
<ele>526.460022</ele>
<time>2012-04-14T05:00:15.000Z</time>
</trkpt>
<trkpt lat="31.7504307" lon="35.2968104">
<ele>526.940002</ele>
<time>2012-04-14T05:00:16.000Z</time>
</trkpt>
<trkpt lat="31.7504208" lon="35.2967998">
<ele>526.460022</ele>
<time>2012-04-14T05:00:17.000Z</time>
</trkpt>
<trkpt lat="31.7504133" lon="35.2967863">
<ele>527.419983</ele>
<time>2012-04-14T05:00:18.000Z</time>
</trkpt>
<trkpt lat="31.7504089" lon="35.2967724">
<ele>527.419983</ele>
<time>2012-04-14T05:00:19.000Z</time>
</trkpt>
<trkpt lat="31.7504050" lon="35.2967586">
<ele>527.419983</ele>
<time>2012-04-14T05:00:20.000Z</time>
</trkpt>
<trkpt lat="31.7503983" lon="35.2967444">
<ele>527.899963</ele>
<time>2012-04-14T05:00:21.000Z</time>
</trkpt>
<trkpt lat="31.7503862" lon="35.2967347">
<ele>527.899963</ele>
<time>2012-04-14T05:00:22.000Z</time>
</trkpt>
<trkpt lat="31.7503737" lon="35.2967275">
<ele>527.899963</ele>
<time>2012-04-14T05:00:23.000Z</time>
</trkpt>
<trkpt lat="31.7503133" lon="35.2966826">
<ele>527.899963</ele>
<time>2012-04-14T05:00:28.000Z</time>
</trkpt>
<trkpt lat="31.7502993" lon="35.2966812">
<ele>527.899963</ele>
<time>2012-04-14T05:00:29.000Z</time>
</trkpt>
<trkpt lat="31.7502853" lon="35.2966791">
<ele>527.899963</ele>
<time>2012-04-14T05:00:30.000Z</time>
</trkpt>
<trkpt lat="31.7502743" lon="35.2966744">
<ele>527.899963</ele>
<time>2012-04-14T05:00:31.000Z</time>
</trkpt>
<trkpt lat="31.7502616" lon="35.2966641">
<ele>527.899963</ele>
<time>2012-04-14T05:00:47.000Z</time>
</trkpt>
<trkpt lat="31.7502518" lon="35.2966641">
<ele>527.899963</ele>
<time>2012-04-14T05:01:09.000Z</time>
</trkpt>
<trkpt lat="31.7502554" lon="35.2966630">
<ele>527.899963</ele>
<time>2012-04-14T05:01:38.000Z</time>
</trkpt>
<trkpt lat="31.7502577" lon="35.2966686">
<ele>528.380005</ele>
<time>2012-04-14T05:02:06.000Z</time>
</trkpt>
<trkpt lat="31.7502620" lon="35.2966656">
<ele>527.419983</ele>
<time>2012-04-14T05:02:32.000Z</time>
</trkpt>
<trkpt lat="31.7502480" lon="35.2966713">
<ele>527.419983</ele>
<time>2012-04-14T05:02:38.000Z</time>
</trkpt>
<trkpt lat="31.7502173" lon="35.2966829">
<ele>527.899963</ele>
<time>2012-04-14T05:02:41.000Z</time>
</trkpt>
<trkpt lat="31.7501950" lon="35.2966830">
<ele>527.419983</ele>
<time>2012-04-14T05:02:46.000Z</time>
</trkpt>
<trkpt lat="31.7499260" lon="35.2968101">
<ele>527.899963</ele>
<time>2012-04-14T05:03:00.000Z</time>
</trkpt>
<trkpt lat="31.7495059" lon="35.2970460">
<ele>528.380005</ele>
<time>2012-04-14T05:03:16.000Z</time>
</trkpt>
<trkpt lat="31.7491831" lon="35.2972277">
<ele>527.419983</ele>
<time>2012-04-14T05:03:26.000Z</time>
</trkpt>
<trkpt lat="31.7487558" lon="35.2977747">
<ele>524.059998</ele>
<time>2012-04-14T05:03:36.000Z</time>
</trkpt>
<trkpt lat="31.7487257" lon="35.2978520">
<ele>523.579956</ele>
<time>2012-04-14T05:03:37.000Z</time>
</trkpt>
<trkpt lat="31.7487049" lon="35.2979336">
<ele>523.090027</ele>
<time>2012-04-14T05:03:38.000Z</time>
</trkpt>
<trkpt lat="31.7486995" lon="35.2980142">
<ele>523.090027</ele>
<time>2012-04-14T05:03:39.000Z</time>
</trkpt>
<trkpt lat="31.7487090" lon="35.2980897">
<ele>523.090027</ele>
<time>2012-04-14T05:03:40.000Z</time>
</trkpt>
<trkpt lat="31.7487274" lon="35.2981564">
<ele>523.579956</ele>
<time>2012-04-14T05:03:41.000Z</time>
</trkpt>
<trkpt lat="31.7487474" lon="35.2982146">
<ele>524.059998</ele>
<time>2012-04-14T05:03:42.000Z</time>
</trkpt>
<trkpt lat="31.7487678" lon="35.2982676">
<ele>524.059998</ele>
<time>2012-04-14T05:03:43.000Z</time>
</trkpt>
<trkpt lat="31.7488725" lon="35.2984894">
<ele>526.460022</ele>
<time>2012-04-14T05:03:48.000Z</time>
</trkpt>
<trkpt lat="31.7489199" lon="35.2988375">
<ele>529.340027</ele>
<time>2012-04-14T05:03:59.000Z</time>
</trkpt>
<trkpt lat="31.7487257" lon="35.2990941">
<ele>531.270020</ele>
<time>2012-04-14T05:04:14.000Z</time>
</trkpt>
<trkpt lat="31.7483543" lon="35.2993822">
<ele>533.190002</ele>
<time>2012-04-14T05:04:33.000Z</time>
</trkpt>
<trkpt lat="31.7480433" lon="35.2997007">
<ele>534.149963</ele>
<time>2012-04-14T05:04:49.000Z</time>
</trkpt>
<trkpt lat="31.7476663" lon="35.3001072">
<ele>534.149963</ele>
<time>2012-04-14T05:05:06.000Z</time>
</trkpt>
<trkpt lat="31.7473316" lon="35.3006286">
<ele>533.669983</ele>
<time>2012-04-14T05:05:21.000Z</time>
</trkpt>
<trkpt lat="31.7473203" lon="35.3006746">
<ele>532.710022</ele>
<time>2012-04-14T05:05:22.000Z</time>
</trkpt>
<trkpt lat="31.7472913" lon="35.3008200">
<ele>532.710022</ele>
<time>2012-04-14T05:05:30.000Z</time>
</trkpt>
<trkpt lat="31.7472839" lon="35.3008186">
<ele>532.229980</ele>
<time>2012-04-14T05:05:58.000Z</time>
</trkpt>
<trkpt lat="31.7472851" lon="35.3008355">
<ele>532.229980</ele>
<time>2012-04-14T05:06:07.000Z</time>
</trkpt>
<trkpt lat="31.7472856" lon="35.3008564">
<ele>532.229980</ele>
<time>2012-04-14T05:06:08.000Z</time>
</trkpt>
<trkpt lat="31.7472280" lon="35.3011875">
<ele>532.710022</ele>
<time>2012-04-14T05:06:16.000Z</time>
</trkpt>
<trkpt lat="31.7471982" lon="35.3012077">
<ele>532.710022</ele>
<time>2012-04-14T05:06:17.000Z</time>
</trkpt>
<trkpt lat="31.7471643" lon="35.3012159">
<ele>533.190002</ele>
<time>2012-04-14T05:06:18.000Z</time>
</trkpt>
<trkpt lat="31.7471271" lon="35.3012128">
<ele>532.710022</ele>
<time>2012-04-14T05:06:19.000Z</time>
</trkpt>
<trkpt lat="31.7470855" lon="35.3012014">
<ele>532.229980</ele>
<time>2012-04-14T05:06:20.000Z</time>
</trkpt>
<trkpt lat="31.7470399" lon="35.3011790">
<ele>531.750000</ele>
<time>2012-04-14T05:06:21.000Z</time>
</trkpt>
<trkpt lat="31.7469977" lon="35.3011473">
<ele>531.750000</ele>
<time>2012-04-14T05:06:22.000Z</time>
</trkpt>
<trkpt lat="31.7469590" lon="35.3011093">
<ele>530.789978</ele>
<time>2012-04-14T05:06:23.000Z</time>
</trkpt>
<trkpt lat="31.7468815" lon="35.3010162">
<ele>529.820007</ele>
<time>2012-04-14T05:06:25.000Z</time>
</trkpt>
<trkpt lat="31.7467995" lon="35.3009070">
<ele>528.859985</ele>
<time>2012-04-14T05:06:27.000Z</time>
</trkpt>
<trkpt lat="31.7467523" lon="35.3008527">
<ele>527.419983</ele>
<time>2012-04-14T05:06:28.000Z</time>
</trkpt>
<trkpt lat="31.7466537" lon="35.3007406">
<ele>525.979980</ele>
<time>2012-04-14T05:06:30.000Z</time>
</trkpt>
<trkpt lat="31.7466057" lon="35.3006808">
<ele>524.539978</ele>
<time>2012-04-14T05:06:31.000Z</time>
</trkpt>
<trkpt lat="31.7462724" lon="35.3003189">
<ele>521.649963</ele>
<time>2012-04-14T05:06:37.000Z</time>
</trkpt>
<trkpt lat="31.7460734" lon="35.3001567">
<ele>518.289978</ele>
<time>2012-04-14T05:06:41.000Z</time>
</trkpt>
<trkpt lat="31.7459807" lon="35.3000989">
<ele>517.809998</ele>
<time>2012-04-14T05:06:43.000Z</time>
</trkpt>
<trkpt lat="31.7458831" lon="35.3000232">
<ele>515.399963</ele>
<time>2012-04-14T05:06:46.000Z</time>
</trkpt>
<trkpt lat="31.7458441" lon="35.2999809">
<ele>514.440002</ele>
<time>2012-04-14T05:06:48.000Z</time>
</trkpt>
<trkpt lat="31.7458203" lon="35.2999567">
<ele>513.960022</ele>
<time>2012-04-14T05:06:58.000Z</time>
</trkpt>
<trkpt lat="31.7456321" lon="35.2998129">
<ele>511.559998</ele>
<time>2012-04-14T05:07:05.000Z</time>
</trkpt>
<trkpt lat="31.7453260" lon="35.2995785">
<ele>508.190002</ele>
<time>2012-04-14T05:07:12.000Z</time>
</trkpt>
<trkpt lat="31.7452735" lon="35.2995422">
<ele>508.190002</ele>
<time>2012-04-14T05:07:13.000Z</time>
</trkpt>
<trkpt lat="31.7451711" lon="35.2994565">
<ele>506.750031</ele>
<time>2012-04-14T05:07:15.000Z</time>
</trkpt>
<trkpt lat="31.7451316" lon="35.2994036">
<ele>506.270020</ele>
<time>2012-04-14T05:07:16.000Z</time>
</trkpt>
<trkpt lat="31.7451008" lon="35.2993457">
<ele>505.790009</ele>
<time>2012-04-14T05:07:17.000Z</time>
</trkpt>
<trkpt lat="31.7450822" lon="35.2992867">
<ele>505.309998</ele>
<time>2012-04-14T05:07:18.000Z</time>
</trkpt>
<trkpt lat="31.7450742" lon="35.2992291">
<ele>505.309998</ele>
<time>2012-04-14T05:07:19.000Z</time>
</trkpt>
<trkpt lat="31.7450662" lon="35.2991745">
<ele>504.829987</ele>
<time>2012-04-14T05:07:20.000Z</time>
</trkpt>
<trkpt lat="31.7450492" lon="35.2991298">
<ele>504.829987</ele>
<time>2012-04-14T05:07:21.000Z</time>
</trkpt>
<trkpt lat="31.7450229" lon="35.2990988">
<ele>504.350006</ele>
<time>2012-04-14T05:07:22.000Z</time>
</trkpt>
<trkpt lat="31.7449912" lon="35.2990846">
<ele>504.350006</ele>
<time>2012-04-14T05:07:23.000Z</time>
</trkpt>
<trkpt lat="31.7449619" lon="35.2990888">
<ele>503.869995</ele>
<time>2012-04-14T05:07:24.000Z</time>
</trkpt>
<trkpt lat="31.7449368" lon="35.2991093">
<ele>503.389984</ele>
<time>2012-04-14T05:07:25.000Z</time>
</trkpt>
<trkpt lat="31.7449136" lon="35.2991459">
<ele>503.389984</ele>
<time>2012-04-14T05:07:26.000Z</time>
</trkpt>
<trkpt lat="31.7448993" lon="35.2991937">
<ele>503.389984</ele>
<time>2012-04-14T05:07:27.000Z</time>
</trkpt>
<trkpt lat="31.7448892" lon="35.2992447">
<ele>502.910004</ele>
<time>2012-04-14T05:07:28.000Z</time>
</trkpt>
<trkpt lat="31.7448734" lon="35.2992971">
<ele>502.429993</ele>
<time>2012-04-14T05:07:29.000Z</time>
</trkpt>
<trkpt lat="31.7448535" lon="35.2993490">
<ele>502.429993</ele>
<time>2012-04-14T05:07:30.000Z</time>
</trkpt>
<trkpt lat="31.7448311" lon="35.2994016">
<ele>502.429993</ele>
<time>2012-04-14T05:07:31.000Z</time>
</trkpt>
<trkpt lat="31.7448045" lon="35.2994538">
<ele>502.429993</ele>
<time>2012-04-14T05:07:32.000Z</time>
</trkpt>
<trkpt lat="31.7447750" lon="35.2995032">
<ele>501.950012</ele>
<time>2012-04-14T05:07:33.000Z</time>
</trkpt>
<trkpt lat="31.7447407" lon="35.2995517">
<ele>501.950012</ele>
<time>2012-04-14T05:07:34.000Z</time>
</trkpt>
<trkpt lat="31.7446609" lon="35.2996442">
<ele>500.979980</ele>
<time>2012-04-14T05:07:36.000Z</time>
</trkpt>
<trkpt lat="31.7446148" lon="35.2996816">
<ele>500.500031</ele>
<time>2012-04-14T05:07:37.000Z</time>
</trkpt>
<trkpt lat="31.7445672" lon="35.2997165">
<ele>500.020020</ele>
<time>2012-04-14T05:07:38.000Z</time>
</trkpt>
<trkpt lat="31.7445234" lon="35.2997569">
<ele>499.540009</ele>
<time>2012-04-14T05:07:39.000Z</time>
</trkpt>
<trkpt lat="31.7444849" lon="35.2998041">
<ele>499.059998</ele>
<time>2012-04-14T05:07:40.000Z</time>
</trkpt>
<trkpt lat="31.7444522" lon="35.2998538">
<ele>499.059998</ele>
<time>2012-04-14T05:07:41.000Z</time>
</trkpt>
<trkpt lat="31.7444238" lon="35.2999057">
<ele>498.579987</ele>
<time>2012-04-14T05:07:42.000Z</time>
</trkpt>
<trkpt lat="31.7443432" lon="35.3000538">
<ele>498.579987</ele>
<time>2012-04-14T05:07:45.000Z</time>
</trkpt>
<trkpt lat="31.7443266" lon="35.3001075">
<ele>498.100006</ele>
<time>2012-04-14T05:07:46.000Z</time>
</trkpt>
<trkpt lat="31.7443187" lon="35.3001631">
<ele>498.100006</ele>
<time>2012-04-14T05:07:47.000Z</time>
</trkpt>
<trkpt lat="31.7443120" lon="35.3002188">
<ele>498.100006</ele>
<time>2012-04-14T05:07:48.000Z</time>
</trkpt>
<trkpt lat="31.7443034" lon="35.3002699">
<ele>498.100006</ele>
<time>2012-04-14T05:07:49.000Z</time>
</trkpt>
<trkpt lat="31.7442751" lon="35.3005020">
<ele>498.100006</ele>
<time>2012-04-14T05:07:58.000Z</time>
</trkpt>
<trkpt lat="31.7442759" lon="35.3005052">
<ele>498.100006</ele>
<time>2012-04-14T05:08:26.000Z</time>
</trkpt>
<trkpt lat="31.7442703" lon="35.3005121">
<ele>498.100006</ele>
<time>2012-04-14T05:08:55.000Z</time>
</trkpt>
<trkpt lat="31.7442825" lon="35.3005116">
<ele>498.100006</ele>
<time>2012-04-14T05:09:24.000Z</time>
</trkpt>
<trkpt lat="31.7442868" lon="35.3005280">
<ele>498.100006</ele>
<time>2012-04-14T05:09:25.000Z</time>
</trkpt>
<trkpt lat="31.7442416" lon="35.3008774">
<ele>500.020020</ele>
<time>2012-04-14T05:09:36.000Z</time>
</trkpt>
<trkpt lat="31.7442257" lon="35.3009692">
<ele>500.020020</ele>
<time>2012-04-14T05:09:38.000Z</time>
</trkpt>
<trkpt lat="31.7441780" lon="35.3012281">
<ele>500.020020</ele>
<time>2012-04-14T05:09:43.000Z</time>
</trkpt>
<trkpt lat="31.7441781" lon="35.3014509">
<ele>500.500031</ele>
<time>2012-04-14T05:09:47.000Z</time>
</trkpt>
<trkpt lat="31.7441691" lon="35.3015054">
<ele>500.500031</ele>
<time>2012-04-14T05:09:48.000Z</time>
</trkpt>
<trkpt lat="31.7441513" lon="35.3015557">
<ele>500.979980</ele>
<time>2012-04-14T05:09:49.000Z</time>
</trkpt>
<trkpt lat="31.7441089" lon="35.3016466">
<ele>501.459991</ele>
<time>2012-04-14T05:09:51.000Z</time>
</trkpt>
<trkpt lat="31.7440815" lon="35.3016837">
<ele>501.950012</ele>
<time>2012-04-14T05:09:52.000Z</time>
</trkpt>
<trkpt lat="31.7440495" lon="35.3017146">
<ele>501.950012</ele>
<time>2012-04-14T05:09:53.000Z</time>
</trkpt>
<trkpt lat="31.7437879" lon="35.3021789">
<ele>503.389984</ele>
<time>2012-04-14T05:10:05.000Z</time>
</trkpt>
<trkpt lat="31.7437117" lon="35.3023008">
<ele>503.869995</ele>
<time>2012-04-14T05:10:08.000Z</time>
</trkpt>
<trkpt lat="31.7436142" lon="35.3024114">
<ele>503.389984</ele>
<time>2012-04-14T05:10:11.000Z</time>
</trkpt>
<trkpt lat="31.7435416" lon="35.3024776">
<ele>503.389984</ele>
<time>2012-04-14T05:10:13.000Z</time>
</trkpt>
<trkpt lat="31.7430884" lon="35.3029419">
<ele>504.829987</ele>
<time>2012-04-14T05:10:28.000Z</time>
</trkpt>
<trkpt lat="31.7427281" lon="35.3033267">
<ele>505.790009</ele>
<time>2012-04-14T05:10:43.000Z</time>
</trkpt>
<trkpt lat="31.7427264" lon="35.3034592">
<ele>505.309998</ele>
<time>2012-04-14T05:10:46.000Z</time>
</trkpt>
<trkpt lat="31.7427363" lon="35.3035080">
<ele>505.309998</ele>
<time>2012-04-14T05:10:47.000Z</time>
</trkpt>
<trkpt lat="31.7428060" lon="35.3038728">
<ele>504.829987</ele>
<time>2012-04-14T05:10:54.000Z</time>
</trkpt>
<trkpt lat="31.7427848" lon="35.3040100">
<ele>504.829987</ele>
<time>2012-04-14T05:10:57.000Z</time>
</trkpt>
<trkpt lat="31.7427812" lon="35.3040566">
<ele>504.829987</ele>
<time>2012-04-14T05:10:58.000Z</time>
</trkpt>
<trkpt lat="31.7427831" lon="35.3041003">
<ele>504.829987</ele>
<time>2012-04-14T05:10:59.000Z</time>
</trkpt>
<trkpt lat="31.7427946" lon="35.3041428">
<ele>504.350006</ele>
<time>2012-04-14T05:11:00.000Z</time>
</trkpt>
<trkpt lat="31.7428120" lon="35.3041872">
<ele>504.829987</ele>
<time>2012-04-14T05:11:01.000Z</time>
</trkpt>
<trkpt lat="31.7428272" lon="35.3042376">
<ele>504.829987</ele>
<time>2012-04-14T05:11:02.000Z</time>
</trkpt>
<trkpt lat="31.7428369" lon="35.3042944">
<ele>504.350006</ele>
<time>2012-04-14T05:11:03.000Z</time>
</trkpt>
<trkpt lat="31.7428404" lon="35.3043518">
<ele>504.350006</ele>
<time>2012-04-14T05:11:04.000Z</time>
</trkpt>
<trkpt lat="31.7428383" lon="35.3044097">
<ele>504.829987</ele>
<time>2012-04-14T05:11:05.000Z</time>
</trkpt>
<trkpt lat="31.7428291" lon="35.3044585">
<ele>505.309998</ele>
<time>2012-04-14T05:11:06.000Z</time>
</trkpt>
<trkpt lat="31.7428123" lon="35.3044946">
<ele>505.309998</ele>
<time>2012-04-14T05:11:07.000Z</time>
</trkpt>
<trkpt lat="31.7427967" lon="35.3045196">
<ele>505.790009</ele>
<time>2012-04-14T05:11:08.000Z</time>
</trkpt>
<trkpt lat="31.7427877" lon="35.3045368">
<ele>506.270020</ele>
<time>2012-04-14T05:11:09.000Z</time>
</trkpt>
<trkpt lat="31.7427812" lon="35.3045491">
<ele>506.270020</ele>
<time>2012-04-14T05:11:10.000Z</time>
</trkpt>
<trkpt lat="31.7427334" lon="35.3047642">
<ele>508.190002</ele>
<time>2012-04-14T05:11:22.000Z</time>
</trkpt>
<trkpt lat="31.7426823" lon="35.3050823">
<ele>511.559998</ele>
<time>2012-04-14T05:11:37.000Z</time>
</trkpt>
<trkpt lat="31.7426262" lon="35.3052651">
<ele>513.479980</ele>
<time>2012-04-14T05:11:49.000Z</time>
</trkpt>
<trkpt lat="31.7426063" lon="35.3052919">
<ele>513.960022</ele>
<time>2012-04-14T05:11:51.000Z</time>
</trkpt>
<trkpt lat="31.7425997" lon="35.3053086">
<ele>513.479980</ele>
<time>2012-04-14T05:11:52.000Z</time>
</trkpt>
<trkpt lat="31.7425945" lon="35.3053247">
<ele>513.960022</ele>
<time>2012-04-14T05:11:53.000Z</time>
</trkpt>
<trkpt lat="31.7425878" lon="35.3053408">
<ele>513.960022</ele>
<time>2012-04-14T05:11:54.000Z</time>
</trkpt>
<trkpt lat="31.7425800" lon="35.3053588">
<ele>513.960022</ele>
<time>2012-04-14T05:11:55.000Z</time>
</trkpt>
<trkpt lat="31.7425748" lon="35.3053814">
<ele>514.440002</ele>
<time>2012-04-14T05:11:56.000Z</time>
</trkpt>
<trkpt lat="31.7425717" lon="35.3054035">
<ele>514.440002</ele>
<time>2012-04-14T05:11:57.000Z</time>
</trkpt>
<trkpt lat="31.7425636" lon="35.3054432">
<ele>514.919983</ele>
<time>2012-04-14T05:11:59.000Z</time>
</trkpt>
<trkpt lat="31.7425613" lon="35.3054633">
<ele>514.919983</ele>
<time>2012-04-14T05:12:00.000Z</time>
</trkpt>
<trkpt lat="31.7425557" lon="35.3054832">
<ele>514.919983</ele>
<time>2012-04-14T05:12:01.000Z</time>
</trkpt>
<trkpt lat="31.7425517" lon="35.3055029">
<ele>515.399963</ele>
<time>2012-04-14T05:12:02.000Z</time>
</trkpt>
<trkpt lat="31.7425489" lon="35.3055200">
<ele>514.919983</ele>
<time>2012-04-14T05:12:03.000Z</time>
</trkpt>
<trkpt lat="31.7425476" lon="35.3055383">
<ele>515.399963</ele>
<time>2012-04-14T05:12:04.000Z</time>
</trkpt>
<trkpt lat="31.7425465" lon="35.3055548">
<ele>515.399963</ele>
<time>2012-04-14T05:12:05.000Z</time>
</trkpt>
<trkpt lat="31.7425458" lon="35.3055728">
<ele>515.399963</ele>
<time>2012-04-14T05:12:06.000Z</time>
</trkpt>
<trkpt lat="31.7425474" lon="35.3055925">
<ele>515.880005</ele>
<time>2012-04-14T05:12:07.000Z</time>
</trkpt>
<trkpt lat="31.7425485" lon="35.3056133">
<ele>515.880005</ele>
<time>2012-04-14T05:12:08.000Z</time>
</trkpt>
<trkpt lat="31.7426501" lon="35.3059703">
<ele>517.809998</ele>
<time>2012-04-14T05:12:24.000Z</time>
</trkpt>
<trkpt lat="31.7426219" lon="35.3063494">
<ele>516.850037</ele>
<time>2012-04-14T05:12:36.000Z</time>
</trkpt>
<trkpt lat="31.7426071" lon="35.3064995">
<ele>515.880005</ele>
<time>2012-04-14T05:12:45.000Z</time>
</trkpt>
<trkpt lat="31.7425945" lon="35.3065372">
<ele>515.880005</ele>
<time>2012-04-14T05:13:10.000Z</time>
</trkpt>
<trkpt lat="31.7425878" lon="35.3065490">
<ele>515.880005</ele>
<time>2012-04-14T05:13:11.000Z</time>
</trkpt>
<trkpt lat="31.7425767" lon="35.3065762">
<ele>515.880005</ele>
<time>2012-04-14T05:13:13.000Z</time>
</trkpt>
<trkpt lat="31.7425738" lon="35.3065961">
<ele>515.880005</ele>
<time>2012-04-14T05:13:14.000Z</time>
</trkpt>
<trkpt lat="31.7423823" lon="35.3068865">
<ele>513.960022</ele>
<time>2012-04-14T05:13:27.000Z</time>
</trkpt>
<trkpt lat="31.7422302" lon="35.3071120">
<ele>511.079987</ele>
<time>2012-04-14T05:13:35.000Z</time>
</trkpt>
<trkpt lat="31.7421463" lon="35.3072811">
<ele>508.670013</ele>
<time>2012-04-14T05:13:40.000Z</time>
</trkpt>
<trkpt lat="31.7420867" lon="35.3074065">
<ele>506.750031</ele>
<time>2012-04-14T05:13:43.000Z</time>
</trkpt>
<trkpt lat="31.7420676" lon="35.3074578">
<ele>506.270020</ele>
<time>2012-04-14T05:13:44.000Z</time>
</trkpt>
<trkpt lat="31.7419953" lon="35.3077262">
<ele>502.910004</ele>
<time>2012-04-14T05:13:49.000Z</time>
</trkpt>
<trkpt lat="31.7419802" lon="35.3078210">
<ele>502.429993</ele>
<time>2012-04-14T05:13:51.000Z</time>
</trkpt>
<trkpt lat="31.7419608" lon="35.3080598">
<ele>499.059998</ele>
<time>2012-04-14T05:13:57.000Z</time>
</trkpt>
<trkpt lat="31.7419995" lon="35.3083294">
<ele>495.700012</ele>
<time>2012-04-14T05:14:02.000Z</time>
</trkpt>
<trkpt lat="31.7420754" lon="35.3085698">
<ele>492.329987</ele>
<time>2012-04-14T05:14:05.000Z</time>
</trkpt>
<trkpt lat="31.7421935" lon="35.3090108">
<ele>488.970001</ele>
<time>2012-04-14T05:14:10.000Z</time>
</trkpt>
<trkpt lat="31.7422121" lon="35.3090943">
<ele>488.970001</ele>
<time>2012-04-14T05:14:11.000Z</time>
</trkpt>
<trkpt lat="31.7422583" lon="35.3093170">
<ele>487.530029</ele>
<time>2012-04-14T05:14:14.000Z</time>
</trkpt>
<trkpt lat="31.7423862" lon="35.3096654">
<ele>486.079987</ele>
<time>2012-04-14T05:14:19.000Z</time>
</trkpt>
<trkpt lat="31.7424008" lon="35.3097265">
<ele>486.079987</ele>
<time>2012-04-14T05:14:20.000Z</time>
</trkpt>
<trkpt lat="31.7424172" lon="35.3098339">
<ele>486.079987</ele>
<time>2012-04-14T05:14:22.000Z</time>
</trkpt>
<trkpt lat="31.7424135" lon="35.3098810">
<ele>486.079987</ele>
<time>2012-04-14T05:14:23.000Z</time>
</trkpt>
<trkpt lat="31.7424043" lon="35.3099266">
<ele>486.559998</ele>
<time>2012-04-14T05:14:24.000Z</time>
</trkpt>
<trkpt lat="31.7423894" lon="35.3099704">
<ele>486.559998</ele>
<time>2012-04-14T05:14:25.000Z</time>
</trkpt>
<trkpt lat="31.7423671" lon="35.3100061">
<ele>486.559998</ele>
<time>2012-04-14T05:14:26.000Z</time>
</trkpt>
<trkpt lat="31.7423416" lon="35.3100337">
<ele>486.559998</ele>
<time>2012-04-14T05:14:27.000Z</time>
</trkpt>
<trkpt lat="31.7423162" lon="35.3100609">
<ele>486.559998</ele>
<time>2012-04-14T05:14:28.000Z</time>
</trkpt>
<trkpt lat="31.7422937" lon="35.3100919">
<ele>486.559998</ele>
<time>2012-04-14T05:14:29.000Z</time>
</trkpt>
<trkpt lat="31.7422744" lon="35.3101276">
<ele>486.559998</ele>
<time>2012-04-14T05:14:30.000Z</time>
</trkpt>
<trkpt lat="31.7422549" lon="35.3101653">
<ele>486.079987</ele>
<time>2012-04-14T05:14:31.000Z</time>
</trkpt>
<trkpt lat="31.7422044" lon="35.3102586">
<ele>485.600006</ele>
<time>2012-04-14T05:14:39.000Z</time>
</trkpt>
<trkpt lat="31.7422072" lon="35.3102603">
<ele>485.600006</ele>
<time>2012-04-14T05:15:15.000Z</time>
</trkpt>
<trkpt lat="31.7422081" lon="35.3102723">
<ele>485.119995</ele>
<time>2012-04-14T05:15:16.000Z</time>
</trkpt>
<trkpt lat="31.7422097" lon="35.3102907">
<ele>485.600006</ele>
<time>2012-04-14T05:15:17.000Z</time>
</trkpt>
<trkpt lat="31.7421354" lon="35.3106742">
<ele>481.759979</ele>
<time>2012-04-14T05:15:30.000Z</time>
</trkpt>
<trkpt lat="31.7420963" lon="35.3107950">
<ele>480.320007</ele>
<time>2012-04-14T05:15:33.000Z</time>
</trkpt>
<trkpt lat="31.7420622" lon="35.3110368">
<ele>476.950012</ele>
<time>2012-04-14T05:15:39.000Z</time>
</trkpt>
<trkpt lat="31.7420903" lon="35.3111704">
<ele>476.470001</ele>
<time>2012-04-14T05:15:42.000Z</time>
</trkpt>
<trkpt lat="31.7421992" lon="35.3114033">
<ele>475.029968</ele>
<time>2012-04-14T05:15:46.000Z</time>
</trkpt>
<trkpt lat="31.7422344" lon="35.3114515">
<ele>475.029968</ele>
<time>2012-04-14T05:15:47.000Z</time>
</trkpt>
<trkpt lat="31.7422709" lon="35.3114926">
<ele>474.070007</ele>
<time>2012-04-14T05:15:48.000Z</time>
</trkpt>
<trkpt lat="31.7423728" lon="35.3115994">
<ele>473.109985</ele>
<time>2012-04-14T05:15:51.000Z</time>
</trkpt>
<trkpt lat="31.7423891" lon="35.3116382">
<ele>472.630005</ele>
<time>2012-04-14T05:15:52.000Z</time>
</trkpt>
<trkpt lat="31.7423982" lon="35.3116792">
<ele>472.140015</ele>
<time>2012-04-14T05:15:53.000Z</time>
</trkpt>
<trkpt lat="31.7424309" lon="35.3118444">
<ele>470.220001</ele>
<time>2012-04-14T05:15:57.000Z</time>
</trkpt>
<trkpt lat="31.7424324" lon="35.3118961">
<ele>470.220001</ele>
<time>2012-04-14T05:15:58.000Z</time>
</trkpt>
<trkpt lat="31.7424347" lon="35.3119535">
<ele>468.779968</ele>
<time>2012-04-14T05:15:59.000Z</time>
</trkpt>
<trkpt lat="31.7424508" lon="35.3120914">
<ele>467.820007</ele>
<time>2012-04-14T05:16:01.000Z</time>
</trkpt>
<trkpt lat="31.7424619" lon="35.3123529">
<ele>465.420013</ele>
<time>2012-04-14T05:16:04.000Z</time>
</trkpt>
<trkpt lat="31.7424586" lon="35.3124494">
<ele>464.929993</ele>
<time>2012-04-14T05:16:05.000Z</time>
</trkpt>
<trkpt lat="31.7424510" lon="35.3125457">
<ele>463.970001</ele>
<time>2012-04-14T05:16:06.000Z</time>
</trkpt>
<trkpt lat="31.7424237" lon="35.3129226">
<ele>462.050018</ele>
<time>2012-04-14T05:16:10.000Z</time>
</trkpt>
<trkpt lat="31.7424279" lon="35.3130051">
<ele>461.089996</ele>
<time>2012-04-14T05:16:11.000Z</time>
</trkpt>
<trkpt lat="31.7424400" lon="35.3130814">
<ele>461.089996</ele>
<time>2012-04-14T05:16:12.000Z</time>
</trkpt>
<trkpt lat="31.7424546" lon="35.3131500">
<ele>461.089996</ele>
<time>2012-04-14T05:16:13.000Z</time>
</trkpt>
<trkpt lat="31.7425216" lon="35.3135413">
<ele>459.649994</ele>
<time>2012-04-14T05:16:19.000Z</time>
</trkpt>
<trkpt lat="31.7425309" lon="35.3135928">
<ele>459.170013</ele>
<time>2012-04-14T05:16:20.000Z</time>
</trkpt>
<trkpt lat="31.7425572" lon="35.3136916">
<ele>458.690002</ele>
<time>2012-04-14T05:16:22.000Z</time>
</trkpt>
<trkpt lat="31.7425905" lon="35.3138439">
<ele>458.209991</ele>
<time>2012-04-14T05:16:25.000Z</time>
</trkpt>
<trkpt lat="31.7426372" lon="35.3140031">
<ele>456.759979</ele>
<time>2012-04-14T05:16:28.000Z</time>
</trkpt>
<trkpt lat="31.7426685" lon="35.3141089">
<ele>456.759979</ele>
<time>2012-04-14T05:16:30.000Z</time>
</trkpt>
<trkpt lat="31.7426782" lon="35.3141637">
<ele>456.279968</ele>
<time>2012-04-14T05:16:31.000Z</time>
</trkpt>
<trkpt lat="31.7427241" lon="35.3143947">
<ele>455.320007</ele>
<time>2012-04-14T05:16:35.000Z</time>
</trkpt>
<trkpt lat="31.7427425" lon="35.3144469">
<ele>454.839996</ele>
<time>2012-04-14T05:16:36.000Z</time>
</trkpt>
<trkpt lat="31.7427637" lon="35.3145013">
<ele>454.839996</ele>
<time>2012-04-14T05:16:37.000Z</time>
</trkpt>
<trkpt lat="31.7428381" lon="35.3147069">
<ele>453.880005</ele>
<time>2012-04-14T05:16:41.000Z</time>
</trkpt>
<trkpt lat="31.7428397" lon="35.3147535">
<ele>453.880005</ele>
<time>2012-04-14T05:16:42.000Z</time>
</trkpt>
<trkpt lat="31.7428317" lon="35.3148017">
<ele>453.880005</ele>
<time>2012-04-14T05:16:43.000Z</time>
</trkpt>
<trkpt lat="31.7428195" lon="35.3148497">
<ele>453.399994</ele>
<time>2012-04-14T05:16:44.000Z</time>
</trkpt>
<trkpt lat="31.7428010" lon="35.3149046">
<ele>453.399994</ele>
<time>2012-04-14T05:16:45.000Z</time>
</trkpt>
<trkpt lat="31.7426881" lon="35.3152565">
<ele>450.029968</ele>
<time>2012-04-14T05:16:51.000Z</time>
</trkpt>
<trkpt lat="31.7426691" lon="35.3153094">
<ele>449.070007</ele>
<time>2012-04-14T05:16:52.000Z</time>
</trkpt>
<trkpt lat="31.7426312" lon="35.3154265">
<ele>447.630005</ele>
<time>2012-04-14T05:16:54.000Z</time>
</trkpt>
<trkpt lat="31.7426062" lon="35.3154809">
<ele>447.149994</ele>
<time>2012-04-14T05:16:55.000Z</time>
</trkpt>
<trkpt lat="31.7425759" lon="35.3155312">
<ele>446.670013</ele>
<time>2012-04-14T05:16:56.000Z</time>
</trkpt>
<trkpt lat="31.7422853" lon="35.3160673">
<ele>443.789978</ele>
<time>2012-04-14T05:17:06.000Z</time>
</trkpt>
<trkpt lat="31.7422646" lon="35.3161213">
<ele>443.789978</ele>
<time>2012-04-14T05:17:07.000Z</time>
</trkpt>
<trkpt lat="31.7422525" lon="35.3161692">
<ele>443.789978</ele>
<time>2012-04-14T05:17:08.000Z</time>
</trkpt>
<trkpt lat="31.7421320" lon="35.3164195">
<ele>443.789978</ele>
<time>2012-04-14T05:17:18.000Z</time>
</trkpt>
<trkpt lat="31.7420975" lon="35.3164801">
<ele>444.750000</ele>
<time>2012-04-14T05:17:22.000Z</time>
</trkpt>
<trkpt lat="31.7420915" lon="35.3164901">
<ele>444.750000</ele>
<time>2012-04-14T05:17:26.000Z</time>
</trkpt>
<trkpt lat="31.7420879" lon="35.3165037">
<ele>444.269989</ele>
<time>2012-04-14T05:17:27.000Z</time>
</trkpt>
<trkpt lat="31.7420848" lon="35.3165215">
<ele>444.750000</ele>
<time>2012-04-14T05:17:28.000Z</time>
</trkpt>
<trkpt lat="31.7419754" lon="35.3167893">
<ele>445.230011</ele>
<time>2012-04-14T05:17:41.000Z</time>
</trkpt>
<trkpt lat="31.7418019" lon="35.3171939">
<ele>444.750000</ele>
<time>2012-04-14T05:17:55.000Z</time>
</trkpt>
<trkpt lat="31.7418159" lon="35.3173586">
<ele>444.750000</ele>
<time>2012-04-14T05:17:59.000Z</time>
</trkpt>
<trkpt lat="31.7418139" lon="35.3174077">
<ele>444.750000</ele>
<time>2012-04-14T05:18:00.000Z</time>
</trkpt>
<trkpt lat="31.7417734" lon="35.3176701">
<ele>444.750000</ele>
<time>2012-04-14T05:18:05.000Z</time>
</trkpt>
<trkpt lat="31.7417498" lon="35.3177187">
<ele>444.269989</ele>
<time>2012-04-14T05:18:06.000Z</time>
</trkpt>
<trkpt lat="31.7416214" lon="35.3179523">
<ele>444.750000</ele>
<time>2012-04-14T05:18:11.000Z</time>
</trkpt>
<trkpt lat="31.7415964" lon="35.3179990">
<ele>444.269989</ele>
<time>2012-04-14T05:18:12.000Z</time>
</trkpt>
<trkpt lat="31.7414260" lon="35.3183708">
<ele>444.750000</ele>
<time>2012-04-14T05:18:20.000Z</time>
</trkpt>
<trkpt lat="31.7414182" lon="35.3184192">
<ele>445.230011</ele>
<time>2012-04-14T05:18:21.000Z</time>
</trkpt>
<trkpt lat="31.7414094" lon="35.3185148">
<ele>444.269989</ele>
<time>2012-04-14T05:18:23.000Z</time>
</trkpt>
<trkpt lat="31.7414040" lon="35.3186082">
<ele>444.269989</ele>
<time>2012-04-14T05:18:25.000Z</time>
</trkpt>
<trkpt lat="31.7413966" lon="35.3186583">
<ele>444.750000</ele>
<time>2012-04-14T05:18:26.000Z</time>
</trkpt>
<trkpt lat="31.7413880" lon="35.3187044">
<ele>444.269989</ele>
<time>2012-04-14T05:18:27.000Z</time>
</trkpt>
<trkpt lat="31.7413833" lon="35.3187567">
<ele>444.269989</ele>
<time>2012-04-14T05:18:28.000Z</time>
</trkpt>
<trkpt lat="31.7413772" lon="35.3188083">
<ele>443.789978</ele>
<time>2012-04-14T05:18:29.000Z</time>
</trkpt>
<trkpt lat="31.7413683" lon="35.3188632">
<ele>443.789978</ele>
<time>2012-04-14T05:18:30.000Z</time>
</trkpt>
<trkpt lat="31.7413091" lon="35.3191613">
<ele>442.820007</ele>
<time>2012-04-14T05:18:35.000Z</time>
</trkpt>
<trkpt lat="31.7412923" lon="35.3192203">
<ele>442.820007</ele>
<time>2012-04-14T05:18:36.000Z</time>
</trkpt>
<trkpt lat="31.7412769" lon="35.3192805">
<ele>442.820007</ele>
<time>2012-04-14T05:18:37.000Z</time>
</trkpt>
<trkpt lat="31.7412269" lon="35.3194321">
<ele>441.380005</ele>
<time>2012-04-14T05:18:40.000Z</time>
</trkpt>
<trkpt lat="31.7411691" lon="35.3194966">
<ele>440.420013</ele>
<time>2012-04-14T05:18:43.000Z</time>
</trkpt>
<trkpt lat="31.7411426" lon="35.3195038">
<ele>440.420013</ele>
<time>2012-04-14T05:18:44.000Z</time>
</trkpt>
<trkpt lat="31.7410596" lon="35.3195293">
<ele>440.899994</ele>
<time>2012-04-14T05:18:48.000Z</time>
</trkpt>
<trkpt lat="31.7410451" lon="35.3195475">
<ele>439.940002</ele>
<time>2012-04-14T05:18:49.000Z</time>
</trkpt>
<trkpt lat="31.7410353" lon="35.3195745">
<ele>439.940002</ele>
<time>2012-04-14T05:18:50.000Z</time>
</trkpt>
<trkpt lat="31.7410295" lon="35.3196036">
<ele>439.940002</ele>
<time>2012-04-14T05:18:51.000Z</time>
</trkpt>
<trkpt lat="31.7410304" lon="35.3196369">
<ele>439.940002</ele>
<time>2012-04-14T05:18:52.000Z</time>
</trkpt>
<trkpt lat="31.7410391" lon="35.3196653">
<ele>439.459991</ele>
<time>2012-04-14T05:18:53.000Z</time>
</trkpt>
<trkpt lat="31.7410502" lon="35.3196974">
<ele>439.459991</ele>
<time>2012-04-14T05:18:54.000Z</time>
</trkpt>
<trkpt lat="31.7410586" lon="35.3197350">
<ele>438.980011</ele>
<time>2012-04-14T05:18:55.000Z</time>
</trkpt>
<trkpt lat="31.7410871" lon="35.3199084">
<ele>438.019989</ele>
<time>2012-04-14T05:18:59.000Z</time>
</trkpt>
<trkpt lat="31.7410801" lon="35.3199663">
<ele>438.019989</ele>
<time>2012-04-14T05:19:00.000Z</time>
</trkpt>
<trkpt lat="31.7410537" lon="35.3200793">
<ele>437.059998</ele>
<time>2012-04-14T05:19:02.000Z</time>
</trkpt>
<trkpt lat="31.7410370" lon="35.3201363">
<ele>436.580017</ele>
<time>2012-04-14T05:19:03.000Z</time>
</trkpt>
<trkpt lat="31.7409343" lon="35.3204896">
<ele>435.609985</ele>
<time>2012-04-14T05:19:09.000Z</time>
</trkpt>
<trkpt lat="31.7409152" lon="35.3205490">
<ele>436.100006</ele>
<time>2012-04-14T05:19:10.000Z</time>
</trkpt>
<trkpt lat="31.7408668" lon="35.3207476">
<ele>434.170013</ele>
<time>2012-04-14T05:19:13.000Z</time>
</trkpt>
<trkpt lat="31.7408574" lon="35.3208133">
<ele>433.690002</ele>
<time>2012-04-14T05:19:14.000Z</time>
</trkpt>
<trkpt lat="31.7408472" lon="35.3208804">
<ele>433.690002</ele>
<time>2012-04-14T05:19:15.000Z</time>
</trkpt>
<trkpt lat="31.7408267" lon="35.3209473">
<ele>432.730011</ele>
<time>2012-04-14T05:19:16.000Z</time>
</trkpt>
<trkpt lat="31.7408018" lon="35.3210167">
<ele>432.730011</ele>
<time>2012-04-14T05:19:17.000Z</time>
</trkpt>
<trkpt lat="31.7407717" lon="35.3210854">
<ele>432.250000</ele>
<time>2012-04-14T05:19:18.000Z</time>
</trkpt>
<trkpt lat="31.7406688" lon="35.3213009">
<ele>430.809998</ele>
<time>2012-04-14T05:19:21.000Z</time>
</trkpt>
<trkpt lat="31.7404577" lon="35.3218171">
<ele>427.440002</ele>
<time>2012-04-14T05:19:28.000Z</time>
</trkpt>
<trkpt lat="31.7403681" lon="35.3220326">
<ele>426.480011</ele>
<time>2012-04-14T05:19:31.000Z</time>
</trkpt>
<trkpt lat="31.7403318" lon="35.3220855">
<ele>426.480011</ele>
<time>2012-04-14T05:19:32.000Z</time>
</trkpt>
<trkpt lat="31.7402260" lon="35.3222211">
<ele>426.000000</ele>
<time>2012-04-14T05:19:35.000Z</time>
</trkpt>
<trkpt lat="31.7402053" lon="35.3222763">
<ele>425.519989</ele>
<time>2012-04-14T05:19:36.000Z</time>
</trkpt>
<trkpt lat="31.7401750" lon="35.3223978">
<ele>424.559998</ele>
<time>2012-04-14T05:19:38.000Z</time>
</trkpt>
<trkpt lat="31.7401250" lon="35.3226620">
<ele>424.080017</ele>
<time>2012-04-14T05:19:42.000Z</time>
</trkpt>
<trkpt lat="31.7399228" lon="35.3233590">
<ele>421.190002</ele>
<time>2012-04-14T05:19:55.000Z</time>
</trkpt>
<trkpt lat="31.7398768" lon="35.3236312">
<ele>419.750000</ele>
<time>2012-04-14T05:20:00.000Z</time>
</trkpt>
<trkpt lat="31.7398288" lon="35.3237870">
<ele>419.750000</ele>
<time>2012-04-14T05:20:03.000Z</time>
</trkpt>
<trkpt lat="31.7397862" lon="35.3239487">
<ele>418.309998</ele>
<time>2012-04-14T05:20:06.000Z</time>
</trkpt>
<trkpt lat="31.7397765" lon="35.3240084">
<ele>417.830017</ele>
<time>2012-04-14T05:20:07.000Z</time>
</trkpt>
<trkpt lat="31.7397532" lon="35.3242748">
<ele>416.389984</ele>
<time>2012-04-14T05:20:11.000Z</time>
</trkpt>
<trkpt lat="31.7397356" lon="35.3243486">
<ele>415.910004</ele>
<time>2012-04-14T05:20:12.000Z</time>
</trkpt>
<trkpt lat="31.7395382" lon="35.3248176">
<ele>412.539978</ele>
<time>2012-04-14T05:20:18.000Z</time>
</trkpt>
<trkpt lat="31.7393911" lon="35.3251790">
<ele>410.139984</ele>
<time>2012-04-14T05:20:23.000Z</time>
</trkpt>
<trkpt lat="31.7393824" lon="35.3252480">
<ele>410.139984</ele>
<time>2012-04-14T05:20:24.000Z</time>
</trkpt>
<trkpt lat="31.7393517" lon="35.3254631">
<ele>409.180023</ele>
<time>2012-04-14T05:20:27.000Z</time>
</trkpt>
<trkpt lat="31.7393307" lon="35.3255370">
<ele>408.700012</ele>
<time>2012-04-14T05:20:28.000Z</time>
</trkpt>
<trkpt lat="31.7391102" lon="35.3260613">
<ele>406.289978</ele>
<time>2012-04-14T05:20:35.000Z</time>
</trkpt>
<trkpt lat="31.7389436" lon="35.3263833">
<ele>404.369995</ele>
<time>2012-04-14T05:20:39.000Z</time>
</trkpt>
<trkpt lat="31.7387606" lon="35.3268145">
<ele>402.930023</ele>
<time>2012-04-14T05:20:44.000Z</time>
</trkpt>
<trkpt lat="31.7386748" lon="35.3269673">
<ele>401.489990</ele>
<time>2012-04-14T05:20:46.000Z</time>
</trkpt>
<trkpt lat="31.7386380" lon="35.3270481">
<ele>401.489990</ele>
<time>2012-04-14T05:20:47.000Z</time>
</trkpt>
<trkpt lat="31.7384083" lon="35.3274987">
<ele>401.010010</ele>
<time>2012-04-14T05:20:54.000Z</time>
</trkpt>
<trkpt lat="31.7383818" lon="35.3275270">
<ele>401.489990</ele>
<time>2012-04-14T05:20:55.000Z</time>
</trkpt>
<trkpt lat="31.7381805" lon="35.3276445">
<ele>402.930023</ele>
<time>2012-04-14T05:21:06.000Z</time>
</trkpt>
<trkpt lat="31.7379255" lon="35.3278653">
<ele>401.010010</ele>
<time>2012-04-14T05:21:17.000Z</time>
</trkpt>
<trkpt lat="31.7379112" lon="35.3278916">
<ele>400.529999</ele>
<time>2012-04-14T05:21:18.000Z</time>
</trkpt>
<trkpt lat="31.7377446" lon="35.3279734">
<ele>398.119995</ele>
<time>2012-04-14T05:21:27.000Z</time>
</trkpt>
<trkpt lat="31.7377325" lon="35.3279711">
<ele>398.119995</ele>
<time>2012-04-14T05:21:28.000Z</time>
</trkpt>
<trkpt lat="31.7377315" lon="35.3279709">
<ele>398.600006</ele>
<time>2012-04-14T05:21:44.000Z</time>
</trkpt>
<trkpt lat="31.7376517" lon="35.3279042">
<ele>398.119995</ele>
<time>2012-04-14T05:21:54.000Z</time>
</trkpt>
<trkpt lat="31.7376602" lon="35.3279068">
<ele>398.119995</ele>
<time>2012-04-14T05:22:19.000Z</time>
</trkpt>
<trkpt lat="31.7376603" lon="35.3279131">
<ele>398.119995</ele>
<time>2012-04-14T05:22:48.000Z</time>
</trkpt>
<trkpt lat="31.7376615" lon="35.3279115">
<ele>398.119995</ele>
<time>2012-04-14T05:23:15.000Z</time>
</trkpt>
<trkpt lat="31.7376613" lon="35.3279066">
<ele>397.639984</ele>
<time>2012-04-14T05:23:31.000Z</time>
</trkpt>
<trkpt lat="31.7376277" lon="35.3276272">
<ele>397.639984</ele>
<time>2012-04-14T05:23:40.000Z</time>
</trkpt>
<trkpt lat="31.7377999" lon="35.3270944">
<ele>395.239990</ele>
<time>2012-04-14T05:23:54.000Z</time>
</trkpt>
<trkpt lat="31.7378272" lon="35.3267234">
<ele>392.839996</ele>
<time>2012-04-14T05:24:04.000Z</time>
</trkpt>
<trkpt lat="31.7375667" lon="35.3263859">
<ele>389.470001</ele>
<time>2012-04-14T05:24:14.000Z</time>
</trkpt>
<trkpt lat="31.7375056" lon="35.3263182">
<ele>388.510010</ele>
<time>2012-04-14T05:24:16.000Z</time>
</trkpt>
<trkpt lat="31.7374806" lon="35.3262814">
<ele>388.510010</ele>
<time>2012-04-14T05:24:17.000Z</time>
</trkpt>
<trkpt lat="31.7373820" lon="35.3259187">
<ele>385.149994</ele>
<time>2012-04-14T05:24:27.000Z</time>
</trkpt>
<trkpt lat="31.7374211" lon="35.3256014">
<ele>382.260010</ele>
<time>2012-04-14T05:24:37.000Z</time>
</trkpt>
<trkpt lat="31.7376435" lon="35.3252905">
<ele>379.380005</ele>
<time>2012-04-14T05:24:48.000Z</time>
</trkpt>
<trkpt lat="31.7377793" lon="35.3251066">
<ele>377.450012</ele>
<time>2012-04-14T05:24:55.000Z</time>
</trkpt>
<trkpt lat="31.7377738" lon="35.3250619">
<ele>376.010010</ele>
<time>2012-04-14T05:24:56.000Z</time>
</trkpt>
<trkpt lat="31.7377563" lon="35.3250202">
<ele>375.529999</ele>
<time>2012-04-14T05:24:57.000Z</time>
</trkpt>
<trkpt lat="31.7377324" lon="35.3249817">
<ele>374.570007</ele>
<time>2012-04-14T05:24:58.000Z</time>
</trkpt>
<trkpt lat="31.7377070" lon="35.3249496">
<ele>375.049988</ele>
<time>2012-04-14T05:24:59.000Z</time>
</trkpt>
<trkpt lat="31.7376786" lon="35.3249221">
<ele>374.089996</ele>
<time>2012-04-14T05:25:00.000Z</time>
</trkpt>
<trkpt lat="31.7376495" lon="35.3248985">
<ele>373.610016</ele>
<time>2012-04-14T05:25:01.000Z</time>
</trkpt>
<trkpt lat="31.7375920" lon="35.3248533">
<ele>372.649994</ele>
<time>2012-04-14T05:25:03.000Z</time>
</trkpt>
<trkpt lat="31.7375268" lon="35.3248229">
<ele>371.689972</ele>
<time>2012-04-14T05:25:05.000Z</time>
</trkpt>
<trkpt lat="31.7373972" lon="35.3248114">
<ele>369.760010</ele>
<time>2012-04-14T05:25:09.000Z</time>
</trkpt>
<trkpt lat="31.7370724" lon="35.3248811">
<ele>367.360016</ele>
<time>2012-04-14T05:25:18.000Z</time>
</trkpt>
<trkpt lat="31.7370303" lon="35.3249086">
<ele>366.880005</ele>
<time>2012-04-14T05:25:19.000Z</time>
</trkpt>
<trkpt lat="31.7369850" lon="35.3249477">
<ele>366.399994</ele>
<time>2012-04-14T05:25:20.000Z</time>
</trkpt>
<trkpt lat="31.7369376" lon="35.3249991">
<ele>365.919983</ele>
<time>2012-04-14T05:25:21.000Z</time>
</trkpt>
<trkpt lat="31.7368917" lon="35.3250582">
<ele>364.960022</ele>
<time>2012-04-14T05:25:22.000Z</time>
</trkpt>
<trkpt lat="31.7368468" lon="35.3251191">
<ele>364.960022</ele>
<time>2012-04-14T05:25:23.000Z</time>
</trkpt>
<trkpt lat="31.7368016" lon="35.3251732">
<ele>364.480011</ele>
<time>2012-04-14T05:25:24.000Z</time>
</trkpt>
<trkpt lat="31.7367580" lon="35.3252229">
<ele>364.000000</ele>
<time>2012-04-14T05:25:25.000Z</time>
</trkpt>
<trkpt lat="31.7365675" lon="35.3254578">
<ele>362.070007</ele>
<time>2012-04-14T05:25:30.000Z</time>
</trkpt>
<trkpt lat="31.7365050" lon="35.3255318">
<ele>361.110016</ele>
<time>2012-04-14T05:25:32.000Z</time>
</trkpt>
<trkpt lat="31.7364698" lon="35.3255530">
<ele>361.110016</ele>
<time>2012-04-14T05:25:33.000Z</time>
</trkpt>
<trkpt lat="31.7364346" lon="35.3255640">
<ele>360.149994</ele>
<time>2012-04-14T05:25:34.000Z</time>
</trkpt>
<trkpt lat="31.7363996" lon="35.3255658">
<ele>360.149994</ele>
<time>2012-04-14T05:25:35.000Z</time>
</trkpt>
<trkpt lat="31.7363646" lon="35.3255650">
<ele>360.149994</ele>
<time>2012-04-14T05:25:36.000Z</time>
</trkpt>
<trkpt lat="31.7361394" lon="35.3256301">
<ele>358.710022</ele>
<time>2012-04-14T05:25:43.000Z</time>
</trkpt>
<trkpt lat="31.7361182" lon="35.3256706">
<ele>358.230011</ele>
<time>2012-04-14T05:25:44.000Z</time>
</trkpt>
<trkpt lat="31.7361055" lon="35.3257146">
<ele>358.230011</ele>
<time>2012-04-14T05:25:45.000Z</time>
</trkpt>
<trkpt lat="31.7359758" lon="35.3260903">
<ele>357.269989</ele>
<time>2012-04-14T05:25:56.000Z</time>
</trkpt>
<trkpt lat="31.7359767" lon="35.3260967">
<ele>357.750000</ele>
<time>2012-04-14T05:26:21.000Z</time>
</trkpt>
<trkpt lat="31.7358411" lon="35.3261887">
<ele>355.339996</ele>
<time>2012-04-14T05:26:39.000Z</time>
</trkpt>
<trkpt lat="31.7358104" lon="35.3262057">
<ele>355.339996</ele>
<time>2012-04-14T05:26:40.000Z</time>
</trkpt>
<trkpt lat="31.7355313" lon="35.3263870">
<ele>353.419983</ele>
<time>2012-04-14T05:26:51.000Z</time>
</trkpt>
<trkpt lat="31.7353547" lon="35.3263915">
<ele>352.460022</ele>
<time>2012-04-14T05:26:56.000Z</time>
</trkpt>
<trkpt lat="31.7353106" lon="35.3263757">
<ele>352.460022</ele>
<time>2012-04-14T05:26:57.000Z</time>
</trkpt>
<trkpt lat="31.7352668" lon="35.3263501">
<ele>352.460022</ele>
<time>2012-04-14T05:26:58.000Z</time>
</trkpt>
<trkpt lat="31.7352226" lon="35.3263196">
<ele>351.980011</ele>
<time>2012-04-14T05:26:59.000Z</time>
</trkpt>
<trkpt lat="31.7351836" lon="35.3262911">
<ele>351.980011</ele>
<time>2012-04-14T05:27:00.000Z</time>
</trkpt>
<trkpt lat="31.7351450" lon="35.3262701">
<ele>351.980011</ele>
<time>2012-04-14T05:27:01.000Z</time>
</trkpt>
<trkpt lat="31.7351049" lon="35.3262539">
<ele>352.460022</ele>
<time>2012-04-14T05:27:02.000Z</time>
</trkpt>
<trkpt lat="31.7350629" lon="35.3262406">
<ele>351.980011</ele>
<time>2012-04-14T05:27:03.000Z</time>
</trkpt>
<trkpt lat="31.7349246" lon="35.3262193">
<ele>350.540009</ele>
<time>2012-04-14T05:27:06.000Z</time>
</trkpt>
<trkpt lat="31.7348788" lon="35.3262150">
<ele>350.059998</ele>
<time>2012-04-14T05:27:07.000Z</time>
</trkpt>
<trkpt lat="31.7348388" lon="35.3262044">
<ele>350.059998</ele>
<time>2012-04-14T05:27:08.000Z</time>
</trkpt>
<trkpt lat="31.7348057" lon="35.3261832">
<ele>350.059998</ele>
<time>2012-04-14T05:27:09.000Z</time>
</trkpt>
<trkpt lat="31.7347744" lon="35.3261575">
<ele>349.579987</ele>
<time>2012-04-14T05:27:10.000Z</time>
</trkpt>
<trkpt lat="31.7347418" lon="35.3261362">
<ele>349.100006</ele>
<time>2012-04-14T05:27:11.000Z</time>
</trkpt>
<trkpt lat="31.7347094" lon="35.3261194">
<ele>349.100006</ele>
<time>2012-04-14T05:27:12.000Z</time>
</trkpt>
<trkpt lat="31.7343209" lon="35.3258008">
<ele>347.649994</ele>
<time>2012-04-14T05:27:25.000Z</time>
</trkpt>
<trkpt lat="31.7340214" lon="35.3256354">
<ele>346.689972</ele>
<time>2012-04-14T05:27:37.000Z</time>
</trkpt>
<trkpt lat="31.7336172" lon="35.3255681">
<ele>345.250000</ele>
<time>2012-04-14T05:27:49.000Z</time>
</trkpt>
<trkpt lat="31.7332189" lon="35.3253629">
<ele>343.809998</ele>
<time>2012-04-14T05:28:01.000Z</time>
</trkpt>
<trkpt lat="31.7329254" lon="35.3250298">
<ele>342.850006</ele>
<time>2012-04-14T05:28:13.000Z</time>
</trkpt>
<trkpt lat="31.7328098" lon="35.3246825">
<ele>341.410004</ele>
<time>2012-04-14T05:28:23.000Z</time>
</trkpt>
<trkpt lat="31.7327751" lon="35.3246522">
<ele>340.919983</ele>
<time>2012-04-14T05:28:24.000Z</time>
</trkpt>
<trkpt lat="31.7324998" lon="35.3243854">
<ele>340.439972</ele>
<time>2012-04-14T05:28:33.000Z</time>
</trkpt>
<trkpt lat="31.7323041" lon="35.3242920">
<ele>339.480011</ele>
<time>2012-04-14T05:28:37.000Z</time>
</trkpt>
<trkpt lat="31.7322505" lon="35.3242813">
<ele>339.000000</ele>
<time>2012-04-14T05:28:38.000Z</time>
</trkpt>
<trkpt lat="31.7321963" lon="35.3242767">
<ele>339.000000</ele>
<time>2012-04-14T05:28:39.000Z</time>
</trkpt>
<trkpt lat="31.7319815" lon="35.3242678">
<ele>338.040009</ele>
<time>2012-04-14T05:28:43.000Z</time>
</trkpt>
<trkpt lat="31.7319310" lon="35.3242616">
<ele>338.040009</ele>
<time>2012-04-14T05:28:44.000Z</time>
</trkpt>
<trkpt lat="31.7318820" lon="35.3242611">
<ele>337.559998</ele>
<time>2012-04-14T05:28:45.000Z</time>
</trkpt>
<trkpt lat="31.7318344" lon="35.3242688">
<ele>337.559998</ele>
<time>2012-04-14T05:28:46.000Z</time>
</trkpt>
<trkpt lat="31.7317878" lon="35.3242823">
<ele>337.559998</ele>
<time>2012-04-14T05:28:47.000Z</time>
</trkpt>
<trkpt lat="31.7317452" lon="35.3243061">
<ele>337.559998</ele>
<time>2012-04-14T05:28:48.000Z</time>
</trkpt>
<trkpt lat="31.7317052" lon="35.3243388">
<ele>337.079987</ele>
<time>2012-04-14T05:28:49.000Z</time>
</trkpt>
<trkpt lat="31.7316691" lon="35.3243770">
<ele>337.079987</ele>
<time>2012-04-14T05:28:50.000Z</time>
</trkpt>
<trkpt lat="31.7316396" lon="35.3244199">
<ele>336.600006</ele>
<time>2012-04-14T05:28:51.000Z</time>
</trkpt>
<trkpt lat="31.7316137" lon="35.3244688">
<ele>336.600006</ele>
<time>2012-04-14T05:28:52.000Z</time>
</trkpt>
<trkpt lat="31.7315895" lon="35.3245214">
<ele>336.119995</ele>
<time>2012-04-14T05:28:53.000Z</time>
</trkpt>
<trkpt lat="31.7314645" lon="35.3247397">
<ele>335.160004</ele>
<time>2012-04-14T05:28:57.000Z</time>
</trkpt>
<trkpt lat="31.7314190" lon="35.3247876">
<ele>334.199982</ele>
<time>2012-04-14T05:28:58.000Z</time>
</trkpt>
<trkpt lat="31.7313788" lon="35.3248335">
<ele>333.710022</ele>
<time>2012-04-14T05:28:59.000Z</time>
</trkpt>
<trkpt lat="31.7313012" lon="35.3249200">
<ele>334.199982</ele>
<time>2012-04-14T05:29:01.000Z</time>
</trkpt>
<trkpt lat="31.7312557" lon="35.3249464">
<ele>334.199982</ele>
<time>2012-04-14T05:29:02.000Z</time>
</trkpt>
<trkpt lat="31.7311102" lon="35.3250066">
<ele>333.710022</ele>
<time>2012-04-14T05:29:05.000Z</time>
</trkpt>
<trkpt lat="31.7310626" lon="35.3250144">
<ele>333.230011</ele>
<time>2012-04-14T05:29:06.000Z</time>
</trkpt>
<trkpt lat="31.7310175" lon="35.3250179">
<ele>332.750000</ele>
<time>2012-04-14T05:29:07.000Z</time>
</trkpt>
<trkpt lat="31.7309738" lon="35.3250128">
<ele>332.750000</ele>
<time>2012-04-14T05:29:08.000Z</time>
</trkpt>
<trkpt lat="31.7309337" lon="35.3250067">
<ele>332.750000</ele>
<time>2012-04-14T05:29:09.000Z</time>
</trkpt>
<trkpt lat="31.7307417" lon="35.3248971">
<ele>330.830017</ele>
<time>2012-04-14T05:29:15.000Z</time>
</trkpt>
<trkpt lat="31.7307147" lon="35.3248572">
<ele>330.830017</ele>
<time>2012-04-14T05:29:16.000Z</time>
</trkpt>
<trkpt lat="31.7306621" lon="35.3247737">
<ele>330.350006</ele>
<time>2012-04-14T05:29:18.000Z</time>
</trkpt>
<trkpt lat="31.7304691" lon="35.3245464">
<ele>329.869995</ele>
<time>2012-04-14T05:29:25.000Z</time>
</trkpt>
<trkpt lat="31.7304332" lon="35.3245225">
<ele>329.390015</ele>
<time>2012-04-14T05:29:26.000Z</time>
</trkpt>
<trkpt lat="31.7303151" lon="35.3244668">
<ele>328.910004</ele>
<time>2012-04-14T05:29:29.000Z</time>
</trkpt>
<trkpt lat="31.7302771" lon="35.3244648">
<ele>328.429993</ele>
<time>2012-04-14T05:29:30.000Z</time>
</trkpt>
<trkpt lat="31.7302400" lon="35.3244653">
<ele>328.429993</ele>
<time>2012-04-14T05:29:31.000Z</time>
</trkpt>
<trkpt lat="31.7302047" lon="35.3244750">
<ele>328.910004</ele>
<time>2012-04-14T05:29:32.000Z</time>
</trkpt>
<trkpt lat="31.7301721" lon="35.3244923">
<ele>327.949982</ele>
<time>2012-04-14T05:29:33.000Z</time>
</trkpt>
<trkpt lat="31.7301448" lon="35.3245178">
<ele>327.949982</ele>
<time>2012-04-14T05:29:34.000Z</time>
</trkpt>
<trkpt lat="31.7301274" lon="35.3245474">
<ele>327.949982</ele>
<time>2012-04-14T05:29:35.000Z</time>
</trkpt>
<trkpt lat="31.7301178" lon="35.3245788">
<ele>327.469971</ele>
<time>2012-04-14T05:29:36.000Z</time>
</trkpt>
<trkpt lat="31.7301151" lon="35.3246150">
<ele>326.990021</ele>
<time>2012-04-14T05:29:37.000Z</time>
</trkpt>
<trkpt lat="31.7301167" lon="35.3246552">
<ele>326.990021</ele>
<time>2012-04-14T05:29:38.000Z</time>
</trkpt>
<trkpt lat="31.7301185" lon="35.3246942">
<ele>326.990021</ele>
<time>2012-04-14T05:29:39.000Z</time>
</trkpt>
<trkpt lat="31.7300821" lon="35.3248626">
<ele>326.019989</ele>
<time>2012-04-14T05:29:45.000Z</time>
</trkpt>
<trkpt lat="31.7300596" lon="35.3248749">
<ele>325.540009</ele>
<time>2012-04-14T05:29:46.000Z</time>
</trkpt>
<trkpt lat="31.7300335" lon="35.3248878">
<ele>325.540009</ele>
<time>2012-04-14T05:29:47.000Z</time>
</trkpt>
<trkpt lat="31.7300085" lon="35.3249004">
<ele>325.059998</ele>
<time>2012-04-14T05:29:48.000Z</time>
</trkpt>
<trkpt lat="31.7299856" lon="35.3249149">
<ele>325.540009</ele>
<time>2012-04-14T05:29:49.000Z</time>
</trkpt>
<trkpt lat="31.7299637" lon="35.3249289">
<ele>325.059998</ele>
<time>2012-04-14T05:29:50.000Z</time>
</trkpt>
<trkpt lat="31.7299416" lon="35.3249399">
<ele>325.059998</ele>
<time>2012-04-14T05:29:51.000Z</time>
</trkpt>
<trkpt lat="31.7299187" lon="35.3249438">
<ele>325.059998</ele>
<time>2012-04-14T05:29:52.000Z</time>
</trkpt>
<trkpt lat="31.7298940" lon="35.3249438">
<ele>324.580017</ele>
<time>2012-04-14T05:29:53.000Z</time>
</trkpt>
<trkpt lat="31.7298680" lon="35.3249381">
<ele>325.059998</ele>
<time>2012-04-14T05:29:54.000Z</time>
</trkpt>
<trkpt lat="31.7298351" lon="35.3249234">
<ele>324.100006</ele>
<time>2012-04-14T05:29:55.000Z</time>
</trkpt>
<trkpt lat="31.7295926" lon="35.3247328">
<ele>323.140015</ele>
<time>2012-04-14T05:30:03.000Z</time>
</trkpt>
<trkpt lat="31.7293733" lon="35.3245522">
<ele>324.580017</ele>
<time>2012-04-14T05:30:14.000Z</time>
</trkpt>
<trkpt lat="31.7291858" lon="35.3243215">
<ele>326.500000</ele>
<time>2012-04-14T05:30:26.000Z</time>
</trkpt>
<trkpt lat="31.7291744" lon="35.3243092">
<ele>326.500000</ele>
<time>2012-04-14T05:30:39.000Z</time>
</trkpt>
<trkpt lat="31.7291928" lon="35.3243108">
<ele>326.990021</ele>
<time>2012-04-14T05:31:06.000Z</time>
</trkpt>
<trkpt lat="31.7291803" lon="35.3243002">
<ele>326.500000</ele>
<time>2012-04-14T05:31:13.000Z</time>
</trkpt>
<trkpt lat="31.7291668" lon="35.3243030">
<ele>326.500000</ele>
<time>2012-04-14T05:31:14.000Z</time>
</trkpt>
<trkpt lat="31.7291549" lon="35.3243034">
<ele>326.500000</ele>
<time>2012-04-14T05:31:15.000Z</time>
</trkpt>
<trkpt lat="31.7289699" lon="35.3242811">
<ele>326.019989</ele>
<time>2012-04-14T05:31:26.000Z</time>
</trkpt>
<trkpt lat="31.7289437" lon="35.3242833">
<ele>326.019989</ele>
<time>2012-04-14T05:31:27.000Z</time>
</trkpt>
<trkpt lat="31.7289195" lon="35.3242884">
<ele>325.540009</ele>
<time>2012-04-14T05:31:28.000Z</time>
</trkpt>
<trkpt lat="31.7287580" lon="35.3244077">
<ele>323.619995</ele>
<time>2012-04-14T05:31:35.000Z</time>
</trkpt>
<trkpt lat="31.7286497" lon="35.3244973">
<ele>321.219971</ele>
<time>2012-04-14T05:31:39.000Z</time>
</trkpt>
<trkpt lat="31.7285172" lon="35.3245929">
<ele>317.850006</ele>
<time>2012-04-14T05:31:43.000Z</time>
</trkpt>
<trkpt lat="31.7284835" lon="35.3246240">
<ele>317.369995</ele>
<time>2012-04-14T05:31:44.000Z</time>
</trkpt>
<trkpt lat="31.7284437" lon="35.3246558">
<ele>316.890015</ele>
<time>2012-04-14T05:31:45.000Z</time>
</trkpt>
<trkpt lat="31.7284029" lon="35.3246854">
<ele>316.890015</ele>
<time>2012-04-14T05:31:46.000Z</time>
</trkpt>
<trkpt lat="31.7283660" lon="35.3247129">
<ele>316.410004</ele>
<time>2012-04-14T05:31:47.000Z</time>
</trkpt>
<trkpt lat="31.7283357" lon="35.3247359">
<ele>315.929993</ele>
<time>2012-04-14T05:31:48.000Z</time>
</trkpt>
<trkpt lat="31.7283150" lon="35.3247481">
<ele>315.449982</ele>
<time>2012-04-14T05:31:49.000Z</time>
</trkpt>
<trkpt lat="31.7283109" lon="35.3247455">
<ele>315.449982</ele>
<time>2012-04-14T05:31:58.000Z</time>
</trkpt>
<trkpt lat="31.7283056" lon="35.3247423">
<ele>315.449982</ele>
<time>2012-04-14T05:32:33.000Z</time>
</trkpt>
<trkpt lat="31.7282910" lon="35.3247527">
<ele>315.929993</ele>
<time>2012-04-14T05:32:34.000Z</time>
</trkpt>
<trkpt lat="31.7282716" lon="35.3247656">
<ele>315.449982</ele>
<time>2012-04-14T05:32:35.000Z</time>
</trkpt>
<trkpt lat="31.7282476" lon="35.3247802">
<ele>314.969971</ele>
<time>2012-04-14T05:32:36.000Z</time>
</trkpt>
<trkpt lat="31.7282236" lon="35.3247986">
<ele>314.969971</ele>
<time>2012-04-14T05:32:37.000Z</time>
</trkpt>
<trkpt lat="31.7280385" lon="35.3249408">
<ele>311.600006</ele>
<time>2012-04-14T05:32:44.000Z</time>
</trkpt>
<trkpt lat="31.7280130" lon="35.3249653">
<ele>311.600006</ele>
<time>2012-04-14T05:32:45.000Z</time>
</trkpt>
<trkpt lat="31.7279091" lon="35.3250883">
<ele>309.199982</ele>
<time>2012-04-14T05:32:49.000Z</time>
</trkpt>
<trkpt lat="31.7278017" lon="35.3251666">
<ele>307.760010</ele>
<time>2012-04-14T05:32:52.000Z</time>
</trkpt>
<trkpt lat="31.7277930" lon="35.3251832">
<ele>307.760010</ele>
<time>2012-04-14T05:32:59.000Z</time>
</trkpt>
<trkpt lat="31.7277734" lon="35.3252018">
<ele>307.760010</ele>
<time>2012-04-14T05:33:39.000Z</time>
</trkpt>
<trkpt lat="31.7277671" lon="35.3252032">
<ele>307.760010</ele>
<time>2012-04-14T05:34:12.000Z</time>
</trkpt>
<trkpt lat="31.7277653" lon="35.3252030">
<ele>308.239990</ele>
<time>2012-04-14T05:34:48.000Z</time>
</trkpt>
<trkpt lat="31.7277809" lon="35.3252018">
<ele>308.720001</ele>
<time>2012-04-14T05:35:16.000Z</time>
</trkpt>
<trkpt lat="31.7277735" lon="35.3251926">
<ele>308.720001</ele>
<time>2012-04-14T05:35:40.000Z</time>
</trkpt>
<trkpt lat="31.7277612" lon="35.3251989">
<ele>309.199982</ele>
<time>2012-04-14T05:36:06.000Z</time>
</trkpt>
<trkpt lat="31.7277370" lon="35.3251991">
<ele>309.199982</ele>
<time>2012-04-14T05:36:16.000Z</time>
</trkpt>
<trkpt lat="31.7277011" lon="35.3252014">
<ele>309.199982</ele>
<time>2012-04-14T05:36:22.000Z</time>
</trkpt>
<trkpt lat="31.7274515" lon="35.3251982">
<ele>306.320007</ele>
<time>2012-04-14T05:36:33.000Z</time>
</trkpt>
<trkpt lat="31.7274588" lon="35.3251936">
<ele>306.320007</ele>
<time>2012-04-14T05:36:51.000Z</time>
</trkpt>
<trkpt lat="31.7274568" lon="35.3251950">
<ele>306.320007</ele>
<time>2012-04-14T05:37:22.000Z</time>
</trkpt>
<trkpt lat="31.7274501" lon="35.3251905">
<ele>306.320007</ele>
<time>2012-04-14T05:37:50.000Z</time>
</trkpt>
<trkpt lat="31.7274371" lon="35.3251860">
<ele>306.320007</ele>
<time>2012-04-14T05:37:51.000Z</time>
</trkpt>
<trkpt lat="31.7274225" lon="35.3251818">
<ele>306.320007</ele>
<time>2012-04-14T05:37:52.000Z</time>
</trkpt>
<trkpt lat="31.7274081" lon="35.3251728">
<ele>306.320007</ele>
<time>2012-04-14T05:37:53.000Z</time>
</trkpt>
<trkpt lat="31.7273955" lon="35.3251627">
<ele>306.320007</ele>
<time>2012-04-14T05:37:54.000Z</time>
</trkpt>
<trkpt lat="31.7273816" lon="35.3251521">
<ele>306.320007</ele>
<time>2012-04-14T05:37:55.000Z</time>
</trkpt>
<trkpt lat="31.7273648" lon="35.3251394">
<ele>306.320007</ele>
<time>2012-04-14T05:37:56.000Z</time>
</trkpt>
<trkpt lat="31.7273444" lon="35.3251278">
<ele>305.839996</ele>
<time>2012-04-14T05:37:57.000Z</time>
</trkpt>
<trkpt lat="31.7273247" lon="35.3251169">
<ele>306.320007</ele>
<time>2012-04-14T05:37:58.000Z</time>
</trkpt>
<trkpt lat="31.7271229" lon="35.3249258">
<ele>304.880005</ele>
<time>2012-04-14T05:38:08.000Z</time>
</trkpt>
<trkpt lat="31.7271223" lon="35.3245647">
<ele>304.389984</ele>
<time>2012-04-14T05:38:18.000Z</time>
</trkpt>
<trkpt lat="31.7271031" lon="35.3243834">
<ele>303.910004</ele>
<time>2012-04-14T05:38:22.000Z</time>
</trkpt>
<trkpt lat="31.7270740" lon="35.3242875">
<ele>303.429993</ele>
<time>2012-04-14T05:38:24.000Z</time>
</trkpt>
<trkpt lat="31.7270046" lon="35.3241521">
<ele>303.429993</ele>
<time>2012-04-14T05:38:27.000Z</time>
</trkpt>
<trkpt lat="31.7269732" lon="35.3241111">
<ele>302.949982</ele>
<time>2012-04-14T05:38:28.000Z</time>
</trkpt>
<trkpt lat="31.7269364" lon="35.3240699">
<ele>302.949982</ele>
<time>2012-04-14T05:38:29.000Z</time>
</trkpt>
<trkpt lat="31.7268928" lon="35.3240307">
<ele>302.949982</ele>
<time>2012-04-14T05:38:30.000Z</time>
</trkpt>
<trkpt lat="31.7268432" lon="35.3239961">
<ele>302.470001</ele>
<time>2012-04-14T05:38:31.000Z</time>
</trkpt>
<trkpt lat="31.7267898" lon="35.3239659">
<ele>301.989990</ele>
<time>2012-04-14T05:38:32.000Z</time>
</trkpt>
<trkpt lat="31.7267331" lon="35.3239413">
<ele>301.989990</ele>
<time>2012-04-14T05:38:33.000Z</time>
</trkpt>
<trkpt lat="31.7266738" lon="35.3239243">
<ele>301.510010</ele>
<time>2012-04-14T05:38:34.000Z</time>
</trkpt>
<trkpt lat="31.7266165" lon="35.3239195">
<ele>301.510010</ele>
<time>2012-04-14T05:38:35.000Z</time>
</trkpt>
<trkpt lat="31.7265619" lon="35.3239265">
<ele>301.510010</ele>
<time>2012-04-14T05:38:36.000Z</time>
</trkpt>
<trkpt lat="31.7263779" lon="35.3239792">
<ele>300.550018</ele>
<time>2012-04-14T05:38:39.000Z</time>
</trkpt>
<trkpt lat="31.7263227" lon="35.3239909">
<ele>300.550018</ele>
<time>2012-04-14T05:38:40.000Z</time>
</trkpt>
<trkpt lat="31.7262694" lon="35.3239903">
<ele>300.550018</ele>
<time>2012-04-14T05:38:41.000Z</time>
</trkpt>
<trkpt lat="31.7262161" lon="35.3239811">
<ele>301.029999</ele>
<time>2012-04-14T05:38:42.000Z</time>
</trkpt>
<trkpt lat="31.7261653" lon="35.3239650">
<ele>301.029999</ele>
<time>2012-04-14T05:38:43.000Z</time>
</trkpt>
<trkpt lat="31.7261177" lon="35.3239463">
<ele>301.029999</ele>
<time>2012-04-14T05:38:44.000Z</time>
</trkpt>
<trkpt lat="31.7259885" lon="35.3238617">
<ele>301.510010</ele>
<time>2012-04-14T05:38:47.000Z</time>
</trkpt>
<trkpt lat="31.7259508" lon="35.3238239">
<ele>301.510010</ele>
<time>2012-04-14T05:38:48.000Z</time>
</trkpt>
<trkpt lat="31.7259130" lon="35.3237776">
<ele>301.029999</ele>
<time>2012-04-14T05:38:49.000Z</time>
</trkpt>
<trkpt lat="31.7258781" lon="35.3237301">
<ele>301.029999</ele>
<time>2012-04-14T05:38:50.000Z</time>
</trkpt>
<trkpt lat="31.7258481" lon="35.3236979">
<ele>300.550018</ele>
<time>2012-04-14T05:38:51.000Z</time>
</trkpt>
<trkpt lat="31.7258310" lon="35.3236829">
<ele>299.589996</ele>
<time>2012-04-14T05:38:59.000Z</time>
</trkpt>
<trkpt lat="31.7258255" lon="35.3236945">
<ele>299.589996</ele>
<time>2012-04-14T05:39:33.000Z</time>
</trkpt>
<trkpt lat="31.7258269" lon="35.3236937">
<ele>299.589996</ele>
<time>2012-04-14T05:39:36.000Z</time>
</trkpt>
<trkpt lat="31.7258144" lon="35.3236778">
<ele>299.589996</ele>
<time>2012-04-14T05:39:37.000Z</time>
</trkpt>
<trkpt lat="31.7257983" lon="35.3236581">
<ele>299.589996</ele>
<time>2012-04-14T05:39:38.000Z</time>
</trkpt>
<trkpt lat="31.7257735" lon="35.3236333">
<ele>299.589996</ele>
<time>2012-04-14T05:39:39.000Z</time>
</trkpt>
<trkpt lat="31.7257415" lon="35.3236067">
<ele>299.110016</ele>
<time>2012-04-14T05:39:40.000Z</time>
</trkpt>
<trkpt lat="31.7257036" lon="35.3235804">
<ele>299.589996</ele>
<time>2012-04-14T05:39:41.000Z</time>
</trkpt>
<trkpt lat="31.7256624" lon="35.3235612">
<ele>299.110016</ele>
<time>2012-04-14T05:39:42.000Z</time>
</trkpt>
<trkpt lat="31.7256193" lon="35.3235490">
<ele>299.110016</ele>
<time>2012-04-14T05:39:43.000Z</time>
</trkpt>
<trkpt lat="31.7255742" lon="35.3235374">
<ele>298.630005</ele>
<time>2012-04-14T05:39:44.000Z</time>
</trkpt>
<trkpt lat="31.7255274" lon="35.3235206">
<ele>299.110016</ele>
<time>2012-04-14T05:39:45.000Z</time>
</trkpt>
<trkpt lat="31.7254799" lon="35.3235026">
<ele>299.110016</ele>
<time>2012-04-14T05:39:46.000Z</time>
</trkpt>
<trkpt lat="31.7254311" lon="35.3234824">
<ele>299.110016</ele>
<time>2012-04-14T05:39:47.000Z</time>
</trkpt>
<trkpt lat="31.7253273" lon="35.3234399">
<ele>298.630005</ele>
<time>2012-04-14T05:39:49.000Z</time>
</trkpt>
<trkpt lat="31.7252736" lon="35.3234251">
<ele>298.630005</ele>
<time>2012-04-14T05:39:50.000Z</time>
</trkpt>
<trkpt lat="31.7251044" lon="35.3233877">
<ele>297.669983</ele>
<time>2012-04-14T05:39:53.000Z</time>
</trkpt>
<trkpt lat="31.7250503" lon="35.3233639">
<ele>297.669983</ele>
<time>2012-04-14T05:39:54.000Z</time>
</trkpt>
<trkpt lat="31.7250002" lon="35.3233327">
<ele>297.179993</ele>
<time>2012-04-14T05:39:55.000Z</time>
</trkpt>
<trkpt lat="31.7249562" lon="35.3232969">
<ele>297.179993</ele>
<time>2012-04-14T05:39:56.000Z</time>
</trkpt>
<trkpt lat="31.7249197" lon="35.3232534">
<ele>296.699982</ele>
<time>2012-04-14T05:39:57.000Z</time>
</trkpt>
<trkpt lat="31.7248847" lon="35.3232043">
<ele>296.220001</ele>
<time>2012-04-14T05:39:58.000Z</time>
</trkpt>
<trkpt lat="31.7248042" lon="35.3231089">
<ele>296.220001</ele>
<time>2012-04-14T05:40:00.000Z</time>
</trkpt>
<trkpt lat="31.7245284" lon="35.3228343">
<ele>295.739990</ele>
<time>2012-04-14T05:40:07.000Z</time>
</trkpt>
<trkpt lat="31.7243684" lon="35.3226707">
<ele>292.380005</ele>
<time>2012-04-14T05:40:13.000Z</time>
</trkpt>
<trkpt lat="31.7243350" lon="35.3226465">
<ele>291.899994</ele>
<time>2012-04-14T05:40:14.000Z</time>
</trkpt>
<trkpt lat="31.7241787" lon="35.3225569">
<ele>289.489990</ele>
<time>2012-04-14T05:40:18.000Z</time>
</trkpt>
<trkpt lat="31.7241390" lon="35.3225442">
<ele>288.529999</ele>
<time>2012-04-14T05:40:19.000Z</time>
</trkpt>
<trkpt lat="31.7240982" lon="35.3225379">
<ele>287.089996</ele>
<time>2012-04-14T05:40:20.000Z</time>
</trkpt>
<trkpt lat="31.7240554" lon="35.3225405">
<ele>286.610016</ele>
<time>2012-04-14T05:40:21.000Z</time>
</trkpt>
<trkpt lat="31.7240119" lon="35.3225520">
<ele>286.610016</ele>
<time>2012-04-14T05:40:22.000Z</time>
</trkpt>
<trkpt lat="31.7239705" lon="35.3225783">
<ele>286.130005</ele>
<time>2012-04-14T05:40:23.000Z</time>
</trkpt>
<trkpt lat="31.7239316" lon="35.3226057">
<ele>286.130005</ele>
<time>2012-04-14T05:40:24.000Z</time>
</trkpt>
<trkpt lat="31.7237632" lon="35.3226567">
<ele>284.690002</ele>
<time>2012-04-14T05:40:33.000Z</time>
</trkpt>
<trkpt lat="31.7237549" lon="35.3226568">
<ele>285.170013</ele>
<time>2012-04-14T05:41:02.000Z</time>
</trkpt>
<trkpt lat="31.7237675" lon="35.3226419">
<ele>284.690002</ele>
<time>2012-04-14T05:41:22.000Z</time>
</trkpt>
<trkpt lat="31.7237620" lon="35.3226287">
<ele>285.170013</ele>
<time>2012-04-14T05:41:39.000Z</time>
</trkpt>
<trkpt lat="31.7237601" lon="35.3226290">
<ele>284.690002</ele>
<time>2012-04-14T05:41:45.000Z</time>
</trkpt>
<trkpt lat="31.7235739" lon="35.3228346">
<ele>283.729980</ele>
<time>2012-04-14T05:41:55.000Z</time>
</trkpt>
<trkpt lat="31.7233911" lon="35.3231209">
<ele>283.250000</ele>
<time>2012-04-14T05:42:07.000Z</time>
</trkpt>
<trkpt lat="31.7231190" lon="35.3234612">
<ele>282.279999</ele>
<time>2012-04-14T05:42:20.000Z</time>
</trkpt>
<trkpt lat="31.7228597" lon="35.3237842">
<ele>281.800018</ele>
<time>2012-04-14T05:42:32.000Z</time>
</trkpt>
<trkpt lat="31.7226085" lon="35.3242159">
<ele>280.360016</ele>
<time>2012-04-14T05:42:44.000Z</time>
</trkpt>
<trkpt lat="31.7225871" lon="35.3242687">
<ele>280.360016</ele>
<time>2012-04-14T05:42:52.000Z</time>
</trkpt>
<trkpt lat="31.7225817" lon="35.3242601">
<ele>280.360016</ele>
<time>2012-04-14T05:43:23.000Z</time>
</trkpt>
<trkpt lat="31.7225969" lon="35.3242715">
<ele>280.360016</ele>
<time>2012-04-14T05:43:44.000Z</time>
</trkpt>
<trkpt lat="31.7225937" lon="35.3242949">
<ele>279.880005</ele>
<time>2012-04-14T05:43:45.000Z</time>
</trkpt>
<trkpt lat="31.7224609" lon="35.3247045">
<ele>278.440002</ele>
<time>2012-04-14T05:43:56.000Z</time>
</trkpt>
<trkpt lat="31.7222662" lon="35.3249956">
<ele>277.000000</ele>
<time>2012-04-14T05:44:08.000Z</time>
</trkpt>
<trkpt lat="31.7222467" lon="35.3250204">
<ele>276.040009</ele>
<time>2012-04-14T05:44:18.000Z</time>
</trkpt>
<trkpt lat="31.7221790" lon="35.3250428">
<ele>277.959991</ele>
<time>2012-04-14T05:44:31.000Z</time>
</trkpt>
<trkpt lat="31.7221558" lon="35.3251168">
<ele>277.959991</ele>
<time>2012-04-14T05:44:35.000Z</time>
</trkpt>
<trkpt lat="31.7220648" lon="35.3253297">
<ele>277.000000</ele>
<time>2012-04-14T05:44:46.000Z</time>
</trkpt>
<trkpt lat="31.7220519" lon="35.3253790">
<ele>277.000000</ele>
<time>2012-04-14T05:44:59.000Z</time>
</trkpt>
<trkpt lat="31.7219867" lon="35.3254940">
<ele>277.000000</ele>
<time>2012-04-14T05:45:09.000Z</time>
</trkpt>
<trkpt lat="31.7219459" lon="35.3255233">
<ele>277.000000</ele>
<time>2012-04-14T05:45:13.000Z</time>
</trkpt>
<trkpt lat="31.7218423" lon="35.3255574">
<ele>276.040009</ele>
<time>2012-04-14T05:45:23.000Z</time>
</trkpt>
<trkpt lat="31.7218145" lon="35.3256011">
<ele>275.070007</ele>
<time>2012-04-14T05:45:28.000Z</time>
</trkpt>
<trkpt lat="31.7216621" lon="35.3255974">
<ele>275.070007</ele>
<time>2012-04-14T05:45:43.000Z</time>
</trkpt>
<trkpt lat="31.7216001" lon="35.3256063">
<ele>273.630005</ele>
<time>2012-04-14T05:45:54.000Z</time>
</trkpt>
<trkpt lat="31.7215283" lon="35.3256105">
<ele>272.670013</ele>
<time>2012-04-14T05:46:01.000Z</time>
</trkpt>
<trkpt lat="31.7213792" lon="35.3256019">
<ele>272.190002</ele>
<time>2012-04-14T05:46:12.000Z</time>
</trkpt>
<trkpt lat="31.7210468" lon="35.3255748">
<ele>271.709991</ele>
<time>2012-04-14T05:46:25.000Z</time>
</trkpt>
<trkpt lat="31.7209835" lon="35.3255625">
<ele>271.709991</ele>
<time>2012-04-14T05:46:36.000Z</time>
</trkpt>
<trkpt lat="31.7209531" lon="35.3255475">
<ele>271.709991</ele>
<time>2012-04-14T05:46:39.000Z</time>
</trkpt>
<trkpt lat="31.7208450" lon="35.3254937">
<ele>272.190002</ele>
<time>2012-04-14T05:46:55.000Z</time>
</trkpt>
<trkpt lat="31.7207801" lon="35.3254658">
<ele>271.709991</ele>
<time>2012-04-14T05:47:09.000Z</time>
</trkpt>
<trkpt lat="31.7207888" lon="35.3254623">
<ele>271.709991</ele>
<time>2012-04-14T05:47:38.000Z</time>
</trkpt>
<trkpt lat="31.7207736" lon="35.3254598">
<ele>271.229980</ele>
<time>2012-04-14T05:47:40.000Z</time>
</trkpt>
<trkpt lat="31.7207347" lon="35.3254472">
<ele>271.229980</ele>
<time>2012-04-14T05:47:44.000Z</time>
</trkpt>
<trkpt lat="31.7206146" lon="35.3253408">
<ele>271.709991</ele>
<time>2012-04-14T05:47:58.000Z</time>
</trkpt>
<trkpt lat="31.7203943" lon="35.3251080">
<ele>271.709991</ele>
<time>2012-04-14T05:48:09.000Z</time>
</trkpt>
<trkpt lat="31.7203631" lon="35.3250860">
<ele>271.709991</ele>
<time>2012-04-14T05:48:23.000Z</time>
</trkpt>
<trkpt lat="31.7203499" lon="35.3250867">
<ele>271.229980</ele>
<time>2012-04-14T05:48:43.000Z</time>
</trkpt>
<trkpt lat="31.7203035" lon="35.3250575">
<ele>271.229980</ele>
<time>2012-04-14T05:48:58.000Z</time>
</trkpt>
<trkpt lat="31.7202905" lon="35.3250634">
<ele>271.709991</ele>
<time>2012-04-14T05:49:13.000Z</time>
</trkpt>
<trkpt lat="31.7202184" lon="35.3250920">
<ele>270.750000</ele>
<time>2012-04-14T05:49:29.000Z</time>
</trkpt>
<trkpt lat="31.7200992" lon="35.3251132">
<ele>270.269989</ele>
<time>2012-04-14T05:49:42.000Z</time>
</trkpt>
<trkpt lat="31.7200340" lon="35.3251248">
<ele>269.790009</ele>
<time>2012-04-14T05:49:55.000Z</time>
</trkpt>
<trkpt lat="31.7199523" lon="35.3251448">
<ele>269.309998</ele>
<time>2012-04-14T05:50:08.000Z</time>
</trkpt>
<trkpt lat="31.7199463" lon="35.3251448">
<ele>269.309998</ele>
<time>2012-04-14T05:50:09.000Z</time>
</trkpt>
<trkpt lat="31.7198710" lon="35.3251531">
<ele>269.309998</ele>
<time>2012-04-14T05:50:13.000Z</time>
</trkpt>
<trkpt lat="31.7195322" lon="35.3251199">
<ele>268.829987</ele>
<time>2012-04-14T05:50:27.000Z</time>
</trkpt>
<trkpt lat="31.7194515" lon="35.3250959">
<ele>269.790009</ele>
<time>2012-04-14T05:50:34.000Z</time>
</trkpt>
<trkpt lat="31.7194463" lon="35.3251105">
<ele>269.790009</ele>
<time>2012-04-14T05:50:45.000Z</time>
</trkpt>
<trkpt lat="31.7194135" lon="35.3250730">
<ele>270.269989</ele>
<time>2012-04-14T05:50:57.000Z</time>
</trkpt>
<trkpt lat="31.7194080" lon="35.3250655">
<ele>270.269989</ele>
<time>2012-04-14T05:51:31.000Z</time>
</trkpt>
<trkpt lat="31.7194093" lon="35.3250666">
<ele>269.790009</ele>
<time>2012-04-14T05:51:34.000Z</time>
</trkpt>
<trkpt lat="31.7193068" lon="35.3250808">
<ele>269.309998</ele>
<time>2012-04-14T05:51:40.000Z</time>
</trkpt>
<trkpt lat="31.7189553" lon="35.3251557">
<ele>269.309998</ele>
<time>2012-04-14T05:51:54.000Z</time>
</trkpt>
<trkpt lat="31.7188223" lon="35.3251516">
<ele>270.269989</ele>
<time>2012-04-14T05:52:00.000Z</time>
</trkpt>
<trkpt lat="31.7186662" lon="35.3252759">
<ele>268.829987</ele>
<time>2012-04-14T05:52:12.000Z</time>
</trkpt>
<trkpt lat="31.7186423" lon="35.3253195">
<ele>268.350006</ele>
<time>2012-04-14T05:52:23.000Z</time>
</trkpt>
<trkpt lat="31.7186480" lon="35.3253218">
<ele>267.860016</ele>
<time>2012-04-14T05:52:41.000Z</time>
</trkpt>
<trkpt lat="31.7186424" lon="35.3253369">
<ele>267.380005</ele>
<time>2012-04-14T05:53:02.000Z</time>
</trkpt>
<trkpt lat="31.7186315" lon="35.3253801">
<ele>266.420013</ele>
<time>2012-04-14T05:53:13.000Z</time>
</trkpt>
<trkpt lat="31.7186260" lon="35.3254214">
<ele>264.979980</ele>
<time>2012-04-14T05:53:26.000Z</time>
</trkpt>
<trkpt lat="31.7185795" lon="35.3255168">
<ele>264.500000</ele>
<time>2012-04-14T05:53:39.000Z</time>
</trkpt>
<trkpt lat="31.7185171" lon="35.3255652">
<ele>265.459991</ele>
<time>2012-04-14T05:53:52.000Z</time>
</trkpt>
<trkpt lat="31.7184884" lon="35.3256497">
<ele>264.500000</ele>
<time>2012-04-14T05:54:05.000Z</time>
</trkpt>
<trkpt lat="31.7184794" lon="35.3256672">
<ele>264.019989</ele>
<time>2012-04-14T05:54:10.000Z</time>
</trkpt>
<trkpt lat="31.7184675" lon="35.3256976">
<ele>264.019989</ele>
<time>2012-04-14T05:54:13.000Z</time>
</trkpt>
<trkpt lat="31.7184187" lon="35.3258069">
<ele>264.019989</ele>
<time>2012-04-14T05:54:26.000Z</time>
</trkpt>
<trkpt lat="31.7183848" lon="35.3259214">
<ele>263.540009</ele>
<time>2012-04-14T05:54:32.000Z</time>
</trkpt>
<trkpt lat="31.7183128" lon="35.3261987">
<ele>262.579987</ele>
<time>2012-04-14T05:54:45.000Z</time>
</trkpt>
<trkpt lat="31.7182529" lon="35.3262829">
<ele>263.059998</ele>
<time>2012-04-14T05:54:59.000Z</time>
</trkpt>
<trkpt lat="31.7181618" lon="35.3264233">
<ele>262.100006</ele>
<time>2012-04-14T05:55:13.000Z</time>
</trkpt>
<trkpt lat="31.7181515" lon="35.3264354">
<ele>262.579987</ele>
<time>2012-04-14T05:55:15.000Z</time>
</trkpt>
<trkpt lat="31.7181239" lon="35.3264604">
<ele>262.579987</ele>
<time>2012-04-14T05:55:27.000Z</time>
</trkpt>
<trkpt lat="31.7180009" lon="35.3265591">
<ele>262.100006</ele>
<time>2012-04-14T05:55:41.000Z</time>
</trkpt>
<trkpt lat="31.7179473" lon="35.3265906">
<ele>261.619995</ele>
<time>2012-04-14T05:55:46.000Z</time>
</trkpt>
<trkpt lat="31.7178840" lon="35.3265754">
<ele>261.619995</ele>
<time>2012-04-14T05:56:00.000Z</time>
</trkpt>
<trkpt lat="31.7178936" lon="35.3265520">
<ele>261.140015</ele>
<time>2012-04-14T05:56:36.000Z</time>
</trkpt>
<trkpt lat="31.7178225" lon="35.3264842">
<ele>261.619995</ele>
<time>2012-04-14T05:56:49.000Z</time>
</trkpt>
<trkpt lat="31.7175425" lon="35.3263496">
<ele>260.170013</ele>
<time>2012-04-14T05:57:01.000Z</time>
</trkpt>
<trkpt lat="31.7174648" lon="35.3263138">
<ele>259.209991</ele>
<time>2012-04-14T05:57:05.000Z</time>
</trkpt>
<trkpt lat="31.7174438" lon="35.3263176">
<ele>260.170013</ele>
<time>2012-04-14T05:57:20.000Z</time>
</trkpt>
<trkpt lat="31.7174443" lon="35.3263155">
<ele>259.690002</ele>
<time>2012-04-14T05:57:44.000Z</time>
</trkpt>
<trkpt lat="31.7174489" lon="35.3262993">
<ele>260.170013</ele>
<time>2012-04-14T05:57:58.000Z</time>
</trkpt>
<trkpt lat="31.7173963" lon="35.3262482">
<ele>261.619995</ele>
<time>2012-04-14T05:58:09.000Z</time>
</trkpt>
<trkpt lat="31.7173061" lon="35.3261783">
<ele>263.059998</ele>
<time>2012-04-14T05:58:22.000Z</time>
</trkpt>
<trkpt lat="31.7172221" lon="35.3261522">
<ele>266.420013</ele>
<time>2012-04-14T05:58:35.000Z</time>
</trkpt>
<trkpt lat="31.7172241" lon="35.3261538">
<ele>266.420013</ele>
<time>2012-04-14T05:58:57.000Z</time>
</trkpt>
<trkpt lat="31.7171969" lon="35.3261672">
<ele>266.420013</ele>
<time>2012-04-14T05:59:14.000Z</time>
</trkpt>
<trkpt lat="31.7171008" lon="35.3261814">
<ele>267.380005</ele>
<time>2012-04-14T05:59:27.000Z</time>
</trkpt>
<trkpt lat="31.7170843" lon="35.3261783">
<ele>267.380005</ele>
<time>2012-04-14T05:59:44.000Z</time>
</trkpt>
<trkpt lat="31.7168960" lon="35.3262190">
<ele>267.380005</ele>
<time>2012-04-14T05:59:53.000Z</time>
</trkpt>
<trkpt lat="31.7167828" lon="35.3262393">
<ele>268.829987</ele>
<time>2012-04-14T06:00:02.000Z</time>
</trkpt>
<trkpt lat="31.7167121" lon="35.3262351">
<ele>269.309998</ele>
<time>2012-04-14T06:00:16.000Z</time>
</trkpt>
<trkpt lat="31.7167035" lon="35.3262326">
<ele>268.829987</ele>
<time>2012-04-14T06:00:41.000Z</time>
</trkpt>
<trkpt lat="31.7167042" lon="35.3262333">
<ele>268.829987</ele>
<time>2012-04-14T06:01:05.000Z</time>
</trkpt>
<trkpt lat="31.7166935" lon="35.3262460">
<ele>268.829987</ele>
<time>2012-04-14T06:01:34.000Z</time>
</trkpt>
<trkpt lat="31.7166502" lon="35.3262749">
<ele>267.380005</ele>
<time>2012-04-14T06:01:46.000Z</time>
</trkpt>
<trkpt lat="31.7166673" lon="35.3263014">
<ele>266.420013</ele>
<time>2012-04-14T06:01:50.000Z</time>
</trkpt>
<trkpt lat="31.7166314" lon="35.3263767">
<ele>264.500000</ele>
<time>2012-04-14T06:02:01.000Z</time>
</trkpt>
<trkpt lat="31.7166149" lon="35.3263926">
<ele>264.500000</ele>
<time>2012-04-14T06:02:03.000Z</time>
</trkpt>
<trkpt lat="31.7165907" lon="35.3263968">
<ele>264.019989</ele>
<time>2012-04-14T06:02:05.000Z</time>
</trkpt>
<trkpt lat="31.7165570" lon="35.3263869">
<ele>263.540009</ele>
<time>2012-04-14T06:02:09.000Z</time>
</trkpt>
<trkpt lat="31.7165229" lon="35.3264015">
<ele>263.059998</ele>
<time>2012-04-14T06:02:22.000Z</time>
</trkpt>
<trkpt lat="31.7165228" lon="35.3264011">
<ele>262.579987</ele>
<time>2012-04-14T06:02:24.000Z</time>
</trkpt>
<trkpt lat="31.7164780" lon="35.3264368">
<ele>262.100006</ele>
<time>2012-04-14T06:02:38.000Z</time>
</trkpt>
<trkpt lat="31.7164709" lon="35.3264291">
<ele>262.579987</ele>
<time>2012-04-14T06:03:03.000Z</time>
</trkpt>
<trkpt lat="31.7164526" lon="35.3264588">
<ele>262.100006</ele>
<time>2012-04-14T06:03:25.000Z</time>
</trkpt>
<trkpt lat="31.7164525" lon="35.3264797">
<ele>262.100006</ele>
<time>2012-04-14T06:03:29.000Z</time>
</trkpt>
<trkpt lat="31.7163944" lon="35.3265722">
<ele>261.140015</ele>
<time>2012-04-14T06:03:35.000Z</time>
</trkpt>
<trkpt lat="31.7162968" lon="35.3267492">
<ele>258.729980</ele>
<time>2012-04-14T06:03:44.000Z</time>
</trkpt>
<trkpt lat="31.7162143" lon="35.3267718">
<ele>257.769989</ele>
<time>2012-04-14T06:03:48.000Z</time>
</trkpt>
<trkpt lat="31.7161180" lon="35.3268688">
<ele>255.850006</ele>
<time>2012-04-14T06:03:56.000Z</time>
</trkpt>
<trkpt lat="31.7159191" lon="35.3267616">
<ele>255.850006</ele>
<time>2012-04-14T06:04:07.000Z</time>
</trkpt>
<trkpt lat="31.7158413" lon="35.3267287">
<ele>256.809998</ele>
<time>2012-04-14T06:04:18.000Z</time>
</trkpt>
<trkpt lat="31.7158364" lon="35.3267302">
<ele>256.809998</ele>
<time>2012-04-14T06:04:44.000Z</time>
</trkpt>
<trkpt lat="31.7158360" lon="35.3267396">
<ele>256.809998</ele>
<time>2012-04-14T06:05:02.000Z</time>
</trkpt>
<trkpt lat="31.7158313" lon="35.3267450">
<ele>256.329987</ele>
<time>2012-04-14T06:05:25.000Z</time>
</trkpt>
<trkpt lat="31.7158288" lon="35.3267328">
<ele>256.329987</ele>
<time>2012-04-14T06:05:41.000Z</time>
</trkpt>
<trkpt lat="31.7157526" lon="35.3267072">
<ele>257.769989</ele>
<time>2012-04-14T06:05:53.000Z</time>
</trkpt>
<trkpt lat="31.7156877" lon="35.3266842">
<ele>258.250000</ele>
<time>2012-04-14T06:06:07.000Z</time>
</trkpt>
<trkpt lat="31.7156293" lon="35.3267056">
<ele>259.209991</ele>
<time>2012-04-14T06:06:20.000Z</time>
</trkpt>
<trkpt lat="31.7156298" lon="35.3266857">
<ele>259.209991</ele>
<time>2012-04-14T06:06:35.000Z</time>
</trkpt>
<trkpt lat="31.7156248" lon="35.3266805">
<ele>259.209991</ele>
<time>2012-04-14T06:06:50.000Z</time>
</trkpt>
<trkpt lat="31.7155908" lon="35.3266884">
<ele>258.729980</ele>
<time>2012-04-14T06:07:05.000Z</time>
</trkpt>
<trkpt lat="31.7155937" lon="35.3266967">
<ele>257.769989</ele>
<time>2012-04-14T06:07:18.000Z</time>
</trkpt>
<trkpt lat="31.7155946" lon="35.3266919">
<ele>257.290009</ele>
<time>2012-04-14T06:07:40.000Z</time>
</trkpt>
<trkpt lat="31.7155891" lon="35.3266735">
<ele>257.769989</ele>
<time>2012-04-14T06:08:07.000Z</time>
</trkpt>
<trkpt lat="31.7155522" lon="35.3266244">
<ele>256.809998</ele>
<time>2012-04-14T06:08:17.000Z</time>
</trkpt>
<trkpt lat="31.7155274" lon="35.3266440">
<ele>256.329987</ele>
<time>2012-04-14T06:08:29.000Z</time>
</trkpt>
<trkpt lat="31.7155111" lon="35.3266191">
<ele>257.769989</ele>
<time>2012-04-14T06:08:41.000Z</time>
</trkpt>
<trkpt lat="31.7154948" lon="35.3265248">
<ele>259.690002</ele>
<time>2012-04-14T06:08:55.000Z</time>
</trkpt>
<trkpt lat="31.7154861" lon="35.3264554">
<ele>261.619995</ele>
<time>2012-04-14T06:09:10.000Z</time>
</trkpt>
<trkpt lat="31.7154239" lon="35.3265398">
<ele>264.500000</ele>
<time>2012-04-14T06:09:25.000Z</time>
</trkpt>
<trkpt lat="31.7153909" lon="35.3266095">
<ele>265.459991</ele>
<time>2012-04-14T06:09:34.000Z</time>
</trkpt>
<trkpt lat="31.7153725" lon="35.3266557">
<ele>264.979980</ele>
<time>2012-04-14T06:09:50.000Z</time>
</trkpt>
<trkpt lat="31.7153579" lon="35.3266891">
<ele>264.500000</ele>
<time>2012-04-14T06:10:11.000Z</time>
</trkpt>
<trkpt lat="31.7153377" lon="35.3267905">
<ele>262.579987</ele>
<time>2012-04-14T06:10:28.000Z</time>
</trkpt>
<trkpt lat="31.7153161" lon="35.3268567">
<ele>261.619995</ele>
<time>2012-04-14T06:10:42.000Z</time>
</trkpt>
<trkpt lat="31.7152585" lon="35.3269149">
<ele>260.170013</ele>
<time>2012-04-14T06:10:59.000Z</time>
</trkpt>
<trkpt lat="31.7152555" lon="35.3269236">
<ele>259.690002</ele>
<time>2012-04-14T06:11:01.000Z</time>
</trkpt>
<trkpt lat="31.7151769" lon="35.3270911">
<ele>257.290009</ele>
<time>2012-04-14T06:11:15.000Z</time>
</trkpt>
<trkpt lat="31.7151582" lon="35.3271635">
<ele>256.809998</ele>
<time>2012-04-14T06:11:22.000Z</time>
</trkpt>
<trkpt lat="31.7151238" lon="35.3271888">
<ele>256.329987</ele>
<time>2012-04-14T06:11:35.000Z</time>
</trkpt>
<trkpt lat="31.7151312" lon="35.3271875">
<ele>256.809998</ele>
<time>2012-04-14T06:12:11.000Z</time>
</trkpt>
<trkpt lat="31.7150863" lon="35.3273658">
<ele>254.410004</ele>
<time>2012-04-14T06:12:22.000Z</time>
</trkpt>
<trkpt lat="31.7150123" lon="35.3275128">
<ele>253.439987</ele>
<time>2012-04-14T06:12:32.000Z</time>
</trkpt>
<trkpt lat="31.7149795" lon="35.3275846">
<ele>253.439987</ele>
<time>2012-04-14T06:12:46.000Z</time>
</trkpt>
<trkpt lat="31.7149618" lon="35.3276194">
<ele>252.960007</ele>
<time>2012-04-14T06:13:15.000Z</time>
</trkpt>
<trkpt lat="31.7149305" lon="35.3277134">
<ele>252.960007</ele>
<time>2012-04-14T06:13:29.000Z</time>
</trkpt>
<trkpt lat="31.7149248" lon="35.3277440">
<ele>252.960007</ele>
<time>2012-04-14T06:13:34.000Z</time>
</trkpt>
<trkpt lat="31.7149210" lon="35.3277880">
<ele>252.960007</ele>
<time>2012-04-14T06:13:38.000Z</time>
</trkpt>
<trkpt lat="31.7149165" lon="35.3278280">
<ele>252.960007</ele>
<time>2012-04-14T06:13:56.000Z</time>
</trkpt>
<trkpt lat="31.7149192" lon="35.3278353">
<ele>252.479996</ele>
<time>2012-04-14T06:14:10.000Z</time>
</trkpt>
<trkpt lat="31.7149151" lon="35.3278538">
<ele>252.479996</ele>
<time>2012-04-14T06:14:20.000Z</time>
</trkpt>
<trkpt lat="31.7148980" lon="35.3278861">
<ele>253.439987</ele>
<time>2012-04-14T06:14:24.000Z</time>
</trkpt>
<trkpt lat="31.7148794" lon="35.3279906">
<ele>254.889999</ele>
<time>2012-04-14T06:14:39.000Z</time>
</trkpt>
<trkpt lat="31.7148628" lon="35.3280514">
<ele>254.889999</ele>
<time>2012-04-14T06:14:52.000Z</time>
</trkpt>
<trkpt lat="31.7148305" lon="35.3281673">
<ele>255.850006</ele>
<time>2012-04-14T06:15:09.000Z</time>
</trkpt>
<trkpt lat="31.7148099" lon="35.3282740">
<ele>254.889999</ele>
<time>2012-04-14T06:15:24.000Z</time>
</trkpt>
<trkpt lat="31.7147990" lon="35.3282948">
<ele>254.889999</ele>
<time>2012-04-14T06:15:31.000Z</time>
</trkpt>
<trkpt lat="31.7147885" lon="35.3286088">
<ele>253.439987</ele>
<time>2012-04-14T06:15:43.000Z</time>
</trkpt>
<trkpt lat="31.7147320" lon="35.3287970">
<ele>254.410004</ele>
<time>2012-04-14T06:15:54.000Z</time>
</trkpt>
<trkpt lat="31.7147212" lon="35.3288346">
<ele>254.889999</ele>
<time>2012-04-14T06:15:56.000Z</time>
</trkpt>
<trkpt lat="31.7147144" lon="35.3290673">
<ele>258.250000</ele>
<time>2012-04-14T06:16:10.000Z</time>
</trkpt>
<trkpt lat="31.7147144" lon="35.3291888">
<ele>260.170013</ele>
<time>2012-04-14T06:16:22.000Z</time>
</trkpt>
<trkpt lat="31.7147232" lon="35.3292117">
<ele>258.729980</ele>
<time>2012-04-14T06:16:38.000Z</time>
</trkpt>
<trkpt lat="31.7147126" lon="35.3292051">
<ele>259.209991</ele>
<time>2012-04-14T06:17:18.000Z</time>
</trkpt>
<trkpt lat="31.7147121" lon="35.3292105">
<ele>259.209991</ele>
<time>2012-04-14T06:17:57.000Z</time>
</trkpt>
<trkpt lat="31.7147129" lon="35.3291850">
<ele>258.729980</ele>
<time>2012-04-14T06:18:38.000Z</time>
</trkpt>
<trkpt lat="31.7147179" lon="35.3291879">
<ele>258.729980</ele>
<time>2012-04-14T06:19:12.000Z</time>
</trkpt>
<trkpt lat="31.7147267" lon="35.3291900">
<ele>258.250000</ele>
<time>2012-04-14T06:19:53.000Z</time>
</trkpt>
<trkpt lat="31.7147219" lon="35.3291983">
<ele>258.729980</ele>
<time>2012-04-14T06:20:18.000Z</time>
</trkpt>
<trkpt lat="31.7146823" lon="35.3291997">
<ele>259.209991</ele>
<time>2012-04-14T06:20:28.000Z</time>
</trkpt>
<trkpt lat="31.7146625" lon="35.3291802">
<ele>259.690002</ele>
<time>2012-04-14T06:20:42.000Z</time>
</trkpt>
<trkpt lat="31.7145821" lon="35.3291490">
<ele>260.170013</ele>
<time>2012-04-14T06:20:48.000Z</time>
</trkpt>
<trkpt lat="31.7144364" lon="35.3291424">
<ele>260.649994</ele>
<time>2012-04-14T06:20:57.000Z</time>
</trkpt>
<trkpt lat="31.7143495" lon="35.3291988">
<ele>261.619995</ele>
<time>2012-04-14T06:21:04.000Z</time>
</trkpt>
<trkpt lat="31.7142825" lon="35.3292398">
<ele>262.100006</ele>
<time>2012-04-14T06:21:09.000Z</time>
</trkpt>
<trkpt lat="31.7142588" lon="35.3292432">
<ele>262.579987</ele>
<time>2012-04-14T06:21:11.000Z</time>
</trkpt>
<trkpt lat="31.7141291" lon="35.3292775">
<ele>264.500000</ele>
<time>2012-04-14T06:21:21.000Z</time>
</trkpt>
<trkpt lat="31.7141050" lon="35.3292741">
<ele>264.500000</ele>
<time>2012-04-14T06:21:23.000Z</time>
</trkpt>
<trkpt lat="31.7140850" lon="35.3292568">
<ele>265.459991</ele>
<time>2012-04-14T06:21:25.000Z</time>
</trkpt>
<trkpt lat="31.7140143" lon="35.3292559">
<ele>267.380005</ele>
<time>2012-04-14T06:21:35.000Z</time>
</trkpt>
<trkpt lat="31.7140057" lon="35.3292550">
<ele>267.380005</ele>
<time>2012-04-14T06:21:36.000Z</time>
</trkpt>
<trkpt lat="31.7139040" lon="35.3292791">
<ele>269.309998</ele>
<time>2012-04-14T06:21:50.000Z</time>
</trkpt>
<trkpt lat="31.7138661" lon="35.3292789">
<ele>270.269989</ele>
<time>2012-04-14T06:22:00.000Z</time>
</trkpt>
<trkpt lat="31.7137921" lon="35.3293113">
<ele>272.670013</ele>
<time>2012-04-14T06:22:11.000Z</time>
</trkpt>
<trkpt lat="31.7136999" lon="35.3293796">
<ele>274.110016</ele>
<time>2012-04-14T06:22:25.000Z</time>
</trkpt>
<trkpt lat="31.7136462" lon="35.3294414">
<ele>275.559998</ele>
<time>2012-04-14T06:22:34.000Z</time>
</trkpt>
<trkpt lat="31.7135500" lon="35.3295231">
<ele>277.479980</ele>
<time>2012-04-14T06:22:46.000Z</time>
</trkpt>
<trkpt lat="31.7134285" lon="35.3295909">
<ele>277.959991</ele>
<time>2012-04-14T06:23:03.000Z</time>
</trkpt>
<trkpt lat="31.7134191" lon="35.3296014">
<ele>279.399994</ele>
<time>2012-04-14T06:23:05.000Z</time>
</trkpt>
<trkpt lat="31.7134130" lon="35.3296059">
<ele>279.399994</ele>
<time>2012-04-14T06:23:23.000Z</time>
</trkpt>
<trkpt lat="31.7134124" lon="35.3296034">
<ele>279.399994</ele>
<time>2012-04-14T06:23:59.000Z</time>
</trkpt>
<trkpt lat="31.7134072" lon="35.3295971">
<ele>279.399994</ele>
<time>2012-04-14T06:24:01.000Z</time>
</trkpt>
<trkpt lat="31.7133296" lon="35.3295645">
<ele>280.360016</ele>
<time>2012-04-14T06:24:11.000Z</time>
</trkpt>
<trkpt lat="31.7132528" lon="35.3296268">
<ele>280.360016</ele>
<time>2012-04-14T06:24:29.000Z</time>
</trkpt>
<trkpt lat="31.7132536" lon="35.3296278">
<ele>280.360016</ele>
<time>2012-04-14T06:25:04.000Z</time>
</trkpt>
<trkpt lat="31.7132542" lon="35.3296186">
<ele>279.880005</ele>
<time>2012-04-14T06:25:26.000Z</time>
</trkpt>
<trkpt lat="31.7132264" lon="35.3295941">
<ele>279.399994</ele>
<time>2012-04-14T06:25:55.000Z</time>
</trkpt>
<trkpt lat="31.7131325" lon="35.3296058">
<ele>279.880005</ele>
<time>2012-04-14T06:26:02.000Z</time>
</trkpt>
<trkpt lat="31.7129213" lon="35.3295361">
<ele>278.440002</ele>
<time>2012-04-14T06:26:15.000Z</time>
</trkpt>
<trkpt lat="31.7129352" lon="35.3295234">
<ele>278.440002</ele>
<time>2012-04-14T06:26:32.000Z</time>
</trkpt>
<trkpt lat="31.7129270" lon="35.3295027">
<ele>278.440002</ele>
<time>2012-04-14T06:26:59.000Z</time>
</trkpt>
<trkpt lat="31.7129298" lon="35.3294935">
<ele>278.440002</ele>
<time>2012-04-14T06:27:07.000Z</time>
</trkpt>
<trkpt lat="31.7128880" lon="35.3293746">
<ele>277.959991</ele>
<time>2012-04-14T06:27:12.000Z</time>
</trkpt>
<trkpt lat="31.7127320" lon="35.3291853">
<ele>276.040009</ele>
<time>2012-04-14T06:27:18.000Z</time>
</trkpt>
<trkpt lat="31.7123908" lon="35.3290957">
<ele>274.589996</ele>
<time>2012-04-14T06:27:28.000Z</time>
</trkpt>
<trkpt lat="31.7121135" lon="35.3290491">
<ele>273.149994</ele>
<time>2012-04-14T06:27:39.000Z</time>
</trkpt>
<trkpt lat="31.7120288" lon="35.3289199">
<ele>272.670013</ele>
<time>2012-04-14T06:27:43.000Z</time>
</trkpt>
<trkpt lat="31.7120029" lon="35.3289077">
<ele>272.190002</ele>
<time>2012-04-14T06:27:44.000Z</time>
</trkpt>
<trkpt lat="31.7119803" lon="35.3289042">
<ele>272.670013</ele>
<time>2012-04-14T06:27:45.000Z</time>
</trkpt>
<trkpt lat="31.7115792" lon="35.3288976">
<ele>272.670013</ele>
<time>2012-04-14T06:27:58.000Z</time>
</trkpt>
<trkpt lat="31.7112223" lon="35.3288264">
<ele>272.670013</ele>
<time>2012-04-14T06:28:10.000Z</time>
</trkpt>
<trkpt lat="31.7109428" lon="35.3287401">
<ele>273.149994</ele>
<time>2012-04-14T06:28:22.000Z</time>
</trkpt>
<trkpt lat="31.7109654" lon="35.3287329">
<ele>273.630005</ele>
<time>2012-04-14T06:28:50.000Z</time>
</trkpt>
<trkpt lat="31.7109384" lon="35.3287260">
<ele>273.149994</ele>
<time>2012-04-14T06:29:15.000Z</time>
</trkpt>
<trkpt lat="31.7106653" lon="35.3287583">
<ele>275.559998</ele>
<time>2012-04-14T06:29:26.000Z</time>
</trkpt>
<trkpt lat="31.7106452" lon="35.3287612">
<ele>276.040009</ele>
<time>2012-04-14T06:29:27.000Z</time>
</trkpt>
<trkpt lat="31.7106270" lon="35.3287667">
<ele>276.040009</ele>
<time>2012-04-14T06:29:28.000Z</time>
</trkpt>
<trkpt lat="31.7104240" lon="35.3288354">
<ele>277.479980</ele>
<time>2012-04-14T06:29:42.000Z</time>
</trkpt>
<trkpt lat="31.7101484" lon="35.3289813">
<ele>278.440002</ele>
<time>2012-04-14T06:29:56.000Z</time>
</trkpt>
<trkpt lat="31.7099464" lon="35.3292310">
<ele>279.880005</ele>
<time>2012-04-14T06:30:11.000Z</time>
</trkpt>
<trkpt lat="31.7098629" lon="35.3295166">
<ele>280.839996</ele>
<time>2012-04-14T06:30:24.000Z</time>
</trkpt>
<trkpt lat="31.7098590" lon="35.3299168">
<ele>281.800018</ele>
<time>2012-04-14T06:30:39.000Z</time>
</trkpt>
<trkpt lat="31.7098172" lon="35.3302495">
<ele>283.250000</ele>
<time>2012-04-14T06:30:51.000Z</time>
</trkpt>
<trkpt lat="31.7097605" lon="35.3306396">
<ele>283.729980</ele>
<time>2012-04-14T06:31:03.000Z</time>
</trkpt>
<trkpt lat="31.7095650" lon="35.3308976">
<ele>285.170013</ele>
<time>2012-04-14T06:31:15.000Z</time>
</trkpt>
<trkpt lat="31.7095565" lon="35.3308997">
<ele>285.649994</ele>
<time>2012-04-14T06:31:28.000Z</time>
</trkpt>
<trkpt lat="31.7095551" lon="35.3308888">
<ele>284.690002</ele>
<time>2012-04-14T06:31:56.000Z</time>
</trkpt>
<trkpt lat="31.7092927" lon="35.3311018">
<ele>285.649994</ele>
<time>2012-04-14T06:32:08.000Z</time>
</trkpt>
<trkpt lat="31.7090602" lon="35.3313152">
<ele>285.649994</ele>
<time>2012-04-14T06:32:15.000Z</time>
</trkpt>
<trkpt lat="31.7090352" lon="35.3313579">
<ele>285.649994</ele>
<time>2012-04-14T06:32:16.000Z</time>
</trkpt>
<trkpt lat="31.7090131" lon="35.3314016">
<ele>285.649994</ele>
<time>2012-04-14T06:32:17.000Z</time>
</trkpt>
<trkpt lat="31.7089935" lon="35.3314485">
<ele>286.130005</ele>
<time>2012-04-14T06:32:18.000Z</time>
</trkpt>
<trkpt lat="31.7089787" lon="35.3314965">
<ele>286.610016</ele>
<time>2012-04-14T06:32:19.000Z</time>
</trkpt>
<trkpt lat="31.7089680" lon="35.3315406">
<ele>286.610016</ele>
<time>2012-04-14T06:32:20.000Z</time>
</trkpt>
<trkpt lat="31.7089395" lon="35.3316855">
<ele>286.130005</ele>
<time>2012-04-14T06:32:23.000Z</time>
</trkpt>
<trkpt lat="31.7089251" lon="35.3317349">
<ele>286.130005</ele>
<time>2012-04-14T06:32:24.000Z</time>
</trkpt>
<trkpt lat="31.7088852" lon="35.3318289">
<ele>285.649994</ele>
<time>2012-04-14T06:32:26.000Z</time>
</trkpt>
<trkpt lat="31.7088522" lon="35.3318635">
<ele>285.649994</ele>
<time>2012-04-14T06:32:27.000Z</time>
</trkpt>
<trkpt lat="31.7088126" lon="35.3318825">
<ele>285.649994</ele>
<time>2012-04-14T06:32:28.000Z</time>
</trkpt>
<trkpt lat="31.7087694" lon="35.3318895">
<ele>285.649994</ele>
<time>2012-04-14T06:32:29.000Z</time>
</trkpt>
<trkpt lat="31.7087240" lon="35.3318948">
<ele>285.170013</ele>
<time>2012-04-14T06:32:30.000Z</time>
</trkpt>
<trkpt lat="31.7086369" lon="35.3319067">
<ele>285.170013</ele>
<time>2012-04-14T06:32:32.000Z</time>
</trkpt>
<trkpt lat="31.7085907" lon="35.3319102">
<ele>284.690002</ele>
<time>2012-04-14T06:32:33.000Z</time>
</trkpt>
<trkpt lat="31.7082426" lon="35.3319692">
<ele>282.769989</ele>
<time>2012-04-14T06:32:40.000Z</time>
</trkpt>
<trkpt lat="31.7079955" lon="35.3320748">
<ele>280.839996</ele>
<time>2012-04-14T06:32:46.000Z</time>
</trkpt>
<trkpt lat="31.7079553" lon="35.3320833">
<ele>280.360016</ele>
<time>2012-04-14T06:32:47.000Z</time>
</trkpt>
<trkpt lat="31.7078402" lon="35.3320881">
<ele>278.920013</ele>
<time>2012-04-14T06:32:50.000Z</time>
</trkpt>
<trkpt lat="31.7076244" lon="35.3319533">
<ele>276.519989</ele>
<time>2012-04-14T06:32:58.000Z</time>
</trkpt>
<trkpt lat="31.7075147" lon="35.3318772">
<ele>275.070007</ele>
<time>2012-04-14T06:33:01.000Z</time>
</trkpt>
<trkpt lat="31.7074744" lon="35.3318591">
<ele>274.589996</ele>
<time>2012-04-14T06:33:02.000Z</time>
</trkpt>
<trkpt lat="31.7074325" lon="35.3318454">
<ele>274.589996</ele>
<time>2012-04-14T06:33:03.000Z</time>
</trkpt>
<trkpt lat="31.7073879" lon="35.3318401">
<ele>274.110016</ele>
<time>2012-04-14T06:33:04.000Z</time>
</trkpt>
<trkpt lat="31.7073415" lon="35.3318442">
<ele>273.630005</ele>
<time>2012-04-14T06:33:05.000Z</time>
</trkpt>
<trkpt lat="31.7072990" lon="35.3318526">
<ele>273.149994</ele>
<time>2012-04-14T06:33:06.000Z</time>
</trkpt>
<trkpt lat="31.7072372" lon="35.3318714">
<ele>272.190002</ele>
<time>2012-04-14T06:33:08.000Z</time>
</trkpt>
<trkpt lat="31.7071756" lon="35.3318884">
<ele>271.709991</ele>
<time>2012-04-14T06:33:16.000Z</time>
</trkpt>
<trkpt lat="31.7071745" lon="35.3318948">
<ele>271.229980</ele>
<time>2012-04-14T06:33:43.000Z</time>
</trkpt>
<trkpt lat="31.7071730" lon="35.3319033">
<ele>270.750000</ele>
<time>2012-04-14T06:34:15.000Z</time>
</trkpt>
<trkpt lat="31.7071674" lon="35.3319043">
<ele>270.750000</ele>
<time>2012-04-14T06:34:48.000Z</time>
</trkpt>
<trkpt lat="31.7071611" lon="35.3318896">
<ele>271.229980</ele>
<time>2012-04-14T06:35:26.000Z</time>
</trkpt>
<trkpt lat="31.7071642" lon="35.3319100">
<ele>271.229980</ele>
<time>2012-04-14T06:36:03.000Z</time>
</trkpt>
<trkpt lat="31.7071724" lon="35.3319082">
<ele>271.709991</ele>
<time>2012-04-14T06:36:39.000Z</time>
</trkpt>
<trkpt lat="31.7071723" lon="35.3319054">
<ele>271.709991</ele>
<time>2012-04-14T06:37:17.000Z</time>
</trkpt>
<trkpt lat="31.7071717" lon="35.3319126">
<ele>271.709991</ele>
<time>2012-04-14T06:37:49.000Z</time>
</trkpt>
<trkpt lat="31.7071720" lon="35.3319127">
<ele>271.229980</ele>
<time>2012-04-14T06:38:21.000Z</time>
</trkpt>
<trkpt lat="31.7071685" lon="35.3319154">
<ele>271.229980</ele>
<time>2012-04-14T06:38:53.000Z</time>
</trkpt>
<trkpt lat="31.7071700" lon="35.3319062">
<ele>271.709991</ele>
<time>2012-04-14T06:39:27.000Z</time>
</trkpt>
<trkpt lat="31.7071650" lon="35.3319065">
<ele>271.709991</ele>
<time>2012-04-14T06:39:56.000Z</time>
</trkpt>
<trkpt lat="31.7071668" lon="35.3319101">
<ele>271.709991</ele>
<time>2012-04-14T06:40:16.000Z</time>
</trkpt>
<trkpt lat="31.7071779" lon="35.3318780">
<ele>271.709991</ele>
<time>2012-04-14T06:40:26.000Z</time>
</trkpt>
<trkpt lat="31.7071585" lon="35.3318317">
<ele>272.190002</ele>
<time>2012-04-14T06:40:41.000Z</time>
</trkpt>
<trkpt lat="31.7071590" lon="35.3318074">
<ele>271.709991</ele>
<time>2012-04-14T06:40:57.000Z</time>
</trkpt>
<trkpt lat="31.7071570" lon="35.3317904">
<ele>271.709991</ele>
<time>2012-04-14T06:41:15.000Z</time>
</trkpt>
<trkpt lat="31.7071497" lon="35.3317844">
<ele>272.190002</ele>
<time>2012-04-14T06:41:17.000Z</time>
</trkpt>
<trkpt lat="31.7070569" lon="35.3315619">
<ele>271.709991</ele>
<time>2012-04-14T06:41:26.000Z</time>
</trkpt>
<trkpt lat="31.7066838" lon="35.3315060">
<ele>268.829987</ele>
<time>2012-04-14T06:41:38.000Z</time>
</trkpt>
<trkpt lat="31.7065078" lon="35.3314885">
<ele>267.860016</ele>
<time>2012-04-14T06:41:44.000Z</time>
</trkpt>
<trkpt lat="31.7063420" lon="35.3313876">
<ele>266.420013</ele>
<time>2012-04-14T06:41:48.000Z</time>
</trkpt>
<trkpt lat="31.7063030" lon="35.3313508">
<ele>265.940002</ele>
<time>2012-04-14T06:41:49.000Z</time>
</trkpt>
<trkpt lat="31.7061963" lon="35.3312459">
<ele>265.940002</ele>
<time>2012-04-14T06:41:52.000Z</time>
</trkpt>
<trkpt lat="31.7061528" lon="35.3312206">
<ele>265.940002</ele>
<time>2012-04-14T06:41:53.000Z</time>
</trkpt>
<trkpt lat="31.7061093" lon="35.3311985">
<ele>265.940002</ele>
<time>2012-04-14T06:41:54.000Z</time>
</trkpt>
<trkpt lat="31.7059751" lon="35.3311352">
<ele>265.459991</ele>
<time>2012-04-14T06:41:57.000Z</time>
</trkpt>
<trkpt lat="31.7057068" lon="35.3310628">
<ele>264.500000</ele>
<time>2012-04-14T06:42:03.000Z</time>
</trkpt>
<trkpt lat="31.7053822" lon="35.3309116">
<ele>263.059998</ele>
<time>2012-04-14T06:42:14.000Z</time>
</trkpt>
<trkpt lat="31.7053870" lon="35.3308969">
<ele>263.059998</ele>
<time>2012-04-14T06:42:32.000Z</time>
</trkpt>
<trkpt lat="31.7053842" lon="35.3308847">
<ele>262.579987</ele>
<time>2012-04-14T06:42:44.000Z</time>
</trkpt>
<trkpt lat="31.7053770" lon="35.3308694">
<ele>262.579987</ele>
<time>2012-04-14T06:42:45.000Z</time>
</trkpt>
<trkpt lat="31.7053691" lon="35.3308499">
<ele>262.579987</ele>
<time>2012-04-14T06:42:46.000Z</time>
</trkpt>
<trkpt lat="31.7053585" lon="35.3308269">
<ele>263.059998</ele>
<time>2012-04-14T06:42:47.000Z</time>
</trkpt>
<trkpt lat="31.7053493" lon="35.3308056">
<ele>262.100006</ele>
<time>2012-04-14T06:42:48.000Z</time>
</trkpt>
<trkpt lat="31.7053408" lon="35.3307856">
<ele>262.579987</ele>
<time>2012-04-14T06:42:49.000Z</time>
</trkpt>
<trkpt lat="31.7053317" lon="35.3307646">
<ele>262.579987</ele>
<time>2012-04-14T06:42:50.000Z</time>
</trkpt>
<trkpt lat="31.7053216" lon="35.3307411">
<ele>262.579987</ele>
<time>2012-04-14T06:42:51.000Z</time>
</trkpt>
<trkpt lat="31.7053090" lon="35.3307140">
<ele>262.579987</ele>
<time>2012-04-14T06:42:52.000Z</time>
</trkpt>
<trkpt lat="31.7052992" lon="35.3306889">
<ele>262.100006</ele>
<time>2012-04-14T06:42:53.000Z</time>
</trkpt>
<trkpt lat="31.7052916" lon="35.3306628">
<ele>261.619995</ele>
<time>2012-04-14T06:42:54.000Z</time>
</trkpt>
<trkpt lat="31.7052807" lon="35.3305854">
<ele>261.619995</ele>
<time>2012-04-14T06:43:04.000Z</time>
</trkpt>
<trkpt lat="31.7052981" lon="35.3305946">
<ele>261.619995</ele>
<time>2012-04-14T06:43:23.000Z</time>
</trkpt>
<trkpt lat="31.7052908" lon="35.3305781">
<ele>261.619995</ele>
<time>2012-04-14T06:43:24.000Z</time>
</trkpt>
<trkpt lat="31.7052844" lon="35.3305457">
<ele>261.140015</ele>
<time>2012-04-14T06:43:25.000Z</time>
</trkpt>
<trkpt lat="31.7052611" lon="35.3303705">
<ele>259.690002</ele>
<time>2012-04-14T06:43:28.000Z</time>
</trkpt>
<trkpt lat="31.7052471" lon="35.3303223">
<ele>259.209991</ele>
<time>2012-04-14T06:43:29.000Z</time>
</trkpt>
<trkpt lat="31.7052281" lon="35.3302923">
<ele>259.209991</ele>
<time>2012-04-14T06:43:30.000Z</time>
</trkpt>
<trkpt lat="31.7052036" lon="35.3302817">
<ele>258.250000</ele>
<time>2012-04-14T06:43:31.000Z</time>
</trkpt>
<trkpt lat="31.7051788" lon="35.3302903">
<ele>258.250000</ele>
<time>2012-04-14T06:43:32.000Z</time>
</trkpt>
<trkpt lat="31.7051584" lon="35.3303132">
<ele>257.769989</ele>
<time>2012-04-14T06:43:33.000Z</time>
</trkpt>
<trkpt lat="31.7051427" lon="35.3303482">
<ele>256.809998</ele>
<time>2012-04-14T06:43:34.000Z</time>
</trkpt>
<trkpt lat="31.7051289" lon="35.3303961">
<ele>256.329987</ele>
<time>2012-04-14T06:43:35.000Z</time>
</trkpt>
<trkpt lat="31.7051155" lon="35.3304515">
<ele>255.369995</ele>
<time>2012-04-14T06:43:36.000Z</time>
</trkpt>
<trkpt lat="31.7050651" lon="35.3306513">
<ele>252.000000</ele>
<time>2012-04-14T06:43:39.000Z</time>
</trkpt>
<trkpt lat="31.7050092" lon="35.3308269">
<ele>248.160004</ele>
<time>2012-04-14T06:43:42.000Z</time>
</trkpt>
<trkpt lat="31.7049746" lon="35.3309053">
<ele>245.750000</ele>
<time>2012-04-14T06:43:44.000Z</time>
</trkpt>
<trkpt lat="31.7049206" lon="35.3308652">
<ele>245.269989</ele>
<time>2012-04-14T06:43:47.000Z</time>
</trkpt>
<trkpt lat="31.7049144" lon="35.3307906">
<ele>243.829987</ele>
<time>2012-04-14T06:43:57.000Z</time>
</trkpt>
<trkpt lat="31.7049201" lon="35.3307787">
<ele>243.829987</ele>
<time>2012-04-14T06:44:08.000Z</time>
</trkpt>
<trkpt lat="31.7048887" lon="35.3305948">
<ele>240.469986</ele>
<time>2012-04-14T06:44:16.000Z</time>
</trkpt>
<trkpt lat="31.7048363" lon="35.3307378">
<ele>238.540009</ele>
<time>2012-04-14T06:44:22.000Z</time>
</trkpt>
<trkpt lat="31.7048183" lon="35.3307624">
<ele>238.059998</ele>
<time>2012-04-14T06:44:34.000Z</time>
</trkpt>
<trkpt lat="31.7048028" lon="35.3307985">
<ele>237.579987</ele>
<time>2012-04-14T06:45:00.000Z</time>
</trkpt>
<trkpt lat="31.7047974" lon="35.3308831">
<ele>235.660004</ele>
<time>2012-04-14T06:45:20.000Z</time>
</trkpt>
<trkpt lat="31.7047982" lon="35.3309372">
<ele>235.660004</ele>
<time>2012-04-14T06:45:33.000Z</time>
</trkpt>
<trkpt lat="31.7047965" lon="35.3309615">
<ele>235.660004</ele>
<time>2012-04-14T06:45:49.000Z</time>
</trkpt>
<trkpt lat="31.7048031" lon="35.3309533">
<ele>235.180008</ele>
<time>2012-04-14T06:46:10.000Z</time>
</trkpt>
<trkpt lat="31.7047980" lon="35.3309442">
<ele>234.699997</ele>
<time>2012-04-14T06:46:32.000Z</time>
</trkpt>
<trkpt lat="31.7047962" lon="35.3309398">
<ele>234.699997</ele>
<time>2012-04-14T06:47:01.000Z</time>
</trkpt>
<trkpt lat="31.7047995" lon="35.3309226">
<ele>234.699997</ele>
<time>2012-04-14T06:47:32.000Z</time>
</trkpt>
<trkpt lat="31.7048032" lon="35.3309117">
<ele>234.219986</ele>
<time>2012-04-14T06:47:58.000Z</time>
</trkpt>
<trkpt lat="31.7048042" lon="35.3309048">
<ele>234.699997</ele>
<time>2012-04-14T06:48:23.000Z</time>
</trkpt>
<trkpt lat="31.7048067" lon="35.3309033">
<ele>234.219986</ele>
<time>2012-04-14T06:48:50.000Z</time>
</trkpt>
<trkpt lat="31.7048126" lon="35.3308948">
<ele>234.219986</ele>
<time>2012-04-14T06:49:17.000Z</time>
</trkpt>
<trkpt lat="31.7048101" lon="35.3309009">
<ele>234.219986</ele>
<time>2012-04-14T06:49:44.000Z</time>
</trkpt>
<trkpt lat="31.7048118" lon="35.3308956">
<ele>234.219986</ele>
<time>2012-04-14T06:50:12.000Z</time>
</trkpt>
<trkpt lat="31.7047990" lon="35.3309005">
<ele>234.699997</ele>
<time>2012-04-14T06:50:36.000Z</time>
</trkpt>
<trkpt lat="31.7047906" lon="35.3309078">
<ele>234.219986</ele>
<time>2012-04-14T06:51:06.000Z</time>
</trkpt>
<trkpt lat="31.7047916" lon="35.3309072">
<ele>234.699997</ele>
<time>2012-04-14T06:51:33.000Z</time>
</trkpt>
<trkpt lat="31.7047922" lon="35.3309024">
<ele>234.219986</ele>
<time>2012-04-14T06:51:58.000Z</time>
</trkpt>
<trkpt lat="31.7047893" lon="35.3308950">
<ele>234.219986</ele>
<time>2012-04-14T06:52:23.000Z</time>
</trkpt>
<trkpt lat="31.7047877" lon="35.3308948">
<ele>234.699997</ele>
<time>2012-04-14T06:52:51.000Z</time>
</trkpt>
<trkpt lat="31.7047900" lon="35.3308956">
<ele>234.699997</ele>
<time>2012-04-14T06:53:18.000Z</time>
</trkpt>
<trkpt lat="31.7047891" lon="35.3308890">
<ele>234.699997</ele>
<time>2012-04-14T06:53:44.000Z</time>
</trkpt>
<trkpt lat="31.7047839" lon="35.3308975">
<ele>234.699997</ele>
<time>2012-04-14T06:54:09.000Z</time>
</trkpt>
<trkpt lat="31.7047836" lon="35.3309037">
<ele>234.699997</ele>
<time>2012-04-14T06:54:38.000Z</time>
</trkpt>
<trkpt lat="31.7047827" lon="35.3309184">
<ele>234.699997</ele>
<time>2012-04-14T06:55:06.000Z</time>
</trkpt>
<trkpt lat="31.7047887" lon="35.3309157">
<ele>234.699997</ele>
<time>2012-04-14T06:55:32.000Z</time>
</trkpt>
<trkpt lat="31.7047852" lon="35.3308910">
<ele>234.699997</ele>
<time>2012-04-14T06:55:59.000Z</time>
</trkpt>
<trkpt lat="31.7047831" lon="35.3308837">
<ele>234.699997</ele>
<time>2012-04-14T06:56:26.000Z</time>
</trkpt>
<trkpt lat="31.7047803" lon="35.3308770">
<ele>234.699997</ele>
<time>2012-04-14T06:56:57.000Z</time>
</trkpt>
<trkpt lat="31.7047827" lon="35.3308742">
<ele>235.180008</ele>
<time>2012-04-14T06:57:27.000Z</time>
</trkpt>
<trkpt lat="31.7047898" lon="35.3308657">
<ele>235.180008</ele>
<time>2012-04-14T06:57:56.000Z</time>
</trkpt>
<trkpt lat="31.7047867" lon="35.3308719">
<ele>235.180008</ele>
<time>2012-04-14T06:58:25.000Z</time>
</trkpt>
<trkpt lat="31.7047924" lon="35.3308785">
<ele>234.699997</ele>
<time>2012-04-14T06:58:50.000Z</time>
</trkpt>
<trkpt lat="31.7047870" lon="35.3308862">
<ele>235.180008</ele>
<time>2012-04-14T06:59:21.000Z</time>
</trkpt>
<trkpt lat="31.7047824" lon="35.3308807">
<ele>235.180008</ele>
<time>2012-04-14T06:59:43.000Z</time>
</trkpt>
<trkpt lat="31.7047866" lon="35.3308779">
<ele>235.180008</ele>
<time>2012-04-14T07:00:10.000Z</time>
</trkpt>
<trkpt lat="31.7047840" lon="35.3308730">
<ele>235.180008</ele>
<time>2012-04-14T07:00:33.000Z</time>
</trkpt>
<trkpt lat="31.7047885" lon="35.3308815">
<ele>235.660004</ele>
<time>2012-04-14T07:00:57.000Z</time>
</trkpt>
<trkpt lat="31.7047911" lon="35.3308843">
<ele>235.180008</ele>
<time>2012-04-14T07:01:20.000Z</time>
</trkpt>
<trkpt lat="31.7047908" lon="35.3308928">
<ele>235.660004</ele>
<time>2012-04-14T07:01:49.000Z</time>
</trkpt>
<trkpt lat="31.7047925" lon="35.3308980">
<ele>235.660004</ele>
<time>2012-04-14T07:02:15.000Z</time>
</trkpt>
<trkpt lat="31.7047909" lon="35.3308918">
<ele>236.139999</ele>
<time>2012-04-14T07:02:42.000Z</time>
</trkpt>
<trkpt lat="31.7047882" lon="35.3308897">
<ele>236.139999</ele>
<time>2012-04-14T07:03:09.000Z</time>
</trkpt>
<trkpt lat="31.7047911" lon="35.3308921">
<ele>236.139999</ele>
<time>2012-04-14T07:03:38.000Z</time>
</trkpt>
<trkpt lat="31.7047734" lon="35.3308883">
<ele>236.619995</ele>
<time>2012-04-14T07:04:07.000Z</time>
</trkpt>
<trkpt lat="31.7047751" lon="35.3308850">
<ele>236.619995</ele>
<time>2012-04-14T07:04:32.000Z</time>
</trkpt>
<trkpt lat="31.7047801" lon="35.3308867">
<ele>236.619995</ele>
<time>2012-04-14T07:04:56.000Z</time>
</trkpt>
<trkpt lat="31.7047819" lon="35.3308809">
<ele>237.100006</ele>
<time>2012-04-14T07:05:24.000Z</time>
</trkpt>
<trkpt lat="31.7047861" lon="35.3308839">
<ele>237.100006</ele>
<time>2012-04-14T07:05:48.000Z</time>
</trkpt>
<trkpt lat="31.7047880" lon="35.3308828">
<ele>237.579987</ele>
<time>2012-04-14T07:06:14.000Z</time>
</trkpt>
<trkpt lat="31.7047885" lon="35.3308802">
<ele>237.579987</ele>
<time>2012-04-14T07:06:43.000Z</time>
</trkpt>
<trkpt lat="31.7047890" lon="35.3308877">
<ele>237.579987</ele>
<time>2012-04-14T07:07:10.000Z</time>
</trkpt>
<trkpt lat="31.7047894" lon="35.3308856">
<ele>237.579987</ele>
<time>2012-04-14T07:07:37.000Z</time>
</trkpt>
<trkpt lat="31.7047886" lon="35.3308890">
<ele>237.579987</ele>
<time>2012-04-14T07:08:01.000Z</time>
</trkpt>
<trkpt lat="31.7047886" lon="35.3308759">
<ele>238.059998</ele>
<time>2012-04-14T07:08:26.000Z</time>
</trkpt>
<trkpt lat="31.7047798" lon="35.3308847">
<ele>237.579987</ele>
<time>2012-04-14T07:08:50.000Z</time>
</trkpt>
<trkpt lat="31.7047788" lon="35.3308851">
<ele>237.579987</ele>
<time>2012-04-14T07:09:13.000Z</time>
</trkpt>
<trkpt lat="31.7047869" lon="35.3308714">
<ele>237.579987</ele>
<time>2012-04-14T07:09:36.000Z</time>
</trkpt>
<trkpt lat="31.7047975" lon="35.3308106">
<ele>238.540009</ele>
<time>2012-04-14T07:09:49.000Z</time>
</trkpt>
<trkpt lat="31.7048018" lon="35.3308068">
<ele>238.540009</ele>
<time>2012-04-14T07:09:59.000Z</time>
</trkpt>
<trkpt lat="31.7047973" lon="35.3307531">
<ele>239.019989</ele>
<time>2012-04-14T07:10:03.000Z</time>
</trkpt>
<trkpt lat="31.7048221" lon="35.3306997">
<ele>240.949997</ele>
<time>2012-04-14T07:10:08.000Z</time>
</trkpt>
<trkpt lat="31.7049039" lon="35.3305697">
<ele>242.869995</ele>
<time>2012-04-14T07:10:19.000Z</time>
</trkpt>
<trkpt lat="31.7048310" lon="35.3304473">
<ele>242.869995</ele>
<time>2012-04-14T07:10:27.000Z</time>
</trkpt>
<trkpt lat="31.7048078" lon="35.3304157">
<ele>243.350006</ele>
<time>2012-04-14T07:10:30.000Z</time>
</trkpt>
<trkpt lat="31.7047995" lon="35.3304504">
<ele>243.350006</ele>
<time>2012-04-14T07:10:43.000Z</time>
</trkpt>
<trkpt lat="31.7048040" lon="35.3304636">
<ele>243.350006</ele>
<time>2012-04-14T07:11:04.000Z</time>
</trkpt>
<trkpt lat="31.7047855" lon="35.3304849">
<ele>243.350006</ele>
<time>2012-04-14T07:11:25.000Z</time>
</trkpt>
<trkpt lat="31.7047310" lon="35.3305327">
<ele>244.309998</ele>
<time>2012-04-14T07:11:40.000Z</time>
</trkpt>
<trkpt lat="31.7047274" lon="35.3305360">
<ele>244.309998</ele>
<time>2012-04-14T07:12:05.000Z</time>
</trkpt>
<trkpt lat="31.7046859" lon="35.3306290">
<ele>244.309998</ele>
<time>2012-04-14T07:12:20.000Z</time>
</trkpt>
<trkpt lat="31.7046716" lon="35.3306349">
<ele>244.309998</ele>
<time>2012-04-14T07:12:50.000Z</time>
</trkpt>
<trkpt lat="31.7046689" lon="35.3306430">
<ele>244.309998</ele>
<time>2012-04-14T07:13:11.000Z</time>
</trkpt>
<trkpt lat="31.7045745" lon="35.3307617">
<ele>245.269989</ele>
<time>2012-04-14T07:13:26.000Z</time>
</trkpt>
<trkpt lat="31.7045032" lon="35.3308944">
<ele>247.680008</ele>
<time>2012-04-14T07:13:44.000Z</time>
</trkpt>
<trkpt lat="31.7044996" lon="35.3308913">
<ele>248.160004</ele>
<time>2012-04-14T07:14:14.000Z</time>
</trkpt>
<trkpt lat="31.7044137" lon="35.3309930">
<ele>249.600006</ele>
<time>2012-04-14T07:14:28.000Z</time>
</trkpt>
<trkpt lat="31.7044058" lon="35.3310016">
<ele>249.600006</ele>
<time>2012-04-14T07:14:29.000Z</time>
</trkpt>
<trkpt lat="31.7042605" lon="35.3311325">
<ele>249.600006</ele>
<time>2012-04-14T07:14:46.000Z</time>
</trkpt>
<trkpt lat="31.7042296" lon="35.3311379">
<ele>248.160004</ele>
<time>2012-04-14T07:14:57.000Z</time>
</trkpt>
<trkpt lat="31.7042307" lon="35.3311304">
<ele>248.639999</ele>
<time>2012-04-14T07:15:24.000Z</time>
</trkpt>
<trkpt lat="31.7042311" lon="35.3311283">
<ele>248.160004</ele>
<time>2012-04-14T07:15:44.000Z</time>
</trkpt>
<trkpt lat="31.7042156" lon="35.3311196">
<ele>248.639999</ele>
<time>2012-04-14T07:15:52.000Z</time>
</trkpt>
<trkpt lat="31.7041696" lon="35.3310543">
<ele>247.680008</ele>
<time>2012-04-14T07:16:07.000Z</time>
</trkpt>
<trkpt lat="31.7041353" lon="35.3310379">
<ele>245.750000</ele>
<time>2012-04-14T07:16:20.000Z</time>
</trkpt>
<trkpt lat="31.7041528" lon="35.3311242">
<ele>243.350006</ele>
<time>2012-04-14T07:16:34.000Z</time>
</trkpt>
<trkpt lat="31.7041730" lon="35.3312236">
<ele>241.910004</ele>
<time>2012-04-14T07:16:49.000Z</time>
</trkpt>
<trkpt lat="31.7041234" lon="35.3312355">
<ele>239.509995</ele>
<time>2012-04-14T07:17:01.000Z</time>
</trkpt>
<trkpt lat="31.7040936" lon="35.3312120">
<ele>239.019989</ele>
<time>2012-04-14T07:17:12.000Z</time>
</trkpt>
<trkpt lat="31.7040969" lon="35.3312079">
<ele>239.019989</ele>
<time>2012-04-14T07:17:37.000Z</time>
</trkpt>
<trkpt lat="31.7040799" lon="35.3311719">
<ele>238.059998</ele>
<time>2012-04-14T07:17:45.000Z</time>
</trkpt>
<trkpt lat="31.7040649" lon="35.3311502">
<ele>237.579987</ele>
<time>2012-04-14T07:17:47.000Z</time>
</trkpt>
<trkpt lat="31.7040188" lon="35.3310978">
<ele>235.180008</ele>
<time>2012-04-14T07:17:57.000Z</time>
</trkpt>
<trkpt lat="31.7039740" lon="35.3311464">
<ele>232.300003</ele>
<time>2012-04-14T07:18:10.000Z</time>
</trkpt>
<trkpt lat="31.7039376" lon="35.3311837">
<ele>230.850006</ele>
<time>2012-04-14T07:18:26.000Z</time>
</trkpt>
<trkpt lat="31.7039303" lon="35.3311856">
<ele>230.369995</ele>
<time>2012-04-14T07:18:46.000Z</time>
</trkpt>
<trkpt lat="31.7039262" lon="35.3311978">
<ele>230.850006</ele>
<time>2012-04-14T07:18:48.000Z</time>
</trkpt>
<trkpt lat="31.7038840" lon="35.3312061">
<ele>229.410004</ele>
<time>2012-04-14T07:18:53.000Z</time>
</trkpt>
<trkpt lat="31.7038100" lon="35.3311769">
<ele>227.490005</ele>
<time>2012-04-14T07:19:04.000Z</time>
</trkpt>
<trkpt lat="31.7037601" lon="35.3311577">
<ele>225.570007</ele>
<time>2012-04-14T07:19:13.000Z</time>
</trkpt>
<trkpt lat="31.7037616" lon="35.3311744">
<ele>223.639999</ele>
<time>2012-04-14T07:19:24.000Z</time>
</trkpt>
<trkpt lat="31.7037564" lon="35.3313161">
<ele>220.759995</ele>
<time>2012-04-14T07:19:35.000Z</time>
</trkpt>
<trkpt lat="31.7037602" lon="35.3313620">
<ele>220.279999</ele>
<time>2012-04-14T07:19:40.000Z</time>
</trkpt>
<trkpt lat="31.7038347" lon="35.3313913">
<ele>217.880005</ele>
<time>2012-04-14T07:19:53.000Z</time>
</trkpt>
<trkpt lat="31.7038756" lon="35.3313971">
<ele>217.399994</ele>
<time>2012-04-14T07:19:58.000Z</time>
</trkpt>
<trkpt lat="31.7039256" lon="35.3314000">
<ele>215.949997</ele>
<time>2012-04-14T07:20:12.000Z</time>
</trkpt>
<trkpt lat="31.7039629" lon="35.3314285">
<ele>215.949997</ele>
<time>2012-04-14T07:20:35.000Z</time>
</trkpt>
<trkpt lat="31.7039922" lon="35.3314546">
<ele>214.509995</ele>
<time>2012-04-14T07:20:40.000Z</time>
</trkpt>
<trkpt lat="31.7040172" lon="35.3314519">
<ele>214.509995</ele>
<time>2012-04-14T07:20:44.000Z</time>
</trkpt>
<trkpt lat="31.7040501" lon="35.3314734">
<ele>213.070007</ele>
<time>2012-04-14T07:20:54.000Z</time>
</trkpt>
<trkpt lat="31.7040450" lon="35.3314773">
<ele>212.109985</ele>
<time>2012-04-14T07:20:59.000Z</time>
</trkpt>
<trkpt lat="31.7040227" lon="35.3315130">
<ele>209.699997</ele>
<time>2012-04-14T07:21:10.000Z</time>
</trkpt>
<trkpt lat="31.7040523" lon="35.3315254">
<ele>208.740005</ele>
<time>2012-04-14T07:21:13.000Z</time>
</trkpt>
<trkpt lat="31.7040759" lon="35.3315422">
<ele>208.259995</ele>
<time>2012-04-14T07:21:16.000Z</time>
</trkpt>
<trkpt lat="31.7041654" lon="35.3315656">
<ele>207.779999</ele>
<time>2012-04-14T07:21:31.000Z</time>
</trkpt>
<trkpt lat="31.7041660" lon="35.3315731">
<ele>207.779999</ele>
<time>2012-04-14T07:21:56.000Z</time>
</trkpt>
<trkpt lat="31.7041710" lon="35.3315682">
<ele>207.300003</ele>
<time>2012-04-14T07:21:59.000Z</time>
</trkpt>
<trkpt lat="31.7041850" lon="35.3315785">
<ele>207.300003</ele>
<time>2012-04-14T07:22:13.000Z</time>
</trkpt>
<trkpt lat="31.7041799" lon="35.3315654">
<ele>206.820007</ele>
<time>2012-04-14T07:22:37.000Z</time>
</trkpt>
<trkpt lat="31.7041792" lon="35.3315656">
<ele>206.820007</ele>
<time>2012-04-14T07:22:39.000Z</time>
</trkpt>
<trkpt lat="31.7041701" lon="35.3315723">
<ele>206.820007</ele>
<time>2012-04-14T07:22:44.000Z</time>
</trkpt>
<trkpt lat="31.7041101" lon="35.3315923">
<ele>202.979996</ele>
<time>2012-04-14T07:22:55.000Z</time>
</trkpt>
<trkpt lat="31.7041344" lon="35.3316203">
<ele>200.570007</ele>
<time>2012-04-14T07:23:06.000Z</time>
</trkpt>
<trkpt lat="31.7041550" lon="35.3316283">
<ele>198.170013</ele>
<time>2012-04-14T07:23:18.000Z</time>
</trkpt>
<trkpt lat="31.7041877" lon="35.3316298">
<ele>195.279999</ele>
<time>2012-04-14T07:23:30.000Z</time>
</trkpt>
<trkpt lat="31.7042943" lon="35.3316291">
<ele>192.880005</ele>
<time>2012-04-14T07:23:43.000Z</time>
</trkpt>
<trkpt lat="31.7043041" lon="35.3316518">
<ele>191.920013</ele>
<time>2012-04-14T07:24:00.000Z</time>
</trkpt>
<trkpt lat="31.7043129" lon="35.3316589">
<ele>191.440002</ele>
<time>2012-04-14T07:24:19.000Z</time>
</trkpt>
<trkpt lat="31.7043176" lon="35.3318287">
<ele>190.000000</ele>
<time>2012-04-14T07:24:30.000Z</time>
</trkpt>
<trkpt lat="31.7042648" lon="35.3318515">
<ele>188.080002</ele>
<time>2012-04-14T07:24:39.000Z</time>
</trkpt>
<trkpt lat="31.7042362" lon="35.3318854">
<ele>186.630005</ele>
<time>2012-04-14T07:24:50.000Z</time>
</trkpt>
<trkpt lat="31.7042216" lon="35.3319274">
<ele>186.630005</ele>
<time>2012-04-14T07:25:23.000Z</time>
</trkpt>
<trkpt lat="31.7042228" lon="35.3319279">
<ele>186.630005</ele>
<time>2012-04-14T07:25:56.000Z</time>
</trkpt>
<trkpt lat="31.7042270" lon="35.3319144">
<ele>187.109985</ele>
<time>2012-04-14T07:26:25.000Z</time>
</trkpt>
<trkpt lat="31.7042279" lon="35.3319251">
<ele>187.109985</ele>
<time>2012-04-14T07:26:28.000Z</time>
</trkpt>
<trkpt lat="31.7042165" lon="35.3319730">
<ele>187.109985</ele>
<time>2012-04-14T07:26:38.000Z</time>
</trkpt>
<trkpt lat="31.7042161" lon="35.3320141">
<ele>189.520004</ele>
<time>2012-04-14T07:26:49.000Z</time>
</trkpt>
<trkpt lat="31.7042624" lon="35.3320763">
<ele>191.920013</ele>
<time>2012-04-14T07:27:01.000Z</time>
</trkpt>
<trkpt lat="31.7043051" lon="35.3321617">
<ele>194.320007</ele>
<time>2012-04-14T07:27:14.000Z</time>
</trkpt>
<trkpt lat="31.7042837" lon="35.3322107">
<ele>196.729996</ele>
<time>2012-04-14T07:27:28.000Z</time>
</trkpt>
<trkpt lat="31.7042928" lon="35.3322066">
<ele>196.729996</ele>
<time>2012-04-14T07:27:43.000Z</time>
</trkpt>
<trkpt lat="31.7042571" lon="35.3322130">
<ele>198.170013</ele>
<time>2012-04-14T07:28:00.000Z</time>
</trkpt>
<trkpt lat="31.7042519" lon="35.3322188">
<ele>198.649994</ele>
<time>2012-04-14T07:28:13.000Z</time>
</trkpt>
<trkpt lat="31.7042095" lon="35.3322341">
<ele>200.570007</ele>
<time>2012-04-14T07:28:24.000Z</time>
</trkpt>
<trkpt lat="31.7042020" lon="35.3322383">
<ele>202.009995</ele>
<time>2012-04-14T07:28:37.000Z</time>
</trkpt>
<trkpt lat="31.7041562" lon="35.3322573">
<ele>204.420013</ele>
<time>2012-04-14T07:28:50.000Z</time>
</trkpt>
<trkpt lat="31.7041233" lon="35.3322467">
<ele>205.380005</ele>
<time>2012-04-14T07:29:05.000Z</time>
</trkpt>
<trkpt lat="31.7041221" lon="35.3322422">
<ele>204.899994</ele>
<time>2012-04-14T07:29:19.000Z</time>
</trkpt>
<trkpt lat="31.7041193" lon="35.3322370">
<ele>205.380005</ele>
<time>2012-04-14T07:29:49.000Z</time>
</trkpt>
<trkpt lat="31.7040502" lon="35.3322327">
<ele>206.339996</ele>
<time>2012-04-14T07:30:07.000Z</time>
</trkpt>
<trkpt lat="31.7040292" lon="35.3322279">
<ele>206.339996</ele>
<time>2012-04-14T07:30:09.000Z</time>
</trkpt>
<trkpt lat="31.7040046" lon="35.3322282">
<ele>206.820007</ele>
<time>2012-04-14T07:30:25.000Z</time>
</trkpt>
<trkpt lat="31.7039758" lon="35.3322400">
<ele>206.820007</ele>
<time>2012-04-14T07:30:40.000Z</time>
</trkpt>
<trkpt lat="31.7039348" lon="35.3322247">
<ele>207.779999</ele>
<time>2012-04-14T07:30:52.000Z</time>
</trkpt>
<trkpt lat="31.7038831" lon="35.3322194">
<ele>207.779999</ele>
<time>2012-04-14T07:30:59.000Z</time>
</trkpt>
<trkpt lat="31.7038328" lon="35.3322209">
<ele>208.259995</ele>
<time>2012-04-14T07:31:12.000Z</time>
</trkpt>
<trkpt lat="31.7038184" lon="35.3322199">
<ele>208.259995</ele>
<time>2012-04-14T07:31:27.000Z</time>
</trkpt>
<trkpt lat="31.7037773" lon="35.3322100">
<ele>209.699997</ele>
<time>2012-04-14T07:31:40.000Z</time>
</trkpt>
<trkpt lat="31.7037282" lon="35.3322203">
<ele>211.149994</ele>
<time>2012-04-14T07:31:52.000Z</time>
</trkpt>
<trkpt lat="31.7036387" lon="35.3322336">
<ele>211.630005</ele>
<time>2012-04-14T07:32:11.000Z</time>
</trkpt>
<trkpt lat="31.7035972" lon="35.3321934">
<ele>212.589996</ele>
<time>2012-04-14T07:32:33.000Z</time>
</trkpt>
<trkpt lat="31.7035639" lon="35.3321773">
<ele>213.550003</ele>
<time>2012-04-14T07:32:46.000Z</time>
</trkpt>
<trkpt lat="31.7035370" lon="35.3321824">
<ele>214.509995</ele>
<time>2012-04-14T07:32:59.000Z</time>
</trkpt>
<trkpt lat="31.7035127" lon="35.3321896">
<ele>214.990005</ele>
<time>2012-04-14T07:33:13.000Z</time>
</trkpt>
<trkpt lat="31.7034744" lon="35.3322216">
<ele>215.949997</ele>
<time>2012-04-14T07:33:23.000Z</time>
</trkpt>
<trkpt lat="31.7034434" lon="35.3322504">
<ele>217.399994</ele>
<time>2012-04-14T07:33:34.000Z</time>
</trkpt>
<trkpt lat="31.7034228" lon="35.3322504">
<ele>217.880005</ele>
<time>2012-04-14T07:33:47.000Z</time>
</trkpt>
<trkpt lat="31.7034149" lon="35.3322716">
<ele>218.839996</ele>
<time>2012-04-14T07:34:00.000Z</time>
</trkpt>
<trkpt lat="31.7034216" lon="35.3323167">
<ele>220.279999</ele>
<time>2012-04-14T07:34:11.000Z</time>
</trkpt>
<trkpt lat="31.7033975" lon="35.3323072">
<ele>221.240005</ele>
<time>2012-04-14T07:34:22.000Z</time>
</trkpt>
<trkpt lat="31.7033805" lon="35.3323260">
<ele>222.199997</ele>
<time>2012-04-14T07:34:33.000Z</time>
</trkpt>
<trkpt lat="31.7033466" lon="35.3323302">
<ele>223.160004</ele>
<time>2012-04-14T07:34:44.000Z</time>
</trkpt>
<trkpt lat="31.7032972" lon="35.3323187">
<ele>224.609985</ele>
<time>2012-04-14T07:34:59.000Z</time>
</trkpt>
<trkpt lat="31.7032668" lon="35.3323423">
<ele>225.570007</ele>
<time>2012-04-14T07:35:11.000Z</time>
</trkpt>
<trkpt lat="31.7032571" lon="35.3323756">
<ele>226.529999</ele>
<time>2012-04-14T07:35:23.000Z</time>
</trkpt>
<trkpt lat="31.7032509" lon="35.3323978">
<ele>226.050003</ele>
<time>2012-04-14T07:35:35.000Z</time>
</trkpt>
<trkpt lat="31.7032544" lon="35.3324027">
<ele>226.050003</ele>
<time>2012-04-14T07:35:54.000Z</time>
</trkpt>
<trkpt lat="31.7032599" lon="35.3324087">
<ele>226.529999</ele>
<time>2012-04-14T07:36:13.000Z</time>
</trkpt>
<trkpt lat="31.7032747" lon="35.3324575">
<ele>228.930008</ele>
<time>2012-04-14T07:36:26.000Z</time>
</trkpt>
<trkpt lat="31.7032638" lon="35.3324660">
<ele>229.889999</ele>
<time>2012-04-14T07:36:36.000Z</time>
</trkpt>
<trkpt lat="31.7032414" lon="35.3324936">
<ele>230.850006</ele>
<time>2012-04-14T07:36:49.000Z</time>
</trkpt>
<trkpt lat="31.7032114" lon="35.3325111">
<ele>233.259995</ele>
<time>2012-04-14T07:37:00.000Z</time>
</trkpt>
<trkpt lat="31.7032027" lon="35.3325211">
<ele>233.259995</ele>
<time>2012-04-14T07:37:06.000Z</time>
</trkpt>
<trkpt lat="31.7031804" lon="35.3325375">
<ele>234.699997</ele>
<time>2012-04-14T07:37:16.000Z</time>
</trkpt>
<trkpt lat="31.7031535" lon="35.3325462">
<ele>235.660004</ele>
<time>2012-04-14T07:37:29.000Z</time>
</trkpt>
<trkpt lat="31.7031024" lon="35.3325769">
<ele>237.579987</ele>
<time>2012-04-14T07:37:41.000Z</time>
</trkpt>
<trkpt lat="31.7030985" lon="35.3325780">
<ele>237.579987</ele>
<time>2012-04-14T07:37:52.000Z</time>
</trkpt>
<trkpt lat="31.7030655" lon="35.3326203">
<ele>239.019989</ele>
<time>2012-04-14T07:38:07.000Z</time>
</trkpt>
<trkpt lat="31.7030436" lon="35.3326342">
<ele>239.990005</ele>
<time>2012-04-14T07:38:18.000Z</time>
</trkpt>
<trkpt lat="31.7029885" lon="35.3326407">
<ele>242.389999</ele>
<time>2012-04-14T07:38:31.000Z</time>
</trkpt>
<trkpt lat="31.7029659" lon="35.3326637">
<ele>242.869995</ele>
<time>2012-04-14T07:38:43.000Z</time>
</trkpt>
<trkpt lat="31.7029520" lon="35.3326960">
<ele>244.309998</ele>
<time>2012-04-14T07:38:55.000Z</time>
</trkpt>
<trkpt lat="31.7029484" lon="35.3327105">
<ele>245.269989</ele>
<time>2012-04-14T07:39:10.000Z</time>
</trkpt>
<trkpt lat="31.7029464" lon="35.3327036">
<ele>243.350006</ele>
<time>2012-04-14T07:39:50.000Z</time>
</trkpt>
<trkpt lat="31.7029561" lon="35.3327026">
<ele>244.790009</ele>
<time>2012-04-14T07:40:30.000Z</time>
</trkpt>
<trkpt lat="31.7029215" lon="35.3327802">
<ele>244.309998</ele>
<time>2012-04-14T07:40:55.000Z</time>
</trkpt>
<trkpt lat="31.7029562" lon="35.3329148">
<ele>246.229996</ele>
<time>2012-04-14T07:41:10.000Z</time>
</trkpt>
<trkpt lat="31.7029738" lon="35.3329323">
<ele>246.229996</ele>
<time>2012-04-14T07:41:14.000Z</time>
</trkpt>
<trkpt lat="31.7031171" lon="35.3329731">
<ele>248.160004</ele>
<time>2012-04-14T07:41:30.000Z</time>
</trkpt>
<trkpt lat="31.7031405" lon="35.3329918">
<ele>248.160004</ele>
<time>2012-04-14T07:41:43.000Z</time>
</trkpt>
<trkpt lat="31.7031636" lon="35.3329934">
<ele>248.639999</ele>
<time>2012-04-14T07:41:45.000Z</time>
</trkpt>
<trkpt lat="31.7033013" lon="35.3330372">
<ele>249.119995</ele>
<time>2012-04-14T07:41:56.000Z</time>
</trkpt>
<trkpt lat="31.7033181" lon="35.3330379">
<ele>248.639999</ele>
<time>2012-04-14T07:41:57.000Z</time>
</trkpt>
<trkpt lat="31.7034677" lon="35.3330673">
<ele>250.079987</ele>
<time>2012-04-14T07:42:09.000Z</time>
</trkpt>
<trkpt lat="31.7035353" lon="35.3330882">
<ele>252.000000</ele>
<time>2012-04-14T07:42:19.000Z</time>
</trkpt>
<trkpt lat="31.7036082" lon="35.3331600">
<ele>253.439987</ele>
<time>2012-04-14T07:42:33.000Z</time>
</trkpt>
<trkpt lat="31.7036539" lon="35.3332416">
<ele>254.889999</ele>
<time>2012-04-14T07:42:45.000Z</time>
</trkpt>
<trkpt lat="31.7037193" lon="35.3333471">
<ele>256.809998</ele>
<time>2012-04-14T07:43:00.000Z</time>
</trkpt>
<trkpt lat="31.7037598" lon="35.3334019">
<ele>258.250000</ele>
<time>2012-04-14T07:43:15.000Z</time>
</trkpt>
<trkpt lat="31.7038285" lon="35.3334760">
<ele>260.170013</ele>
<time>2012-04-14T07:43:29.000Z</time>
</trkpt>
<trkpt lat="31.7038926" lon="35.3335483">
<ele>262.100006</ele>
<time>2012-04-14T07:43:44.000Z</time>
</trkpt>
<trkpt lat="31.7039677" lon="35.3336175">
<ele>264.019989</ele>
<time>2012-04-14T07:44:01.000Z</time>
</trkpt>
<trkpt lat="31.7040706" lon="35.3336488">
<ele>265.459991</ele>
<time>2012-04-14T07:44:14.000Z</time>
</trkpt>
<trkpt lat="31.7040695" lon="35.3336501">
<ele>265.459991</ele>
<time>2012-04-14T07:44:17.000Z</time>
</trkpt>
<trkpt lat="31.7041328" lon="35.3336177">
<ele>266.899994</ele>
<time>2012-04-14T07:44:29.000Z</time>
</trkpt>
<trkpt lat="31.7042404" lon="35.3336091">
<ele>267.860016</ele>
<time>2012-04-14T07:44:42.000Z</time>
</trkpt>
<trkpt lat="31.7043642" lon="35.3335694">
<ele>268.350006</ele>
<time>2012-04-14T07:44:57.000Z</time>
</trkpt>
<trkpt lat="31.7043603" lon="35.3335619">
<ele>267.860016</ele>
<time>2012-04-14T07:45:21.000Z</time>
</trkpt>
<trkpt lat="31.7043866" lon="35.3335576">
<ele>268.350006</ele>
<time>2012-04-14T07:45:34.000Z</time>
</trkpt>
<trkpt lat="31.7044151" lon="35.3335258">
<ele>267.860016</ele>
<time>2012-04-14T07:45:38.000Z</time>
</trkpt>
<trkpt lat="31.7045318" lon="35.3334134">
<ele>269.309998</ele>
<time>2012-04-14T07:45:54.000Z</time>
</trkpt>
<trkpt lat="31.7045410" lon="35.3333979">
<ele>269.309998</ele>
<time>2012-04-14T07:45:56.000Z</time>
</trkpt>
<trkpt lat="31.7045560" lon="35.3333769">
<ele>268.829987</ele>
<time>2012-04-14T07:46:11.000Z</time>
</trkpt>
<trkpt lat="31.7045796" lon="35.3333810">
<ele>268.829987</ele>
<time>2012-04-14T07:46:37.000Z</time>
</trkpt>
<trkpt lat="31.7045878" lon="35.3333798">
<ele>268.829987</ele>
<time>2012-04-14T07:47:10.000Z</time>
</trkpt>
<trkpt lat="31.7046016" lon="35.3333811">
<ele>268.829987</ele>
<time>2012-04-14T07:47:41.000Z</time>
</trkpt>
<trkpt lat="31.7046031" lon="35.3333736">
<ele>269.309998</ele>
<time>2012-04-14T07:48:02.000Z</time>
</trkpt>
<trkpt lat="31.7046148" lon="35.3333703">
<ele>268.829987</ele>
<time>2012-04-14T07:48:34.000Z</time>
</trkpt>
<trkpt lat="31.7046075" lon="35.3333601">
<ele>269.309998</ele>
<time>2012-04-14T07:49:01.000Z</time>
</trkpt>
<trkpt lat="31.7046026" lon="35.3333643">
<ele>269.309998</ele>
<time>2012-04-14T07:49:33.000Z</time>
</trkpt>
<trkpt lat="31.7046074" lon="35.3333676">
<ele>269.790009</ele>
<time>2012-04-14T07:50:04.000Z</time>
</trkpt>
<trkpt lat="31.7046211" lon="35.3333762">
<ele>269.309998</ele>
<time>2012-04-14T07:50:34.000Z</time>
</trkpt>
<trkpt lat="31.7046144" lon="35.3333650">
<ele>269.790009</ele>
<time>2012-04-14T07:51:02.000Z</time>
</trkpt>
<trkpt lat="31.7046082" lon="35.3333615">
<ele>269.309998</ele>
<time>2012-04-14T07:51:28.000Z</time>
</trkpt>
<trkpt lat="31.7046080" lon="35.3333706">
<ele>270.269989</ele>
<time>2012-04-14T07:51:40.000Z</time>
</trkpt>
<trkpt lat="31.7046378" lon="35.3333911">
<ele>270.269989</ele>
<time>2012-04-14T07:51:53.000Z</time>
</trkpt>
<trkpt lat="31.7046518" lon="35.3333975">
<ele>270.750000</ele>
<time>2012-04-14T07:51:59.000Z</time>
</trkpt>
<trkpt lat="31.7047084" lon="35.3333777">
<ele>270.269989</ele>
<time>2012-04-14T07:52:05.000Z</time>
</trkpt>
<trkpt lat="31.7049615" lon="35.3333546">
<ele>267.860016</ele>
<time>2012-04-14T07:52:15.000Z</time>
</trkpt>
<trkpt lat="31.7051788" lon="35.3333152">
<ele>267.860016</ele>
<time>2012-04-14T07:52:27.000Z</time>
</trkpt>
<trkpt lat="31.7053841" lon="35.3333118">
<ele>269.790009</ele>
<time>2012-04-14T07:52:41.000Z</time>
</trkpt>
<trkpt lat="31.7056079" lon="35.3333605">
<ele>269.309998</ele>
<time>2012-04-14T07:52:52.000Z</time>
</trkpt>
<trkpt lat="31.7058259" lon="35.3334595">
<ele>269.790009</ele>
<time>2012-04-14T07:53:05.000Z</time>
</trkpt>
<trkpt lat="31.7059957" lon="35.3335609">
<ele>272.670013</ele>
<time>2012-04-14T07:53:18.000Z</time>
</trkpt>
<trkpt lat="31.7061198" lon="35.3336699">
<ele>273.149994</ele>
<time>2012-04-14T07:53:30.000Z</time>
</trkpt>
<trkpt lat="31.7061764" lon="35.3336953">
<ele>274.589996</ele>
<time>2012-04-14T07:53:35.000Z</time>
</trkpt>
<trkpt lat="31.7062899" lon="35.3337070">
<ele>276.040009</ele>
<time>2012-04-14T07:53:44.000Z</time>
</trkpt>
<trkpt lat="31.7063215" lon="35.3337169">
<ele>276.519989</ele>
<time>2012-04-14T07:53:47.000Z</time>
</trkpt>
<trkpt lat="31.7064212" lon="35.3337592">
<ele>277.479980</ele>
<time>2012-04-14T07:53:57.000Z</time>
</trkpt>
<trkpt lat="31.7065248" lon="35.3338819">
<ele>278.920013</ele>
<time>2012-04-14T07:54:11.000Z</time>
</trkpt>
<trkpt lat="31.7065255" lon="35.3338903">
<ele>279.399994</ele>
<time>2012-04-14T07:54:22.000Z</time>
</trkpt>
<trkpt lat="31.7065590" lon="35.3339661">
<ele>280.839996</ele>
<time>2012-04-14T07:54:36.000Z</time>
</trkpt>
<trkpt lat="31.7065653" lon="35.3340211">
<ele>281.800018</ele>
<time>2012-04-14T07:54:46.000Z</time>
</trkpt>
<trkpt lat="31.7066150" lon="35.3341141">
<ele>283.250000</ele>
<time>2012-04-14T07:54:59.000Z</time>
</trkpt>
<trkpt lat="31.7066573" lon="35.3342099">
<ele>285.649994</ele>
<time>2012-04-14T07:55:12.000Z</time>
</trkpt>
<trkpt lat="31.7066908" lon="35.3342766">
<ele>286.610016</ele>
<time>2012-04-14T07:55:26.000Z</time>
</trkpt>
<trkpt lat="31.7067456" lon="35.3343842">
<ele>288.529999</ele>
<time>2012-04-14T07:55:41.000Z</time>
</trkpt>
<trkpt lat="31.7067794" lon="35.3344579">
<ele>289.970001</ele>
<time>2012-04-14T07:55:53.000Z</time>
</trkpt>
<trkpt lat="31.7068318" lon="35.3345236">
<ele>291.419983</ele>
<time>2012-04-14T07:56:06.000Z</time>
</trkpt>
<trkpt lat="31.7068289" lon="35.3345548">
<ele>291.899994</ele>
<time>2012-04-14T07:56:09.000Z</time>
</trkpt>
<trkpt lat="31.7068257" lon="35.3345964">
<ele>292.380005</ele>
<time>2012-04-14T07:56:13.000Z</time>
</trkpt>
<trkpt lat="31.7068696" lon="35.3346633">
<ele>293.339996</ele>
<time>2012-04-14T07:56:26.000Z</time>
</trkpt>
<trkpt lat="31.7068871" lon="35.3346910">
<ele>293.820007</ele>
<time>2012-04-14T07:56:42.000Z</time>
</trkpt>
<trkpt lat="31.7069170" lon="35.3347553">
<ele>294.300018</ele>
<time>2012-04-14T07:56:56.000Z</time>
</trkpt>
<trkpt lat="31.7069233" lon="35.3347685">
<ele>294.779999</ele>
<time>2012-04-14T07:57:02.000Z</time>
</trkpt>
<trkpt lat="31.7069322" lon="35.3347954">
<ele>294.779999</ele>
<time>2012-04-14T07:57:06.000Z</time>
</trkpt>
<trkpt lat="31.7069513" lon="35.3348904">
<ele>296.220001</ele>
<time>2012-04-14T07:57:16.000Z</time>
</trkpt>
<trkpt lat="31.7069536" lon="35.3349080">
<ele>296.220001</ele>
<time>2012-04-14T07:57:18.000Z</time>
</trkpt>
<trkpt lat="31.7069644" lon="35.3350157">
<ele>297.669983</ele>
<time>2012-04-14T07:57:30.000Z</time>
</trkpt>
<trkpt lat="31.7069834" lon="35.3350903">
<ele>298.630005</ele>
<time>2012-04-14T07:57:43.000Z</time>
</trkpt>
<trkpt lat="31.7070027" lon="35.3351252">
<ele>298.630005</ele>
<time>2012-04-14T07:57:49.000Z</time>
</trkpt>
<trkpt lat="31.7070481" lon="35.3352331">
<ele>300.550018</ele>
<time>2012-04-14T07:57:57.000Z</time>
</trkpt>
<trkpt lat="31.7070833" lon="35.3353319">
<ele>301.510010</ele>
<time>2012-04-14T07:58:04.000Z</time>
</trkpt>
<trkpt lat="31.7071239" lon="35.3354144">
<ele>302.470001</ele>
<time>2012-04-14T07:58:11.000Z</time>
</trkpt>
<trkpt lat="31.7071687" lon="35.3354844">
<ele>302.949982</ele>
<time>2012-04-14T07:58:17.000Z</time>
</trkpt>
<trkpt lat="31.7071794" lon="35.3355112">
<ele>302.949982</ele>
<time>2012-04-14T07:58:19.000Z</time>
</trkpt>
<trkpt lat="31.7072931" lon="35.3357037">
<ele>305.360016</ele>
<time>2012-04-14T07:58:35.000Z</time>
</trkpt>
<trkpt lat="31.7073538" lon="35.3358044">
<ele>306.320007</ele>
<time>2012-04-14T07:58:44.000Z</time>
</trkpt>
<trkpt lat="31.7073730" lon="35.3358220">
<ele>307.279999</ele>
<time>2012-04-14T07:58:46.000Z</time>
</trkpt>
<trkpt lat="31.7074930" lon="35.3359424">
<ele>307.760010</ele>
<time>2012-04-14T07:58:58.000Z</time>
</trkpt>
<trkpt lat="31.7075152" lon="35.3359763">
<ele>308.239990</ele>
<time>2012-04-14T07:59:01.000Z</time>
</trkpt>
<trkpt lat="31.7077392" lon="35.3360853">
<ele>308.239990</ele>
<time>2012-04-14T07:59:16.000Z</time>
</trkpt>
<trkpt lat="31.7079295" lon="35.3361705">
<ele>308.239990</ele>
<time>2012-04-14T07:59:28.000Z</time>
</trkpt>
<trkpt lat="31.7081046" lon="35.3362734">
<ele>310.160004</ele>
<time>2012-04-14T07:59:42.000Z</time>
</trkpt>
<trkpt lat="31.7082965" lon="35.3363701">
<ele>312.089996</ele>
<time>2012-04-14T07:59:56.000Z</time>
</trkpt>
<trkpt lat="31.7083286" lon="35.3364906">
<ele>313.049988</ele>
<time>2012-04-14T08:00:05.000Z</time>
</trkpt>
<trkpt lat="31.7084402" lon="35.3367311">
<ele>314.010010</ele>
<time>2012-04-14T08:00:20.000Z</time>
</trkpt>
<trkpt lat="31.7085635" lon="35.3368196">
<ele>314.490021</ele>
<time>2012-04-14T08:00:29.000Z</time>
</trkpt>
<trkpt lat="31.7086031" lon="35.3368948">
<ele>314.969971</ele>
<time>2012-04-14T08:00:34.000Z</time>
</trkpt>
<trkpt lat="31.7086446" lon="35.3369411">
<ele>315.449982</ele>
<time>2012-04-14T08:00:38.000Z</time>
</trkpt>
<trkpt lat="31.7087778" lon="35.3371301">
<ele>315.449982</ele>
<time>2012-04-14T08:00:52.000Z</time>
</trkpt>
<trkpt lat="31.7088071" lon="35.3371936">
<ele>316.410004</ele>
<time>2012-04-14T08:00:56.000Z</time>
</trkpt>
<trkpt lat="31.7089704" lon="35.3374144">
<ele>317.369995</ele>
<time>2012-04-14T08:01:11.000Z</time>
</trkpt>
<trkpt lat="31.7091450" lon="35.3375572">
<ele>317.850006</ele>
<time>2012-04-14T08:01:25.000Z</time>
</trkpt>
<trkpt lat="31.7092093" lon="35.3376812">
<ele>317.850006</ele>
<time>2012-04-14T08:01:37.000Z</time>
</trkpt>
<trkpt lat="31.7092012" lon="35.3376870">
<ele>316.890015</ele>
<time>2012-04-14T08:02:02.000Z</time>
</trkpt>
<trkpt lat="31.7091904" lon="35.3376835">
<ele>316.890015</ele>
<time>2012-04-14T08:02:27.000Z</time>
</trkpt>
<trkpt lat="31.7091908" lon="35.3376844">
<ele>317.369995</ele>
<time>2012-04-14T08:02:57.000Z</time>
</trkpt>
<trkpt lat="31.7091823" lon="35.3376852">
<ele>317.369995</ele>
<time>2012-04-14T08:03:29.000Z</time>
</trkpt>
<trkpt lat="31.7091838" lon="35.3376829">
<ele>317.369995</ele>
<time>2012-04-14T08:03:56.000Z</time>
</trkpt>
<trkpt lat="31.7091886" lon="35.3376790">
<ele>317.369995</ele>
<time>2012-04-14T08:04:28.000Z</time>
</trkpt>
<trkpt lat="31.7091901" lon="35.3376838">
<ele>317.850006</ele>
<time>2012-04-14T08:05:00.000Z</time>
</trkpt>
<trkpt lat="31.7091932" lon="35.3376788">
<ele>317.369995</ele>
<time>2012-04-14T08:05:25.000Z</time>
</trkpt>
<trkpt lat="31.7091926" lon="35.3376750">
<ele>317.369995</ele>
<time>2012-04-14T08:05:48.000Z</time>
</trkpt>
<trkpt lat="31.7092040" lon="35.3377253">
<ele>316.890015</ele>
<time>2012-04-14T08:05:52.000Z</time>
</trkpt>
<trkpt lat="31.7091940" lon="35.3379988">
<ele>313.529999</ele>
<time>2012-04-14T08:06:01.000Z</time>
</trkpt>
<trkpt lat="31.7091671" lon="35.3380924">
<ele>313.529999</ele>
<time>2012-04-14T08:06:03.000Z</time>
</trkpt>
<trkpt lat="31.7091573" lon="35.3381438">
<ele>312.569977</ele>
<time>2012-04-14T08:06:04.000Z</time>
</trkpt>
<trkpt lat="31.7091514" lon="35.3381967">
<ele>312.569977</ele>
<time>2012-04-14T08:06:05.000Z</time>
</trkpt>
<trkpt lat="31.7091491" lon="35.3382554">
<ele>312.089996</ele>
<time>2012-04-14T08:06:06.000Z</time>
</trkpt>
<trkpt lat="31.7091531" lon="35.3383226">
<ele>311.119995</ele>
<time>2012-04-14T08:06:07.000Z</time>
</trkpt>
<trkpt lat="31.7091681" lon="35.3384685">
<ele>310.160004</ele>
<time>2012-04-14T08:06:09.000Z</time>
</trkpt>
<trkpt lat="31.7091643" lon="35.3385401">
<ele>310.160004</ele>
<time>2012-04-14T08:06:10.000Z</time>
</trkpt>
<trkpt lat="31.7091476" lon="35.3386045">
<ele>309.679993</ele>
<time>2012-04-14T08:06:11.000Z</time>
</trkpt>
<trkpt lat="31.7091189" lon="35.3386584">
<ele>309.199982</ele>
<time>2012-04-14T08:06:12.000Z</time>
</trkpt>
<trkpt lat="31.7090834" lon="35.3387037">
<ele>309.199982</ele>
<time>2012-04-14T08:06:13.000Z</time>
</trkpt>
<trkpt lat="31.7090441" lon="35.3387433">
<ele>309.199982</ele>
<time>2012-04-14T08:06:14.000Z</time>
</trkpt>
<trkpt lat="31.7089607" lon="35.3388172">
<ele>309.199982</ele>
<time>2012-04-14T08:06:16.000Z</time>
</trkpt>
<trkpt lat="31.7089171" lon="35.3388461">
<ele>308.720001</ele>
<time>2012-04-14T08:06:17.000Z</time>
</trkpt>
<trkpt lat="31.7087338" lon="35.3389581">
<ele>305.360016</ele>
<time>2012-04-14T08:06:23.000Z</time>
</trkpt>
<trkpt lat="31.7087227" lon="35.3389673">
<ele>304.880005</ele>
<time>2012-04-14T08:06:24.000Z</time>
</trkpt>
<trkpt lat="31.7087223" lon="35.3389683">
<ele>304.880005</ele>
<time>2012-04-14T08:06:37.000Z</time>
</trkpt>
<trkpt lat="31.7087165" lon="35.3389644">
<ele>304.880005</ele>
<time>2012-04-14T08:07:02.000Z</time>
</trkpt>
<trkpt lat="31.7085069" lon="35.3390518">
<ele>302.949982</ele>
<time>2012-04-14T08:07:09.000Z</time>
</trkpt>
<trkpt lat="31.7084535" lon="35.3390806">
<ele>302.470001</ele>
<time>2012-04-14T08:07:10.000Z</time>
</trkpt>
<trkpt lat="31.7084036" lon="35.3391159">
<ele>301.989990</ele>
<time>2012-04-14T08:07:11.000Z</time>
</trkpt>
<trkpt lat="31.7083592" lon="35.3391582">
<ele>301.989990</ele>
<time>2012-04-14T08:07:12.000Z</time>
</trkpt>
<trkpt lat="31.7083195" lon="35.3392074">
<ele>301.510010</ele>
<time>2012-04-14T08:07:13.000Z</time>
</trkpt>
<trkpt lat="31.7082863" lon="35.3392528">
<ele>301.510010</ele>
<time>2012-04-14T08:07:14.000Z</time>
</trkpt>
<trkpt lat="31.7082587" lon="35.3393004">
<ele>301.029999</ele>
<time>2012-04-14T08:07:15.000Z</time>
</trkpt>
<trkpt lat="31.7082384" lon="35.3393439">
<ele>300.550018</ele>
<time>2012-04-14T08:07:16.000Z</time>
</trkpt>
<trkpt lat="31.7082219" lon="35.3393794">
<ele>300.550018</ele>
<time>2012-04-14T08:07:17.000Z</time>
</trkpt>
<trkpt lat="31.7081998" lon="35.3394140">
<ele>300.070007</ele>
<time>2012-04-14T08:07:18.000Z</time>
</trkpt>
<trkpt lat="31.7081754" lon="35.3394497">
<ele>299.589996</ele>
<time>2012-04-14T08:07:19.000Z</time>
</trkpt>
<trkpt lat="31.7081516" lon="35.3394845">
<ele>299.110016</ele>
<time>2012-04-14T08:07:20.000Z</time>
</trkpt>
<trkpt lat="31.7080639" lon="35.3396113">
<ele>296.699982</ele>
<time>2012-04-14T08:07:24.000Z</time>
</trkpt>
<trkpt lat="31.7079587" lon="35.3397076">
<ele>293.820007</ele>
<time>2012-04-14T08:07:28.000Z</time>
</trkpt>
<trkpt lat="31.7079297" lon="35.3397310">
<ele>293.339996</ele>
<time>2012-04-14T08:07:29.000Z</time>
</trkpt>
<trkpt lat="31.7079013" lon="35.3397646">
<ele>292.860016</ele>
<time>2012-04-14T08:07:30.000Z</time>
</trkpt>
<trkpt lat="31.7078776" lon="35.3397938">
<ele>292.380005</ele>
<time>2012-04-14T08:07:31.000Z</time>
</trkpt>
<trkpt lat="31.7078173" lon="35.3398673">
<ele>291.419983</ele>
<time>2012-04-14T08:07:33.000Z</time>
</trkpt>
<trkpt lat="31.7077876" lon="35.3399044">
<ele>290.459991</ele>
<time>2012-04-14T08:07:34.000Z</time>
</trkpt>
<trkpt lat="31.7076640" lon="35.3400529">
<ele>287.089996</ele>
<time>2012-04-14T08:07:39.000Z</time>
</trkpt>
<trkpt lat="31.7076159" lon="35.3401086">
<ele>286.130005</ele>
<time>2012-04-14T08:07:41.000Z</time>
</trkpt>
<trkpt lat="31.7074883" lon="35.3402694">
<ele>283.250000</ele>
<time>2012-04-14T08:07:47.000Z</time>
</trkpt>
<trkpt lat="31.7074533" lon="35.3403002">
<ele>282.769989</ele>
<time>2012-04-14T08:07:48.000Z</time>
</trkpt>
<trkpt lat="31.7074173" lon="35.3403331">
<ele>282.279999</ele>
<time>2012-04-14T08:07:49.000Z</time>
</trkpt>
<trkpt lat="31.7073790" lon="35.3403643">
<ele>281.320007</ele>
<time>2012-04-14T08:07:50.000Z</time>
</trkpt>
<trkpt lat="31.7073420" lon="35.3403991">
<ele>280.839996</ele>
<time>2012-04-14T08:07:51.000Z</time>
</trkpt>
<trkpt lat="31.7071997" lon="35.3405485">
<ele>277.959991</ele>
<time>2012-04-14T08:07:55.000Z</time>
</trkpt>
<trkpt lat="31.7070449" lon="35.3407335">
<ele>274.589996</ele>
<time>2012-04-14T08:08:00.000Z</time>
</trkpt>
<trkpt lat="31.7070224" lon="35.3407608">
<ele>274.110016</ele>
<time>2012-04-14T08:08:01.000Z</time>
</trkpt>
<trkpt lat="31.7068906" lon="35.3409639">
<ele>270.750000</ele>
<time>2012-04-14T08:08:07.000Z</time>
</trkpt>
<trkpt lat="31.7067741" lon="35.3411314">
<ele>266.899994</ele>
<time>2012-04-14T08:08:12.000Z</time>
</trkpt>
<trkpt lat="31.7066430" lon="35.3412609">
<ele>264.019989</ele>
<time>2012-04-14T08:08:16.000Z</time>
</trkpt>
<trkpt lat="31.7065127" lon="35.3413930">
<ele>260.170013</ele>
<time>2012-04-14T08:08:20.000Z</time>
</trkpt>
<trkpt lat="31.7064089" lon="35.3414822">
<ele>258.250000</ele>
<time>2012-04-14T08:08:23.000Z</time>
</trkpt>
<trkpt lat="31.7063723" lon="35.3415061">
<ele>257.769989</ele>
<time>2012-04-14T08:08:24.000Z</time>
</trkpt>
<trkpt lat="31.7063330" lon="35.3415232">
<ele>256.809998</ele>
<time>2012-04-14T08:08:25.000Z</time>
</trkpt>
<trkpt lat="31.7062058" lon="35.3415756">
<ele>254.889999</ele>
<time>2012-04-14T08:08:28.000Z</time>
</trkpt>
<trkpt lat="31.7061632" lon="35.3416007">
<ele>253.930008</ele>
<time>2012-04-14T08:08:29.000Z</time>
</trkpt>
<trkpt lat="31.7061225" lon="35.3416300">
<ele>253.439987</ele>
<time>2012-04-14T08:08:30.000Z</time>
</trkpt>
<trkpt lat="31.7060877" lon="35.3416621">
<ele>252.479996</ele>
<time>2012-04-14T08:08:31.000Z</time>
</trkpt>
<trkpt lat="31.7060533" lon="35.3416982">
<ele>252.000000</ele>
<time>2012-04-14T08:08:32.000Z</time>
</trkpt>
<trkpt lat="31.7060225" lon="35.3417325">
<ele>251.040009</ele>
<time>2012-04-14T08:08:33.000Z</time>
</trkpt>
<trkpt lat="31.7059903" lon="35.3417567">
<ele>251.040009</ele>
<time>2012-04-14T08:08:34.000Z</time>
</trkpt>
<trkpt lat="31.7059571" lon="35.3417736">
<ele>251.040009</ele>
<time>2012-04-14T08:08:35.000Z</time>
</trkpt>
<trkpt lat="31.7059202" lon="35.3417931">
<ele>251.040009</ele>
<time>2012-04-14T08:08:36.000Z</time>
</trkpt>
<trkpt lat="31.7058816" lon="35.3418143">
<ele>251.040009</ele>
<time>2012-04-14T08:08:37.000Z</time>
</trkpt>
<trkpt lat="31.7058051" lon="35.3418628">
<ele>247.199997</ele>
<time>2012-04-14T08:08:39.000Z</time>
</trkpt>
<trkpt lat="31.7056619" lon="35.3419522">
<ele>244.790009</ele>
<time>2012-04-14T08:08:43.000Z</time>
</trkpt>
<trkpt lat="31.7055278" lon="35.3420228">
<ele>242.869995</ele>
<time>2012-04-14T08:08:47.000Z</time>
</trkpt>
<trkpt lat="31.7053786" lon="35.3421006">
<ele>241.430008</ele>
<time>2012-04-14T08:08:51.000Z</time>
</trkpt>
<trkpt lat="31.7053418" lon="35.3421206">
<ele>240.469986</ele>
<time>2012-04-14T08:08:52.000Z</time>
</trkpt>
<trkpt lat="31.7053079" lon="35.3421369">
<ele>239.990005</ele>
<time>2012-04-14T08:08:53.000Z</time>
</trkpt>
<trkpt lat="31.7050546" lon="35.3422609">
<ele>237.100006</ele>
<time>2012-04-14T08:09:02.000Z</time>
</trkpt>
<trkpt lat="31.7048893" lon="35.3423303">
<ele>234.219986</ele>
<time>2012-04-14T08:09:07.000Z</time>
</trkpt>
<trkpt lat="31.7047899" lon="35.3423767">
<ele>232.779999</ele>
<time>2012-04-14T08:09:10.000Z</time>
</trkpt>
<trkpt lat="31.7046123" lon="35.3424060">
<ele>229.889999</ele>
<time>2012-04-14T08:09:15.000Z</time>
</trkpt>
<trkpt lat="31.7045707" lon="35.3424062">
<ele>229.889999</ele>
<time>2012-04-14T08:09:16.000Z</time>
</trkpt>
<trkpt lat="31.7045326" lon="35.3424030">
<ele>229.410004</ele>
<time>2012-04-14T08:09:17.000Z</time>
</trkpt>
<trkpt lat="31.7044972" lon="35.3423918">
<ele>228.930008</ele>
<time>2012-04-14T08:09:18.000Z</time>
</trkpt>
<trkpt lat="31.7044635" lon="35.3423764">
<ele>228.449997</ele>
<time>2012-04-14T08:09:19.000Z</time>
</trkpt>
<trkpt lat="31.7044309" lon="35.3423570">
<ele>227.969986</ele>
<time>2012-04-14T08:09:20.000Z</time>
</trkpt>
<trkpt lat="31.7043332" lon="35.3422925">
<ele>226.529999</ele>
<time>2012-04-14T08:09:23.000Z</time>
</trkpt>
<trkpt lat="31.7041141" lon="35.3421596">
<ele>223.160004</ele>
<time>2012-04-14T08:09:30.000Z</time>
</trkpt>
<trkpt lat="31.7040893" lon="35.3421407">
<ele>223.160004</ele>
<time>2012-04-14T08:09:31.000Z</time>
</trkpt>
<trkpt lat="31.7039282" lon="35.3421128">
<ele>219.800003</ele>
<time>2012-04-14T08:09:37.000Z</time>
</trkpt>
<trkpt lat="31.7038470" lon="35.3421531">
<ele>219.320007</ele>
<time>2012-04-14T08:09:41.000Z</time>
</trkpt>
<trkpt lat="31.7038380" lon="35.3421673">
<ele>219.320007</ele>
<time>2012-04-14T08:09:42.000Z</time>
</trkpt>
<trkpt lat="31.7038308" lon="35.3421893">
<ele>218.839996</ele>
<time>2012-04-14T08:09:43.000Z</time>
</trkpt>
<trkpt lat="31.7038280" lon="35.3422075">
<ele>218.359985</ele>
<time>2012-04-14T08:09:44.000Z</time>
</trkpt>
<trkpt lat="31.7038308" lon="35.3422262">
<ele>218.359985</ele>
<time>2012-04-14T08:09:45.000Z</time>
</trkpt>
<trkpt lat="31.7038415" lon="35.3422487">
<ele>217.399994</ele>
<time>2012-04-14T08:09:46.000Z</time>
</trkpt>
<trkpt lat="31.7038579" lon="35.3422770">
<ele>217.399994</ele>
<time>2012-04-14T08:09:47.000Z</time>
</trkpt>
<trkpt lat="31.7039167" lon="35.3425666">
<ele>214.029999</ele>
<time>2012-04-14T08:09:55.000Z</time>
</trkpt>
<trkpt lat="31.7039660" lon="35.3428546">
<ele>210.670013</ele>
<time>2012-04-14T08:10:01.000Z</time>
</trkpt>
<trkpt lat="31.7039390" lon="35.3432033">
<ele>207.300003</ele>
<time>2012-04-14T08:10:09.000Z</time>
</trkpt>
<trkpt lat="31.7039064" lon="35.3432941">
<ele>206.339996</ele>
<time>2012-04-14T08:10:11.000Z</time>
</trkpt>
<trkpt lat="31.7038600" lon="35.3434300">
<ele>204.899994</ele>
<time>2012-04-14T08:10:14.000Z</time>
</trkpt>
<trkpt lat="31.7038898" lon="35.3436751">
<ele>202.009995</ele>
<time>2012-04-14T08:10:20.000Z</time>
</trkpt>
<trkpt lat="31.7039731" lon="35.3438532">
<ele>198.649994</ele>
<time>2012-04-14T08:10:25.000Z</time>
</trkpt>
<trkpt lat="31.7039571" lon="35.3440326">
<ele>195.279999</ele>
<time>2012-04-14T08:10:31.000Z</time>
</trkpt>
<trkpt lat="31.7039444" lon="35.3441345">
<ele>193.359985</ele>
<time>2012-04-14T08:10:34.000Z</time>
</trkpt>
<trkpt lat="31.7039299" lon="35.3441589">
<ele>193.359985</ele>
<time>2012-04-14T08:10:35.000Z</time>
</trkpt>
<trkpt lat="31.7039082" lon="35.3441754">
<ele>192.399994</ele>
<time>2012-04-14T08:10:36.000Z</time>
</trkpt>
<trkpt lat="31.7037993" lon="35.3442537">
<ele>190.479996</ele>
<time>2012-04-14T08:10:40.000Z</time>
</trkpt>
<trkpt lat="31.7036134" lon="35.3444138">
<ele>187.589996</ele>
<time>2012-04-14T08:10:48.000Z</time>
</trkpt>
<trkpt lat="31.7035909" lon="35.3444424">
<ele>187.109985</ele>
<time>2012-04-14T08:10:49.000Z</time>
</trkpt>
<trkpt lat="31.7034824" lon="35.3446270">
<ele>184.229996</ele>
<time>2012-04-14T08:10:56.000Z</time>
</trkpt>
<trkpt lat="31.7034634" lon="35.3446941">
<ele>183.270004</ele>
<time>2012-04-14T08:10:59.000Z</time>
</trkpt>
<trkpt lat="31.7034778" lon="35.3448370">
<ele>179.420013</ele>
<time>2012-04-14T08:11:04.000Z</time>
</trkpt>
<trkpt lat="31.7035186" lon="35.3449162">
<ele>177.979996</ele>
<time>2012-04-14T08:11:07.000Z</time>
</trkpt>
<trkpt lat="31.7036053" lon="35.3450334">
<ele>175.099991</ele>
<time>2012-04-14T08:11:11.000Z</time>
</trkpt>
<trkpt lat="31.7036910" lon="35.3451162">
<ele>172.690002</ele>
<time>2012-04-14T08:11:15.000Z</time>
</trkpt>
<trkpt lat="31.7038461" lon="35.3453162">
<ele>169.330002</ele>
<time>2012-04-14T08:11:24.000Z</time>
</trkpt>
<trkpt lat="31.7038576" lon="35.3453697">
<ele>168.369995</ele>
<time>2012-04-14T08:11:26.000Z</time>
</trkpt>
<trkpt lat="31.7038709" lon="35.3454738">
<ele>165.959991</ele>
<time>2012-04-14T08:11:32.000Z</time>
</trkpt>
<trkpt lat="31.7038789" lon="35.3454866">
<ele>165.959991</ele>
<time>2012-04-14T08:11:33.000Z</time>
</trkpt>
<trkpt lat="31.7038845" lon="35.3455010">
<ele>165.959991</ele>
<time>2012-04-14T08:11:34.000Z</time>
</trkpt>
<trkpt lat="31.7039313" lon="35.3456290">
<ele>162.599991</ele>
<time>2012-04-14T08:11:44.000Z</time>
</trkpt>
<trkpt lat="31.7039319" lon="35.3456423">
<ele>162.599991</ele>
<time>2012-04-14T08:11:45.000Z</time>
</trkpt>
<trkpt lat="31.7039328" lon="35.3456675">
<ele>162.119995</ele>
<time>2012-04-14T08:11:47.000Z</time>
</trkpt>
<trkpt lat="31.7039385" lon="35.3456817">
<ele>161.639999</ele>
<time>2012-04-14T08:11:48.000Z</time>
</trkpt>
<trkpt lat="31.7039449" lon="35.3456998">
<ele>161.639999</ele>
<time>2012-04-14T08:11:49.000Z</time>
</trkpt>
<trkpt lat="31.7039848" lon="35.3458339">
<ele>158.270004</ele>
<time>2012-04-14T08:11:57.000Z</time>
</trkpt>
<trkpt lat="31.7040683" lon="35.3460210">
<ele>154.909988</ele>
<time>2012-04-14T08:12:08.000Z</time>
</trkpt>
<trkpt lat="31.7041440" lon="35.3461569">
<ele>151.539993</ele>
<time>2012-04-14T08:12:16.000Z</time>
</trkpt>
<trkpt lat="31.7042163" lon="35.3462372">
<ele>149.619995</ele>
<time>2012-04-14T08:12:20.000Z</time>
</trkpt>
<trkpt lat="31.7042576" lon="35.3462910">
<ele>148.179993</ele>
<time>2012-04-14T08:12:23.000Z</time>
</trkpt>
<trkpt lat="31.7042875" lon="35.3464827">
<ele>144.819992</ele>
<time>2012-04-14T08:12:30.000Z</time>
</trkpt>
<trkpt lat="31.7042803" lon="35.3465960">
<ele>142.409988</ele>
<time>2012-04-14T08:12:32.000Z</time>
</trkpt>
<trkpt lat="31.7042638" lon="35.3466661">
<ele>140.970001</ele>
<time>2012-04-14T08:12:33.000Z</time>
</trkpt>
<trkpt lat="31.7042357" lon="35.3467367">
<ele>140.010010</ele>
<time>2012-04-14T08:12:34.000Z</time>
</trkpt>
<trkpt lat="31.7042017" lon="35.3468032">
<ele>139.050003</ele>
<time>2012-04-14T08:12:35.000Z</time>
</trkpt>
<trkpt lat="31.7041618" lon="35.3468668">
<ele>138.089996</ele>
<time>2012-04-14T08:12:36.000Z</time>
</trkpt>
<trkpt lat="31.7041186" lon="35.3469236">
<ele>137.610001</ele>
<time>2012-04-14T08:12:37.000Z</time>
</trkpt>
<trkpt lat="31.7040759" lon="35.3469733">
<ele>136.639999</ele>
<time>2012-04-14T08:12:38.000Z</time>
</trkpt>
<trkpt lat="31.7040283" lon="35.3470089">
<ele>136.639999</ele>
<time>2012-04-14T08:12:39.000Z</time>
</trkpt>
<trkpt lat="31.7039846" lon="35.3470406">
<ele>136.159988</ele>
<time>2012-04-14T08:12:40.000Z</time>
</trkpt>
<trkpt lat="31.7039530" lon="35.3470725">
<ele>135.679993</ele>
<time>2012-04-14T08:12:41.000Z</time>
</trkpt>
<trkpt lat="31.7039218" lon="35.3471079">
<ele>135.199997</ele>
<time>2012-04-14T08:12:42.000Z</time>
</trkpt>
<trkpt lat="31.7038912" lon="35.3471536">
<ele>135.199997</ele>
<time>2012-04-14T08:12:43.000Z</time>
</trkpt>
<trkpt lat="31.7038718" lon="35.3472032">
<ele>134.720001</ele>
<time>2012-04-14T08:12:44.000Z</time>
</trkpt>
<trkpt lat="31.7037179" lon="35.3476274">
<ele>134.240005</ele>
<time>2012-04-14T08:12:54.000Z</time>
</trkpt>
<trkpt lat="31.7036919" lon="35.3476720">
<ele>133.760010</ele>
<time>2012-04-14T08:12:55.000Z</time>
</trkpt>
<trkpt lat="31.7036594" lon="35.3477131">
<ele>133.760010</ele>
<time>2012-04-14T08:12:56.000Z</time>
</trkpt>
<trkpt lat="31.7035814" lon="35.3477853">
<ele>133.279999</ele>
<time>2012-04-14T08:12:58.000Z</time>
</trkpt>
<trkpt lat="31.7032926" lon="35.3480296">
<ele>132.800003</ele>
<time>2012-04-14T08:13:06.000Z</time>
</trkpt>
<trkpt lat="31.7032520" lon="35.3480714">
<ele>132.319992</ele>
<time>2012-04-14T08:13:07.000Z</time>
</trkpt>
<trkpt lat="31.7031704" lon="35.3481599">
<ele>132.319992</ele>
<time>2012-04-14T08:13:09.000Z</time>
</trkpt>
<trkpt lat="31.7031340" lon="35.3482056">
<ele>131.839996</ele>
<time>2012-04-14T08:13:10.000Z</time>
</trkpt>
<trkpt lat="31.7030939" lon="35.3482416">
<ele>131.839996</ele>
<time>2012-04-14T08:13:11.000Z</time>
</trkpt>
<trkpt lat="31.7030141" lon="35.3483051">
<ele>131.839996</ele>
<time>2012-04-14T08:13:13.000Z</time>
</trkpt>
<trkpt lat="31.7029798" lon="35.3483422">
<ele>131.360001</ele>
<time>2012-04-14T08:13:14.000Z</time>
</trkpt>
<trkpt lat="31.7029498" lon="35.3483850">
<ele>131.839996</ele>
<time>2012-04-14T08:13:15.000Z</time>
</trkpt>
<trkpt lat="31.7029239" lon="35.3484264">
<ele>130.880005</ele>
<time>2012-04-14T08:13:16.000Z</time>
</trkpt>
<trkpt lat="31.7029028" lon="35.3484638">
<ele>131.360001</ele>
<time>2012-04-14T08:13:17.000Z</time>
</trkpt>
<trkpt lat="31.7028036" lon="35.3487078">
<ele>130.400009</ele>
<time>2012-04-14T08:13:28.000Z</time>
</trkpt>
<trkpt lat="31.7028108" lon="35.3487213">
<ele>130.400009</ele>
<time>2012-04-14T08:13:59.000Z</time>
</trkpt>
<trkpt lat="31.7028049" lon="35.3487055">
<ele>130.880005</ele>
<time>2012-04-14T08:14:23.000Z</time>
</trkpt>
<trkpt lat="31.7028028" lon="35.3487143">
<ele>130.400009</ele>
<time>2012-04-14T08:14:37.000Z</time>
</trkpt>
<trkpt lat="31.7028022" lon="35.3487350">
<ele>130.400009</ele>
<time>2012-04-14T08:14:38.000Z</time>
</trkpt>
<trkpt lat="31.7027981" lon="35.3487557">
<ele>130.400009</ele>
<time>2012-04-14T08:14:39.000Z</time>
</trkpt>
<trkpt lat="31.7027406" lon="35.3491049">
<ele>128.949997</ele>
<time>2012-04-14T08:14:51.000Z</time>
</trkpt>
<trkpt lat="31.7027160" lon="35.3492910">
<ele>128.470001</ele>
<time>2012-04-14T08:14:55.000Z</time>
</trkpt>
<trkpt lat="31.7027098" lon="35.3493485">
<ele>127.989998</ele>
<time>2012-04-14T08:14:56.000Z</time>
</trkpt>
<trkpt lat="31.7026555" lon="35.3496256">
<ele>126.549995</ele>
<time>2012-04-14T08:15:01.000Z</time>
</trkpt>
<trkpt lat="31.7026352" lon="35.3496758">
<ele>125.589996</ele>
<time>2012-04-14T08:15:02.000Z</time>
</trkpt>
<trkpt lat="31.7026062" lon="35.3497291">
<ele>124.630005</ele>
<time>2012-04-14T08:15:03.000Z</time>
</trkpt>
<trkpt lat="31.7025724" lon="35.3497839">
<ele>124.630005</ele>
<time>2012-04-14T08:15:04.000Z</time>
</trkpt>
<trkpt lat="31.7025501" lon="35.3498378">
<ele>123.669998</ele>
<time>2012-04-14T08:15:05.000Z</time>
</trkpt>
<trkpt lat="31.7025393" lon="35.3498927">
<ele>123.669998</ele>
<time>2012-04-14T08:15:06.000Z</time>
</trkpt>
<trkpt lat="31.7025237" lon="35.3499449">
<ele>124.150002</ele>
<time>2012-04-14T08:15:07.000Z</time>
</trkpt>
<trkpt lat="31.7025022" lon="35.3499950">
<ele>124.150002</ele>
<time>2012-04-14T08:15:08.000Z</time>
</trkpt>
<trkpt lat="31.7024743" lon="35.3500405">
<ele>123.669998</ele>
<time>2012-04-14T08:15:09.000Z</time>
</trkpt>
<trkpt lat="31.7024387" lon="35.3500808">
<ele>123.669998</ele>
<time>2012-04-14T08:15:10.000Z</time>
</trkpt>
<trkpt lat="31.7023988" lon="35.3501183">
<ele>123.189995</ele>
<time>2012-04-14T08:15:11.000Z</time>
</trkpt>
<trkpt lat="31.7022642" lon="35.3502369">
<ele>122.709999</ele>
<time>2012-04-14T08:15:14.000Z</time>
</trkpt>
<trkpt lat="31.7022260" lon="35.3502825">
<ele>122.220001</ele>
<time>2012-04-14T08:15:15.000Z</time>
</trkpt>
<trkpt lat="31.7020237" lon="35.3506652">
<ele>121.740005</ele>
<time>2012-04-14T08:15:25.000Z</time>
</trkpt>
<trkpt lat="31.7020169" lon="35.3507105">
<ele>121.260002</ele>
<time>2012-04-14T08:15:26.000Z</time>
</trkpt>
<trkpt lat="31.7020163" lon="35.3507723">
<ele>120.780006</ele>
<time>2012-04-14T08:15:27.000Z</time>
</trkpt>
<trkpt lat="31.7020140" lon="35.3509080">
<ele>119.339996</ele>
<time>2012-04-14T08:15:29.000Z</time>
</trkpt>
<trkpt lat="31.7020005" lon="35.3509755">
<ele>119.339996</ele>
<time>2012-04-14T08:15:30.000Z</time>
</trkpt>
<trkpt lat="31.7019850" lon="35.3510389">
<ele>118.380005</ele>
<time>2012-04-14T08:15:31.000Z</time>
</trkpt>
<trkpt lat="31.7019703" lon="35.3510896">
<ele>117.900002</ele>
<time>2012-04-14T08:15:32.000Z</time>
</trkpt>
<trkpt lat="31.7019468" lon="35.3511313">
<ele>118.380005</ele>
<time>2012-04-14T08:15:33.000Z</time>
</trkpt>
<trkpt lat="31.7019192" lon="35.3511686">
<ele>117.900002</ele>
<time>2012-04-14T08:15:34.000Z</time>
</trkpt>
<trkpt lat="31.7018920" lon="35.3512038">
<ele>117.419998</ele>
<time>2012-04-14T08:15:35.000Z</time>
</trkpt>
<trkpt lat="31.7015237" lon="35.3515830">
<ele>118.860001</ele>
<time>2012-04-14T08:15:49.000Z</time>
</trkpt>
<trkpt lat="31.7013308" lon="35.3518579">
<ele>119.820000</ele>
<time>2012-04-14T08:16:00.000Z</time>
</trkpt>
<trkpt lat="31.7013340" lon="35.3523531">
<ele>117.900002</ele>
<time>2012-04-14T08:16:11.000Z</time>
</trkpt>
<trkpt lat="31.7013903" lon="35.3525672">
<ele>116.939995</ele>
<time>2012-04-14T08:16:14.000Z</time>
</trkpt>
<trkpt lat="31.7014502" lon="35.3527805">
<ele>115.980003</ele>
<time>2012-04-14T08:16:17.000Z</time>
</trkpt>
<trkpt lat="31.7014571" lon="35.3528448">
<ele>115.500000</ele>
<time>2012-04-14T08:16:18.000Z</time>
</trkpt>
<trkpt lat="31.7014538" lon="35.3529102">
<ele>115.010002</ele>
<time>2012-04-14T08:16:19.000Z</time>
</trkpt>
<trkpt lat="31.7014472" lon="35.3530354">
<ele>114.530006</ele>
<time>2012-04-14T08:16:21.000Z</time>
</trkpt>
<trkpt lat="31.7014566" lon="35.3531002">
<ele>114.049995</ele>
<time>2012-04-14T08:16:22.000Z</time>
</trkpt>
<trkpt lat="31.7015216" lon="35.3533922">
<ele>112.610001</ele>
<time>2012-04-14T08:16:26.000Z</time>
</trkpt>
<trkpt lat="31.7015436" lon="35.3534519">
<ele>112.130005</ele>
<time>2012-04-14T08:16:27.000Z</time>
</trkpt>
<trkpt lat="31.7016131" lon="35.3535963">
<ele>112.610001</ele>
<time>2012-04-14T08:16:30.000Z</time>
</trkpt>
<trkpt lat="31.7016261" lon="35.3536509">
<ele>112.610001</ele>
<time>2012-04-14T08:16:31.000Z</time>
</trkpt>
<trkpt lat="31.7016300" lon="35.3537080">
<ele>112.610001</ele>
<time>2012-04-14T08:16:32.000Z</time>
</trkpt>
<trkpt lat="31.7015911" lon="35.3539782">
<ele>111.650002</ele>
<time>2012-04-14T08:16:37.000Z</time>
</trkpt>
<trkpt lat="31.7015830" lon="35.3540348">
<ele>111.650002</ele>
<time>2012-04-14T08:16:38.000Z</time>
</trkpt>
<trkpt lat="31.7015712" lon="35.3541586">
<ele>111.169998</ele>
<time>2012-04-14T08:16:40.000Z</time>
</trkpt>
<trkpt lat="31.7015611" lon="35.3542225">
<ele>110.689995</ele>
<time>2012-04-14T08:16:41.000Z</time>
</trkpt>
<trkpt lat="31.7015579" lon="35.3542929">
<ele>110.209999</ele>
<time>2012-04-14T08:16:42.000Z</time>
</trkpt>
<trkpt lat="31.7015608" lon="35.3543658">
<ele>110.209999</ele>
<time>2012-04-14T08:16:43.000Z</time>
</trkpt>
<trkpt lat="31.7015720" lon="35.3544427">
<ele>109.730003</ele>
<time>2012-04-14T08:16:44.000Z</time>
</trkpt>
<trkpt lat="31.7015842" lon="35.3545217">
<ele>109.250000</ele>
<time>2012-04-14T08:16:45.000Z</time>
</trkpt>
<trkpt lat="31.7015941" lon="35.3546043">
<ele>108.770004</ele>
<time>2012-04-14T08:16:46.000Z</time>
</trkpt>
<trkpt lat="31.7017251" lon="35.3554386">
<ele>105.880005</ele>
<time>2012-04-14T08:16:56.000Z</time>
</trkpt>
<trkpt lat="31.7019138" lon="35.3561744">
<ele>103.959999</ele>
<time>2012-04-14T08:17:06.000Z</time>
</trkpt>
<trkpt lat="31.7019289" lon="35.3562393">
<ele>103.480003</ele>
<time>2012-04-14T08:17:07.000Z</time>
</trkpt>
<trkpt lat="31.7019482" lon="35.3563034">
<ele>103.480003</ele>
<time>2012-04-14T08:17:08.000Z</time>
</trkpt>
<trkpt lat="31.7019758" lon="35.3563609">
<ele>103.480003</ele>
<time>2012-04-14T08:17:09.000Z</time>
</trkpt>
<trkpt lat="31.7020149" lon="35.3564078">
<ele>103.000000</ele>
<time>2012-04-14T08:17:10.000Z</time>
</trkpt>
<trkpt lat="31.7020592" lon="35.3564506">
<ele>103.000000</ele>
<time>2012-04-14T08:17:11.000Z</time>
</trkpt>
<trkpt lat="31.7021488" lon="35.3565491">
<ele>103.480003</ele>
<time>2012-04-14T08:17:13.000Z</time>
</trkpt>
<trkpt lat="31.7021903" lon="35.3566069">
<ele>103.000000</ele>
<time>2012-04-14T08:17:14.000Z</time>
</trkpt>
<trkpt lat="31.7022201" lon="35.3566673">
<ele>103.000000</ele>
<time>2012-04-14T08:17:15.000Z</time>
</trkpt>
<trkpt lat="31.7022410" lon="35.3567308">
<ele>102.520004</ele>
<time>2012-04-14T08:17:16.000Z</time>
</trkpt>
<trkpt lat="31.7022493" lon="35.3567963">
<ele>102.040001</ele>
<time>2012-04-14T08:17:17.000Z</time>
</trkpt>
<trkpt lat="31.7022510" lon="35.3568608">
<ele>102.040001</ele>
<time>2012-04-14T08:17:18.000Z</time>
</trkpt>
<trkpt lat="31.7022392" lon="35.3569243">
<ele>102.040001</ele>
<time>2012-04-14T08:17:19.000Z</time>
</trkpt>
<trkpt lat="31.7022198" lon="35.3569869">
<ele>102.040001</ele>
<time>2012-04-14T08:17:20.000Z</time>
</trkpt>
<trkpt lat="31.7021979" lon="35.3570510">
<ele>101.559998</ele>
<time>2012-04-14T08:17:21.000Z</time>
</trkpt>
<trkpt lat="31.7021577" lon="35.3571873">
<ele>101.079994</ele>
<time>2012-04-14T08:17:23.000Z</time>
</trkpt>
<trkpt lat="31.7021446" lon="35.3572601">
<ele>100.599998</ele>
<time>2012-04-14T08:17:24.000Z</time>
</trkpt>
<trkpt lat="31.7021671" lon="35.3583161">
<ele>98.189995</ele>
<time>2012-04-14T08:17:39.000Z</time>
</trkpt>
<trkpt lat="31.7021747" lon="35.3584870">
<ele>98.189995</ele>
<time>2012-04-14T08:17:42.000Z</time>
</trkpt>
<trkpt lat="31.7021678" lon="35.3585497">
<ele>97.709999</ele>
<time>2012-04-14T08:17:43.000Z</time>
</trkpt>
<trkpt lat="31.7021524" lon="35.3586202">
<ele>97.230003</ele>
<time>2012-04-14T08:17:44.000Z</time>
</trkpt>
<trkpt lat="31.7021260" lon="35.3586936">
<ele>96.270004</ele>
<time>2012-04-14T08:17:45.000Z</time>
</trkpt>
<trkpt lat="31.7020980" lon="35.3587663">
<ele>95.309998</ele>
<time>2012-04-14T08:17:46.000Z</time>
</trkpt>
<trkpt lat="31.7020777" lon="35.3588373">
<ele>95.790001</ele>
<time>2012-04-14T08:17:47.000Z</time>
</trkpt>
<trkpt lat="31.7020423" lon="35.3589591">
<ele>95.790001</ele>
<time>2012-04-14T08:17:49.000Z</time>
</trkpt>
<trkpt lat="31.7020222" lon="35.3590025">
<ele>96.270004</ele>
<time>2012-04-14T08:17:50.000Z</time>
</trkpt>
<trkpt lat="31.7020033" lon="35.3590463">
<ele>96.270004</ele>
<time>2012-04-14T08:17:51.000Z</time>
</trkpt>
<trkpt lat="31.7019892" lon="35.3590901">
<ele>96.270004</ele>
<time>2012-04-14T08:17:52.000Z</time>
</trkpt>
<trkpt lat="31.7019785" lon="35.3591365">
<ele>95.790001</ele>
<time>2012-04-14T08:17:53.000Z</time>
</trkpt>
<trkpt lat="31.7017956" lon="35.3599954">
<ele>93.870003</ele>
<time>2012-04-14T08:18:08.000Z</time>
</trkpt>
<trkpt lat="31.7015973" lon="35.3608550">
<ele>90.500000</ele>
<time>2012-04-14T08:18:21.000Z</time>
</trkpt>
<trkpt lat="31.7014775" lon="35.3612658">
<ele>89.540001</ele>
<time>2012-04-14T08:18:27.000Z</time>
</trkpt>
<trkpt lat="31.7014529" lon="35.3613269">
<ele>89.059998</ele>
<time>2012-04-14T08:18:28.000Z</time>
</trkpt>
<trkpt lat="31.7014307" lon="35.3613931">
<ele>89.059998</ele>
<time>2012-04-14T08:18:29.000Z</time>
</trkpt>
<trkpt lat="31.7013224" lon="35.3617880">
<ele>88.099998</ele>
<time>2012-04-14T08:18:35.000Z</time>
</trkpt>
<trkpt lat="31.7012961" lon="35.3618543">
<ele>88.099998</ele>
<time>2012-04-14T08:18:36.000Z</time>
</trkpt>
<trkpt lat="31.7008161" lon="35.3626012">
<ele>85.689995</ele>
<time>2012-04-14T08:18:49.000Z</time>
</trkpt>
<trkpt lat="31.7007823" lon="35.3626607">
<ele>84.730003</ele>
<time>2012-04-14T08:18:50.000Z</time>
</trkpt>
<trkpt lat="31.7007568" lon="35.3627229">
<ele>85.209999</ele>
<time>2012-04-14T08:18:51.000Z</time>
</trkpt>
<trkpt lat="31.7007410" lon="35.3627899">
<ele>85.209999</ele>
<time>2012-04-14T08:18:52.000Z</time>
</trkpt>
<trkpt lat="31.7007314" lon="35.3628568">
<ele>84.730003</ele>
<time>2012-04-14T08:18:53.000Z</time>
</trkpt>
<trkpt lat="31.7007253" lon="35.3629255">
<ele>84.730003</ele>
<time>2012-04-14T08:18:54.000Z</time>
</trkpt>
<trkpt lat="31.7007230" lon="35.3629988">
<ele>84.250000</ele>
<time>2012-04-14T08:18:55.000Z</time>
</trkpt>
<trkpt lat="31.7007299" lon="35.3630756">
<ele>83.770004</ele>
<time>2012-04-14T08:18:56.000Z</time>
</trkpt>
<trkpt lat="31.7007477" lon="35.3631509">
<ele>83.290001</ele>
<time>2012-04-14T08:18:57.000Z</time>
</trkpt>
<trkpt lat="31.7007734" lon="35.3632280">
<ele>82.809998</ele>
<time>2012-04-14T08:18:58.000Z</time>
</trkpt>
<trkpt lat="31.7007991" lon="35.3633043">
<ele>82.809998</ele>
<time>2012-04-14T08:18:59.000Z</time>
</trkpt>
<trkpt lat="31.7008134" lon="35.3633756">
<ele>82.809998</ele>
<time>2012-04-14T08:19:00.000Z</time>
</trkpt>
<trkpt lat="31.7008141" lon="35.3634423">
<ele>82.329994</ele>
<time>2012-04-14T08:19:01.000Z</time>
</trkpt>
<trkpt lat="31.7008139" lon="35.3635042">
<ele>82.809998</ele>
<time>2012-04-14T08:19:02.000Z</time>
</trkpt>
<trkpt lat="31.7008077" lon="35.3637728">
<ele>82.809998</ele>
<time>2012-04-14T08:19:06.000Z</time>
</trkpt>
<trkpt lat="31.7008385" lon="35.3650921">
<ele>80.410004</ele>
<time>2012-04-14T08:19:24.000Z</time>
</trkpt>
<trkpt lat="31.7007519" lon="35.3657366">
<ele>79.929993</ele>
<time>2012-04-14T08:19:33.000Z</time>
</trkpt>
<trkpt lat="31.7006871" lon="35.3659051">
<ele>81.849998</ele>
<time>2012-04-14T08:19:37.000Z</time>
</trkpt>
<trkpt lat="31.7006545" lon="35.3660808">
<ele>81.370003</ele>
<time>2012-04-14T08:19:47.000Z</time>
</trkpt>
<trkpt lat="31.7006428" lon="35.3660920">
<ele>81.370003</ele>
<time>2012-04-14T08:20:17.000Z</time>
</trkpt>
<trkpt lat="31.7006401" lon="35.3661002">
<ele>81.370003</ele>
<time>2012-04-14T08:20:46.000Z</time>
</trkpt>
<trkpt lat="31.7006440" lon="35.3660966">
<ele>80.889999</ele>
<time>2012-04-14T08:20:53.000Z</time>
</trkpt>
<trkpt lat="31.7006521" lon="35.3662651">
<ele>81.370003</ele>
<time>2012-04-14T08:20:59.000Z</time>
</trkpt>
<trkpt lat="31.7006487" lon="35.3663224">
<ele>80.410004</ele>
<time>2012-04-14T08:21:00.000Z</time>
</trkpt>
<trkpt lat="31.7006483" lon="35.3663945">
<ele>79.929993</ele>
<time>2012-04-14T08:21:01.000Z</time>
</trkpt>
<trkpt lat="31.7006502" lon="35.3665607">
<ele>79.449997</ele>
<time>2012-04-14T08:21:03.000Z</time>
</trkpt>
<trkpt lat="31.7006294" lon="35.3668100">
<ele>77.519997</ele>
<time>2012-04-14T08:21:06.000Z</time>
</trkpt>
<trkpt lat="31.7005175" lon="35.3672373">
<ele>78.000000</ele>
<time>2012-04-14T08:21:13.000Z</time>
</trkpt>
<trkpt lat="31.7005161" lon="35.3673494">
<ele>78.000000</ele>
<time>2012-04-14T08:21:15.000Z</time>
</trkpt>
<trkpt lat="31.7005254" lon="35.3674009">
<ele>78.000000</ele>
<time>2012-04-14T08:21:16.000Z</time>
</trkpt>
<trkpt lat="31.7005397" lon="35.3674420">
<ele>78.480003</ele>
<time>2012-04-14T08:21:17.000Z</time>
</trkpt>
<trkpt lat="31.7005592" lon="35.3674789">
<ele>78.970001</ele>
<time>2012-04-14T08:21:18.000Z</time>
</trkpt>
<trkpt lat="31.7005823" lon="35.3675076">
<ele>78.970001</ele>
<time>2012-04-14T08:21:19.000Z</time>
</trkpt>
<trkpt lat="31.7006062" lon="35.3675357">
<ele>78.970001</ele>
<time>2012-04-14T08:21:20.000Z</time>
</trkpt>
<trkpt lat="31.7006295" lon="35.3675636">
<ele>78.970001</ele>
<time>2012-04-14T08:21:21.000Z</time>
</trkpt>
<trkpt lat="31.7006581" lon="35.3675950">
<ele>78.970001</ele>
<time>2012-04-14T08:21:22.000Z</time>
</trkpt>
<trkpt lat="31.7006928" lon="35.3676252">
<ele>78.480003</ele>
<time>2012-04-14T08:21:23.000Z</time>
</trkpt>
<trkpt lat="31.7007321" lon="35.3676578">
<ele>78.000000</ele>
<time>2012-04-14T08:21:24.000Z</time>
</trkpt>
<trkpt lat="31.7008130" lon="35.3677453">
<ele>77.040001</ele>
<time>2012-04-14T08:21:26.000Z</time>
</trkpt>
<trkpt lat="31.7011962" lon="35.3681252">
<ele>77.040001</ele>
<time>2012-04-14T08:21:35.000Z</time>
</trkpt>
<trkpt lat="31.7014425" lon="35.3683272">
<ele>74.639999</ele>
<time>2012-04-14T08:21:39.000Z</time>
</trkpt>
<trkpt lat="31.7018002" lon="35.3686501">
<ele>73.680000</ele>
<time>2012-04-14T08:21:46.000Z</time>
</trkpt>
<trkpt lat="31.7018867" lon="35.3687512">
<ele>72.239998</ele>
<time>2012-04-14T08:21:48.000Z</time>
</trkpt>
<trkpt lat="31.7019296" lon="35.3687841">
<ele>71.269997</ele>
<time>2012-04-14T08:21:49.000Z</time>
</trkpt>
<trkpt lat="31.7019728" lon="35.3688044">
<ele>70.790001</ele>
<time>2012-04-14T08:21:50.000Z</time>
</trkpt>
<trkpt lat="31.7020112" lon="35.3688142">
<ele>70.310005</ele>
<time>2012-04-14T08:21:51.000Z</time>
</trkpt>
<trkpt lat="31.7020464" lon="35.3688141">
<ele>70.310005</ele>
<time>2012-04-14T08:21:52.000Z</time>
</trkpt>
<trkpt lat="31.7020857" lon="35.3688009">
<ele>69.349998</ele>
<time>2012-04-14T08:21:53.000Z</time>
</trkpt>
<trkpt lat="31.7021260" lon="35.3687893">
<ele>68.870003</ele>
<time>2012-04-14T08:21:54.000Z</time>
</trkpt>
<trkpt lat="31.7021633" lon="35.3687991">
<ele>69.349998</ele>
<time>2012-04-14T08:21:55.000Z</time>
</trkpt>
<trkpt lat="31.7021951" lon="35.3688172">
<ele>68.870003</ele>
<time>2012-04-14T08:21:56.000Z</time>
</trkpt>
<trkpt lat="31.7022218" lon="35.3688348">
<ele>68.870003</ele>
<time>2012-04-14T08:21:57.000Z</time>
</trkpt>
<trkpt lat="31.7025387" lon="35.3690384">
<ele>70.790001</ele>
<time>2012-04-14T08:22:08.000Z</time>
</trkpt>
<trkpt lat="31.7027383" lon="35.3693524">
<ele>70.310005</ele>
<time>2012-04-14T08:22:18.000Z</time>
</trkpt>
<trkpt lat="31.7027561" lon="35.3693967">
<ele>70.310005</ele>
<time>2012-04-14T08:22:19.000Z</time>
</trkpt>
<trkpt lat="31.7027786" lon="35.3694373">
<ele>70.310005</ele>
<time>2012-04-14T08:22:20.000Z</time>
</trkpt>
<trkpt lat="31.7027989" lon="35.3694747">
<ele>70.790001</ele>
<time>2012-04-14T08:22:21.000Z</time>
</trkpt>
<trkpt lat="31.7028134" lon="35.3695136">
<ele>70.790001</ele>
<time>2012-04-14T08:22:22.000Z</time>
</trkpt>
<trkpt lat="31.7028264" lon="35.3695543">
<ele>71.269997</ele>
<time>2012-04-14T08:22:23.000Z</time>
</trkpt>
<trkpt lat="31.7028319" lon="35.3695966">
<ele>71.269997</ele>
<time>2012-04-14T08:22:24.000Z</time>
</trkpt>
<trkpt lat="31.7028338" lon="35.3696362">
<ele>72.239998</ele>
<time>2012-04-14T08:22:25.000Z</time>
</trkpt>
<trkpt lat="31.7028362" lon="35.3696731">
<ele>72.239998</ele>
<time>2012-04-14T08:22:26.000Z</time>
</trkpt>
<trkpt lat="31.7028385" lon="35.3697099">
<ele>72.720001</ele>
<time>2012-04-14T08:22:27.000Z</time>
</trkpt>
<trkpt lat="31.7029843" lon="35.3701049">
<ele>74.159996</ele>
<time>2012-04-14T08:22:39.000Z</time>
</trkpt>
<trkpt lat="31.7032712" lon="35.3707383">
<ele>72.239998</ele>
<time>2012-04-14T08:22:56.000Z</time>
</trkpt>
<trkpt lat="31.7033092" lon="35.3708625">
<ele>70.790001</ele>
<time>2012-04-14T08:22:58.000Z</time>
</trkpt>
<trkpt lat="31.7033656" lon="35.3711053">
<ele>67.430000</ele>
<time>2012-04-14T08:23:01.000Z</time>
</trkpt>
<trkpt lat="31.7034299" lon="35.3712949">
<ele>64.550003</ele>
<time>2012-04-14T08:23:03.000Z</time>
</trkpt>
<trkpt lat="31.7034525" lon="35.3713905">
<ele>64.070000</ele>
<time>2012-04-14T08:23:04.000Z</time>
</trkpt>
<trkpt lat="31.7034633" lon="35.3714876">
<ele>63.099998</ele>
<time>2012-04-14T08:23:05.000Z</time>
</trkpt>
<trkpt lat="31.7035187" lon="35.3719541">
<ele>61.660000</ele>
<time>2012-04-14T08:23:10.000Z</time>
</trkpt>
<trkpt lat="31.7035452" lon="35.3720385">
<ele>61.660000</ele>
<time>2012-04-14T08:23:11.000Z</time>
</trkpt>
<trkpt lat="31.7035823" lon="35.3721178">
<ele>61.660000</ele>
<time>2012-04-14T08:23:12.000Z</time>
</trkpt>
<trkpt lat="31.7036266" lon="35.3721936">
<ele>61.660000</ele>
<time>2012-04-14T08:23:13.000Z</time>
</trkpt>
<trkpt lat="31.7036634" lon="35.3722649">
<ele>60.700001</ele>
<time>2012-04-14T08:23:14.000Z</time>
</trkpt>
<trkpt lat="31.7036884" lon="35.3723293">
<ele>60.700001</ele>
<time>2012-04-14T08:23:15.000Z</time>
</trkpt>
<trkpt lat="31.7037220" lon="35.3724378">
<ele>61.180000</ele>
<time>2012-04-14T08:23:17.000Z</time>
</trkpt>
<trkpt lat="31.7039245" lon="35.3731132">
<ele>64.070000</ele>
<time>2012-04-14T08:23:33.000Z</time>
</trkpt>
<trkpt lat="31.7039980" lon="35.3734026">
<ele>65.029999</ele>
<time>2012-04-14T08:23:40.000Z</time>
</trkpt>
<trkpt lat="31.7040012" lon="35.3734446">
<ele>65.510002</ele>
<time>2012-04-14T08:23:41.000Z</time>
</trkpt>
<trkpt lat="31.7041318" lon="35.3739119">
<ele>68.389999</ele>
<time>2012-04-14T08:23:55.000Z</time>
</trkpt>
<trkpt lat="31.7042146" lon="35.3740447">
<ele>68.389999</ele>
<time>2012-04-14T08:24:01.000Z</time>
</trkpt>
<trkpt lat="31.7043551" lon="35.3742610">
<ele>66.950005</ele>
<time>2012-04-14T08:24:07.000Z</time>
</trkpt>
<trkpt lat="31.7043911" lon="35.3743202">
<ele>66.470001</ele>
<time>2012-04-14T08:24:08.000Z</time>
</trkpt>
<trkpt lat="31.7044248" lon="35.3743900">
<ele>65.510002</ele>
<time>2012-04-14T08:24:09.000Z</time>
</trkpt>
<trkpt lat="31.7044523" lon="35.3744667">
<ele>65.029999</ele>
<time>2012-04-14T08:24:10.000Z</time>
</trkpt>
<trkpt lat="31.7044754" lon="35.3745474">
<ele>65.029999</ele>
<time>2012-04-14T08:24:11.000Z</time>
</trkpt>
<trkpt lat="31.7044943" lon="35.3746292">
<ele>65.029999</ele>
<time>2012-04-14T08:24:12.000Z</time>
</trkpt>
<trkpt lat="31.7045053" lon="35.3747133">
<ele>64.550003</ele>
<time>2012-04-14T08:24:13.000Z</time>
</trkpt>
<trkpt lat="31.7045153" lon="35.3747995">
<ele>63.579998</ele>
<time>2012-04-14T08:24:14.000Z</time>
</trkpt>
<trkpt lat="31.7045329" lon="35.3748832">
<ele>62.620003</ele>
<time>2012-04-14T08:24:15.000Z</time>
</trkpt>
<trkpt lat="31.7047742" lon="35.3757191">
<ele>61.180000</ele>
<time>2012-04-14T08:24:27.000Z</time>
</trkpt>
<trkpt lat="31.7049447" lon="35.3760098">
<ele>60.700001</ele>
<time>2012-04-14T08:24:34.000Z</time>
</trkpt>
<trkpt lat="31.7049833" lon="35.3760531">
<ele>60.219997</ele>
<time>2012-04-14T08:24:35.000Z</time>
</trkpt>
<trkpt lat="31.7050227" lon="35.3760997">
<ele>60.219997</ele>
<time>2012-04-14T08:24:36.000Z</time>
</trkpt>
<trkpt lat="31.7050928" lon="35.3762010">
<ele>60.219997</ele>
<time>2012-04-14T08:24:38.000Z</time>
</trkpt>
<trkpt lat="31.7051235" lon="35.3762565">
<ele>60.700001</ele>
<time>2012-04-14T08:24:39.000Z</time>
</trkpt>
<trkpt lat="31.7054472" lon="35.3768158">
<ele>59.740002</ele>
<time>2012-04-14T08:24:50.000Z</time>
</trkpt>
<trkpt lat="31.7054914" lon="35.3769049">
<ele>61.180000</ele>
<time>2012-04-14T08:24:52.000Z</time>
</trkpt>
<trkpt lat="31.7055077" lon="35.3769495">
<ele>61.180000</ele>
<time>2012-04-14T08:24:53.000Z</time>
</trkpt>
<trkpt lat="31.7055267" lon="35.3769930">
<ele>61.180000</ele>
<time>2012-04-14T08:24:54.000Z</time>
</trkpt>
<trkpt lat="31.7057372" lon="35.3774949">
<ele>63.099998</ele>
<time>2012-04-14T08:25:08.000Z</time>
</trkpt>
<trkpt lat="31.7059702" lon="35.3780587">
<ele>63.579998</ele>
<time>2012-04-14T08:25:22.000Z</time>
</trkpt>
<trkpt lat="31.7061077" lon="35.3783191">
<ele>63.099998</ele>
<time>2012-04-14T08:25:28.000Z</time>
</trkpt>
<trkpt lat="31.7061233" lon="35.3783709">
<ele>63.099998</ele>
<time>2012-04-14T08:25:29.000Z</time>
</trkpt>
<trkpt lat="31.7061506" lon="35.3784714">
<ele>63.579998</ele>
<time>2012-04-14T08:25:31.000Z</time>
</trkpt>
<trkpt lat="31.7061675" lon="35.3788969">
<ele>63.579998</ele>
<time>2012-04-14T08:25:43.000Z</time>
</trkpt>
<trkpt lat="31.7061718" lon="35.3790143">
<ele>63.099998</ele>
<time>2012-04-14T08:25:46.000Z</time>
</trkpt>
<trkpt lat="31.7061674" lon="35.3790729">
<ele>61.660000</ele>
<time>2012-04-14T08:25:47.000Z</time>
</trkpt>
<trkpt lat="31.7061583" lon="35.3791381">
<ele>60.219997</ele>
<time>2012-04-14T08:25:48.000Z</time>
</trkpt>
<trkpt lat="31.7061100" lon="35.3794246">
<ele>57.339996</ele>
<time>2012-04-14T08:25:52.000Z</time>
</trkpt>
<trkpt lat="31.7060923" lon="35.3795127">
<ele>57.339996</ele>
<time>2012-04-14T08:25:59.000Z</time>
</trkpt>
<trkpt lat="31.7061014" lon="35.3795104">
<ele>57.339996</ele>
<time>2012-04-14T08:26:19.000Z</time>
</trkpt>
<trkpt lat="31.7061031" lon="35.3795198">
<ele>57.339996</ele>
<time>2012-04-14T08:26:46.000Z</time>
</trkpt>
<trkpt lat="31.7061069" lon="35.3795177">
<ele>56.860001</ele>
<time>2012-04-14T08:27:08.000Z</time>
</trkpt>
<trkpt lat="31.7061220" lon="35.3795280">
<ele>57.339996</ele>
<time>2012-04-14T08:27:15.000Z</time>
</trkpt>
<trkpt lat="31.7061366" lon="35.3795299">
<ele>57.339996</ele>
<time>2012-04-14T08:27:16.000Z</time>
</trkpt>
<trkpt lat="31.7065279" lon="35.3796087">
<ele>57.339996</ele>
<time>2012-04-14T08:27:28.000Z</time>
</trkpt>
<trkpt lat="31.7069319" lon="35.3797400">
<ele>56.860001</ele>
<time>2012-04-14T08:27:38.000Z</time>
</trkpt>
<trkpt lat="31.7076810" lon="35.3799328">
<ele>55.410000</ele>
<time>2012-04-14T08:27:53.000Z</time>
</trkpt>
<trkpt lat="31.7087042" lon="35.3802021">
<ele>53.010002</ele>
<time>2012-04-14T08:28:10.000Z</time>
</trkpt>
<trkpt lat="31.7095380" lon="35.3805310">
<ele>49.160000</ele>
<time>2012-04-14T08:28:22.000Z</time>
</trkpt>
<trkpt lat="31.7103373" lon="35.3811194">
<ele>47.719997</ele>
<time>2012-04-14T08:28:35.000Z</time>
</trkpt>
<trkpt lat="31.7109180" lon="35.3815771">
<ele>44.360001</ele>
<time>2012-04-14T08:28:44.000Z</time>
</trkpt>
<trkpt lat="31.7115662" lon="35.3820889">
<ele>41.469997</ele>
<time>2012-04-14T08:28:53.000Z</time>
</trkpt>
<trkpt lat="31.7117869" lon="35.3822770">
<ele>40.029999</ele>
<time>2012-04-14T08:28:56.000Z</time>
</trkpt>
<trkpt lat="31.7120196" lon="35.3824593">
<ele>39.070000</ele>
<time>2012-04-14T08:28:59.000Z</time>
</trkpt>
<trkpt lat="31.7123153" lon="35.3826982">
<ele>37.630001</ele>
<time>2012-04-14T08:29:03.000Z</time>
</trkpt>
<trkpt lat="31.7129099" lon="35.3832164">
<ele>34.259998</ele>
<time>2012-04-14T08:29:11.000Z</time>
</trkpt>
<trkpt lat="31.7136989" lon="35.3839338">
<ele>30.900000</ele>
<time>2012-04-14T08:29:22.000Z</time>
</trkpt>
<trkpt lat="31.7142962" lon="35.3848328">
<ele>29.459999</ele>
<time>2012-04-14T08:29:33.000Z</time>
</trkpt>
<trkpt lat="31.7147892" lon="35.3860375">
<ele>26.090000</ele>
<time>2012-04-14T08:29:47.000Z</time>
</trkpt>
<trkpt lat="31.7153630" lon="35.3873853">
<ele>23.209999</ele>
<time>2012-04-14T08:30:03.000Z</time>
</trkpt>
<trkpt lat="31.7159102" lon="35.3885663">
<ele>20.320000</ele>
<time>2012-04-14T08:30:19.000Z</time>
</trkpt>
<trkpt lat="31.7167190" lon="35.3897619">
<ele>18.400000</ele>
<time>2012-04-14T08:30:35.000Z</time>
</trkpt>
<trkpt lat="31.7175607" lon="35.3909464">
<ele>15.040001</ele>
<time>2012-04-14T08:30:51.000Z</time>
</trkpt>
<trkpt lat="31.7184824" lon="35.3922095">
<ele>12.150001</ele>
<time>2012-04-14T08:31:08.000Z</time>
</trkpt>
<trkpt lat="31.7192252" lon="35.3931808">
<ele>10.230000</ele>
<time>2012-04-14T08:31:22.000Z</time>
</trkpt>
<trkpt lat="31.7192897" lon="35.3932319">
<ele>10.230000</ele>
<time>2012-04-14T08:31:23.000Z</time>
</trkpt>
<trkpt lat="31.7201740" lon="35.3936791">
<ele>9.750000</ele>
<time>2012-04-14T08:31:37.000Z</time>
</trkpt>
<trkpt lat="31.7208405" lon="35.3939209">
<ele>8.790000</ele>
<time>2012-04-14T08:31:52.000Z</time>
</trkpt>
<trkpt lat="31.7209384" lon="35.3939441">
<ele>8.309999</ele>
<time>2012-04-14T08:31:54.000Z</time>
</trkpt>
<trkpt lat="31.7217612" lon="35.3942807">
<ele>7.830000</ele>
<time>2012-04-14T08:32:09.000Z</time>
</trkpt>
<trkpt lat="31.7228272" lon="35.3946832">
<ele>4.940000</ele>
<time>2012-04-14T08:32:25.000Z</time>
</trkpt>
<trkpt lat="31.7239757" lon="35.3951124">
<ele>3.020000</ele>
<time>2012-04-14T08:32:42.000Z</time>
</trkpt>
<trkpt lat="31.7251483" lon="35.3955648">
<ele>1.100000</ele>
<time>2012-04-14T08:33:00.000Z</time>
</trkpt>
<trkpt lat="31.7264254" lon="35.3961457">
<ele>-1.300000</ele>
<time>2012-04-14T08:33:20.000Z</time>
</trkpt>
<trkpt lat="31.7273889" lon="35.3968078">
<ele>-2.270000</ele>
<time>2012-04-14T08:33:37.000Z</time>
</trkpt>
<trkpt lat="31.7282085" lon="35.3973481">
<ele>-1.300000</ele>
<time>2012-04-14T08:33:54.000Z</time>
</trkpt>
<trkpt lat="31.7290494" lon="35.3977657">
<ele>-1.790000</ele>
<time>2012-04-14T08:34:11.000Z</time>
</trkpt>
<trkpt lat="31.7300186" lon="35.3982061">
<ele>-2.750000</ele>
<time>2012-04-14T08:34:30.000Z</time>
</trkpt>
<trkpt lat="31.7308324" lon="35.3985805">
<ele>-3.230000</ele>
<time>2012-04-14T08:34:46.000Z</time>
</trkpt>
<trkpt lat="31.7314761" lon="35.3988706">
<ele>-3.230000</ele>
<time>2012-04-14T08:35:00.000Z</time>
</trkpt>
<trkpt lat="31.7322996" lon="35.3992293">
<ele>-1.790000</ele>
<time>2012-04-14T08:35:20.000Z</time>
</trkpt>
<trkpt lat="31.7327722" lon="35.3993997">
<ele>-1.300000</ele>
<time>2012-04-14T08:35:35.000Z</time>
</trkpt>
<trkpt lat="31.7332534" lon="35.3996022">
<ele>1.100000</ele>
<time>2012-04-14T08:35:49.000Z</time>
</trkpt>
<trkpt lat="31.7338152" lon="35.3998351">
<ele>2.060000</ele>
<time>2012-04-14T08:36:05.000Z</time>
</trkpt>
<trkpt lat="31.7344575" lon="35.4000820">
<ele>3.980000</ele>
<time>2012-04-14T08:36:22.000Z</time>
</trkpt>
<trkpt lat="31.7353011" lon="35.4004178">
<ele>3.500000</ele>
<time>2012-04-14T08:36:42.000Z</time>
</trkpt>
<trkpt lat="31.7361267" lon="35.4007363">
<ele>3.020000</ele>
<time>2012-04-14T08:36:58.000Z</time>
</trkpt>
<trkpt lat="31.7371567" lon="35.4011447">
<ele>-0.340000</ele>
<time>2012-04-14T08:37:15.000Z</time>
</trkpt>
<trkpt lat="31.7372264" lon="35.4011720">
<ele>-0.820000</ele>
<time>2012-04-14T08:37:16.000Z</time>
</trkpt>
<trkpt lat="31.7382712" lon="35.4015787">
<ele>-3.230000</ele>
<time>2012-04-14T08:37:31.000Z</time>
</trkpt>
<trkpt lat="31.7392388" lon="35.4019484">
<ele>-5.630000</ele>
<time>2012-04-14T08:37:45.000Z</time>
</trkpt>
<trkpt lat="31.7401810" lon="35.4023170">
<ele>-5.150000</ele>
<time>2012-04-14T08:38:01.000Z</time>
</trkpt>
<trkpt lat="31.7410148" lon="35.4026388">
<ele>-4.190000</ele>
<time>2012-04-14T08:38:18.000Z</time>
</trkpt>
<trkpt lat="31.7411958" lon="35.4026949">
<ele>-4.670000</ele>
<time>2012-04-14T08:38:22.000Z</time>
</trkpt>
<trkpt lat="31.7421009" lon="35.4030515">
<ele>-3.710000</ele>
<time>2012-04-14T08:38:42.000Z</time>
</trkpt>
<trkpt lat="31.7429355" lon="35.4033973">
<ele>-3.710000</ele>
<time>2012-04-14T08:38:59.000Z</time>
</trkpt>
<trkpt lat="31.7437108" lon="35.4037646">
<ele>-5.630000</ele>
<time>2012-04-14T08:39:15.000Z</time>
</trkpt>
<trkpt lat="31.7444977" lon="35.4041486">
<ele>-6.110000</ele>
<time>2012-04-14T08:39:30.000Z</time>
</trkpt>
<trkpt lat="31.7449324" lon="35.4043764">
<ele>-7.550000</ele>
<time>2012-04-14T08:39:38.000Z</time>
</trkpt>
<trkpt lat="31.7452834" lon="35.4045441">
<ele>-8.030000</ele>
<time>2012-04-14T08:39:48.000Z</time>
</trkpt>
<trkpt lat="31.7452790" lon="35.4045400">
<ele>-8.509999</ele>
<time>2012-04-14T08:40:13.000Z</time>
</trkpt>
<trkpt lat="31.7452800" lon="35.4045286">
<ele>-9.000000</ele>
<time>2012-04-14T08:40:44.000Z</time>
</trkpt>
<trkpt lat="31.7452742" lon="35.4045266">
<ele>-9.000000</ele>
<time>2012-04-14T08:41:09.000Z</time>
</trkpt>
<trkpt lat="31.7452807" lon="35.4045366">
<ele>-8.030000</ele>
<time>2012-04-14T08:41:42.000Z</time>
</trkpt>
<trkpt lat="31.7452840" lon="35.4045310">
<ele>-8.030000</ele>
<time>2012-04-14T08:42:02.000Z</time>
</trkpt>
<trkpt lat="31.7452865" lon="35.4045300">
<ele>-8.509999</ele>
<time>2012-04-14T08:42:23.000Z</time>
</trkpt>
<trkpt lat="31.7452786" lon="35.4045335">
<ele>-8.509999</ele>
<time>2012-04-14T08:42:52.000Z</time>
</trkpt>
<trkpt lat="31.7452751" lon="35.4045239">
<ele>-9.000000</ele>
<time>2012-04-14T08:43:07.000Z</time>
</trkpt>
<trkpt lat="31.7452637" lon="35.4045214">
<ele>-8.509999</ele>
<time>2012-04-14T08:43:26.000Z</time>
</trkpt>
<trkpt lat="31.7452630" lon="35.4045141">
<ele>-8.509999</ele>
<time>2012-04-14T08:43:55.000Z</time>
</trkpt>
<trkpt lat="31.7452799" lon="35.4045501">
<ele>-8.509999</ele>
<time>2012-04-14T08:44:14.000Z</time>
</trkpt>
<trkpt lat="31.7456647" lon="35.4047088">
<ele>-9.000000</ele>
<time>2012-04-14T08:44:26.000Z</time>
</trkpt>
<trkpt lat="31.7465294" lon="35.4051604">
<ele>-10.440000</ele>
<time>2012-04-14T08:44:43.000Z</time>
</trkpt>
<trkpt lat="31.7477148" lon="35.4057418">
<ele>-11.400000</ele>
<time>2012-04-14T08:45:02.000Z</time>
</trkpt>
<trkpt lat="31.7488000" lon="35.4062888">
<ele>-14.280001</ele>
<time>2012-04-14T08:45:19.000Z</time>
</trkpt>
<trkpt lat="31.7497372" lon="35.4067652">
<ele>-15.240000</ele>
<time>2012-04-14T08:45:35.000Z</time>
</trkpt>
<trkpt lat="31.7501374" lon="35.4069510">
<ele>-15.719999</ele>
<time>2012-04-14T08:45:47.000Z</time>
</trkpt>
<trkpt lat="31.7504103" lon="35.4070954">
<ele>-15.719999</ele>
<time>2012-04-14T08:45:56.000Z</time>
</trkpt>
<trkpt lat="31.7504490" lon="35.4071185">
<ele>-15.719999</ele>
<time>2012-04-14T08:45:57.000Z</time>
</trkpt>
<trkpt lat="31.7512849" lon="35.4075474">
<ele>-16.210001</ele>
<time>2012-04-14T08:46:14.000Z</time>
</trkpt>
<trkpt lat="31.7522400" lon="35.4080332">
<ele>-15.719999</ele>
<time>2012-04-14T08:46:31.000Z</time>
</trkpt>
<trkpt lat="31.7532785" lon="35.4085905">
<ele>-15.719999</ele>
<time>2012-04-14T08:46:50.000Z</time>
</trkpt>
<trkpt lat="31.7542513" lon="35.4089795">
<ele>-15.240000</ele>
<time>2012-04-14T08:47:08.000Z</time>
</trkpt>
<trkpt lat="31.7548559" lon="35.4090265">
<ele>-16.210001</ele>
<time>2012-04-14T08:47:19.000Z</time>
</trkpt>
<trkpt lat="31.7549148" lon="35.4090215">
<ele>-15.719999</ele>
<time>2012-04-14T08:47:20.000Z</time>
</trkpt>
<trkpt lat="31.7558815" lon="35.4087670">
<ele>-15.719999</ele>
<time>2012-04-14T08:47:37.000Z</time>
</trkpt>
<trkpt lat="31.7567927" lon="35.4084094">
<ele>-15.240000</ele>
<time>2012-04-14T08:47:53.000Z</time>
</trkpt>
<trkpt lat="31.7574789" lon="35.4081404">
<ele>-15.240000</ele>
<time>2012-04-14T08:48:05.000Z</time>
</trkpt>
<trkpt lat="31.7575361" lon="35.4081108">
<ele>-14.760000</ele>
<time>2012-04-14T08:48:06.000Z</time>
</trkpt>
<trkpt lat="31.7576463" lon="35.4080497">
<ele>-14.760000</ele>
<time>2012-04-14T08:48:08.000Z</time>
</trkpt>
<trkpt lat="31.7585838" lon="35.4076791">
<ele>-14.760000</ele>
<time>2012-04-14T08:48:24.000Z</time>
</trkpt>
<trkpt lat="31.7595185" lon="35.4073007">
<ele>-15.240000</ele>
<time>2012-04-14T08:48:40.000Z</time>
</trkpt>
<trkpt lat="31.7599759" lon="35.4070935">
<ele>-14.760000</ele>
<time>2012-04-14T08:48:48.000Z</time>
</trkpt>
<trkpt lat="31.7600337" lon="35.4070746">
<ele>-14.760000</ele>
<time>2012-04-14T08:48:49.000Z</time>
</trkpt>
<trkpt lat="31.7612449" lon="35.4066996">
<ele>-14.760000</ele>
<time>2012-04-14T08:49:10.000Z</time>
</trkpt>
<trkpt lat="31.7618203" lon="35.4065603">
<ele>-16.210001</ele>
<time>2012-04-14T08:49:19.000Z</time>
</trkpt>
<trkpt lat="31.7627648" lon="35.4063442">
<ele>-17.170000</ele>
<time>2012-04-14T08:49:33.000Z</time>
</trkpt>
<trkpt lat="31.7632689" lon="35.4060470">
<ele>-19.570002</ele>
<time>2012-04-14T08:49:41.000Z</time>
</trkpt>
<trkpt lat="31.7636122" lon="35.4058148">
<ele>-22.930000</ele>
<time>2012-04-14T08:49:46.000Z</time>
</trkpt>
<trkpt lat="31.7636850" lon="35.4057660">
<ele>-22.930000</ele>
<time>2012-04-14T08:49:47.000Z</time>
</trkpt>
<trkpt lat="31.7640863" lon="35.4055364">
<ele>-26.299999</ele>
<time>2012-04-14T08:49:52.000Z</time>
</trkpt>
<trkpt lat="31.7645916" lon="35.4052418">
<ele>-29.659998</ele>
<time>2012-04-14T08:49:58.000Z</time>
</trkpt>
<trkpt lat="31.7649580" lon="35.4050394">
<ele>-33.029999</ele>
<time>2012-04-14T08:50:02.000Z</time>
</trkpt>
<trkpt lat="31.7653401" lon="35.4048333">
<ele>-36.869999</ele>
<time>2012-04-14T08:50:06.000Z</time>
</trkpt>
<trkpt lat="31.7655431" lon="35.4047583">
<ele>-39.279999</ele>
<time>2012-04-14T08:50:08.000Z</time>
</trkpt>
<trkpt lat="31.7656499" lon="35.4047387">
<ele>-40.719997</ele>
<time>2012-04-14T08:50:09.000Z</time>
</trkpt>
<trkpt lat="31.7657604" lon="35.4047304">
<ele>-41.680000</ele>
<time>2012-04-14T08:50:10.000Z</time>
</trkpt>
<trkpt lat="31.7658722" lon="35.4047355">
<ele>-43.119999</ele>
<time>2012-04-14T08:50:11.000Z</time>
</trkpt>
<trkpt lat="31.7659825" lon="35.4047565">
<ele>-43.599998</ele>
<time>2012-04-14T08:50:12.000Z</time>
</trkpt>
<trkpt lat="31.7660966" lon="35.4047826">
<ele>-45.530003</ele>
<time>2012-04-14T08:50:13.000Z</time>
</trkpt>
<trkpt lat="31.7665627" lon="35.4048946">
<ele>-49.369999</ele>
<time>2012-04-14T08:50:17.000Z</time>
</trkpt>
<trkpt lat="31.7670311" lon="35.4049992">
<ele>-53.219997</ele>
<time>2012-04-14T08:50:21.000Z</time>
</trkpt>
<trkpt lat="31.7673528" lon="35.4051173">
<ele>-55.619999</ele>
<time>2012-04-14T08:50:24.000Z</time>
</trkpt>
<trkpt lat="31.7674535" lon="35.4051784">
<ele>-56.580002</ele>
<time>2012-04-14T08:50:25.000Z</time>
</trkpt>
<trkpt lat="31.7675493" lon="35.4052457">
<ele>-57.060001</ele>
<time>2012-04-14T08:50:26.000Z</time>
</trkpt>
<trkpt lat="31.7676388" lon="35.4053230">
<ele>-57.540001</ele>
<time>2012-04-14T08:50:27.000Z</time>
</trkpt>
<trkpt lat="31.7677245" lon="35.4054059">
<ele>-57.540001</ele>
<time>2012-04-14T08:50:28.000Z</time>
</trkpt>
<trkpt lat="31.7678061" lon="35.4054957">
<ele>-58.500000</ele>
<time>2012-04-14T08:50:29.000Z</time>
</trkpt>
<trkpt lat="31.7678811" lon="35.4055912">
<ele>-59.459999</ele>
<time>2012-04-14T08:50:30.000Z</time>
</trkpt>
<trkpt lat="31.7679480" lon="35.4056964">
<ele>-59.950001</ele>
<time>2012-04-14T08:50:31.000Z</time>
</trkpt>
<trkpt lat="31.7680066" lon="35.4058063">
<ele>-60.430000</ele>
<time>2012-04-14T08:50:32.000Z</time>
</trkpt>
<trkpt lat="31.7680588" lon="35.4059197">
<ele>-60.910000</ele>
<time>2012-04-14T08:50:33.000Z</time>
</trkpt>
<trkpt lat="31.7681029" lon="35.4060360">
<ele>-61.390003</ele>
<time>2012-04-14T08:50:34.000Z</time>
</trkpt>
<trkpt lat="31.7682912" lon="35.4066015">
<ele>-64.750000</ele>
<time>2012-04-14T08:50:39.000Z</time>
</trkpt>
<trkpt lat="31.7684466" lon="35.4070449">
<ele>-66.669998</ele>
<time>2012-04-14T08:50:43.000Z</time>
</trkpt>
<trkpt lat="31.7685406" lon="35.4072552">
<ele>-68.599998</ele>
<time>2012-04-14T08:50:45.000Z</time>
</trkpt>
<trkpt lat="31.7685980" lon="35.4073506">
<ele>-68.599998</ele>
<time>2012-04-14T08:50:46.000Z</time>
</trkpt>
<trkpt lat="31.7686633" lon="35.4074402">
<ele>-69.080002</ele>
<time>2012-04-14T08:50:47.000Z</time>
</trkpt>
<trkpt lat="31.7687354" lon="35.4075240">
<ele>-69.559998</ele>
<time>2012-04-14T08:50:48.000Z</time>
</trkpt>
<trkpt lat="31.7688151" lon="35.4075966">
<ele>-70.040001</ele>
<time>2012-04-14T08:50:49.000Z</time>
</trkpt>
<trkpt lat="31.7689006" lon="35.4076623">
<ele>-70.519997</ele>
<time>2012-04-14T08:50:50.000Z</time>
</trkpt>
<trkpt lat="31.7691740" lon="35.4078206">
<ele>-73.400002</ele>
<time>2012-04-14T08:50:53.000Z</time>
</trkpt>
<trkpt lat="31.7693750" lon="35.4078907">
<ele>-75.330002</ele>
<time>2012-04-14T08:50:55.000Z</time>
</trkpt>
<trkpt lat="31.7694802" lon="35.4079075">
<ele>-75.809998</ele>
<time>2012-04-14T08:50:56.000Z</time>
</trkpt>
<trkpt lat="31.7699085" lon="35.4079054">
<ele>-79.650002</ele>
<time>2012-04-14T08:51:00.000Z</time>
</trkpt>
<trkpt lat="31.7700169" lon="35.4078845">
<ele>-80.610001</ele>
<time>2012-04-14T08:51:01.000Z</time>
</trkpt>
<trkpt lat="31.7701249" lon="35.4078551">
<ele>-82.059998</ele>
<time>2012-04-14T08:51:02.000Z</time>
</trkpt>
<trkpt lat="31.7703368" lon="35.4077721">
<ele>-82.540001</ele>
<time>2012-04-14T08:51:04.000Z</time>
</trkpt>
<trkpt lat="31.7704360" lon="35.4077187">
<ele>-83.500000</ele>
<time>2012-04-14T08:51:05.000Z</time>
</trkpt>
<trkpt lat="31.7706274" lon="35.4075997">
<ele>-84.939995</ele>
<time>2012-04-14T08:51:07.000Z</time>
</trkpt>
<trkpt lat="31.7709747" lon="35.4073674">
<ele>-86.860001</ele>
<time>2012-04-14T08:51:11.000Z</time>
</trkpt>
<trkpt lat="31.7716918" lon="35.4068952">
<ele>-85.900002</ele>
<time>2012-04-14T08:51:21.000Z</time>
</trkpt>
<trkpt lat="31.7717559" lon="35.4068634">
<ele>-85.900002</ele>
<time>2012-04-14T08:51:22.000Z</time>
</trkpt>
<trkpt lat="31.7718212" lon="35.4068402">
<ele>-85.419998</ele>
<time>2012-04-14T08:51:23.000Z</time>
</trkpt>
<trkpt lat="31.7721140" lon="35.4067677">
<ele>-84.939995</ele>
<time>2012-04-14T08:51:28.000Z</time>
</trkpt>
<trkpt lat="31.7721661" lon="35.4067663">
<ele>-83.979996</ele>
<time>2012-04-14T08:51:29.000Z</time>
</trkpt>
<trkpt lat="31.7725728" lon="35.4068699">
<ele>-81.570000</ele>
<time>2012-04-14T08:51:42.000Z</time>
</trkpt>
<trkpt lat="31.7730001" lon="35.4072459">
<ele>-80.130005</ele>
<time>2012-04-14T08:51:58.000Z</time>
</trkpt>
<trkpt lat="31.7733630" lon="35.4078234">
<ele>-78.689995</ele>
<time>2012-04-14T08:52:14.000Z</time>
</trkpt>
<trkpt lat="31.7733871" lon="35.4078621">
<ele>-79.169998</ele>
<time>2012-04-14T08:52:15.000Z</time>
</trkpt>
<trkpt lat="31.7734123" lon="35.4079009">
<ele>-79.650002</ele>
<time>2012-04-14T08:52:16.000Z</time>
</trkpt>
<trkpt lat="31.7738735" lon="35.4086724">
<ele>-82.059998</ele>
<time>2012-04-14T08:52:31.000Z</time>
</trkpt>
<trkpt lat="31.7744437" lon="35.4096360">
<ele>-84.939995</ele>
<time>2012-04-14T08:52:45.000Z</time>
</trkpt>
<trkpt lat="31.7744875" lon="35.4096940">
<ele>-84.939995</ele>
<time>2012-04-14T08:52:46.000Z</time>
</trkpt>
<trkpt lat="31.7751142" lon="35.4102132">
<ele>-83.979996</ele>
<time>2012-04-14T08:53:00.000Z</time>
</trkpt>
<trkpt lat="31.7760557" lon="35.4105270">
<ele>-84.459999</ele>
<time>2012-04-14T08:53:17.000Z</time>
</trkpt>
<trkpt lat="31.7767269" lon="35.4106987">
<ele>-84.939995</ele>
<time>2012-04-14T08:53:27.000Z</time>
</trkpt>
<trkpt lat="31.7767821" lon="35.4107253">
<ele>-84.939995</ele>
<time>2012-04-14T08:53:28.000Z</time>
</trkpt>
<trkpt lat="31.7768329" lon="35.4107590">
<ele>-84.939995</ele>
<time>2012-04-14T08:53:29.000Z</time>
</trkpt>
<trkpt lat="31.7770804" lon="35.4109950">
<ele>-83.979996</ele>
<time>2012-04-14T08:53:35.000Z</time>
</trkpt>
<trkpt lat="31.7771092" lon="35.4110343">
<ele>-83.979996</ele>
<time>2012-04-14T08:53:36.000Z</time>
</trkpt>
<trkpt lat="31.7771337" lon="35.4110733">
<ele>-83.979996</ele>
<time>2012-04-14T08:53:37.000Z</time>
</trkpt>
<trkpt lat="31.7771529" lon="35.4111138">
<ele>-83.500000</ele>
<time>2012-04-14T08:53:38.000Z</time>
</trkpt>
<trkpt lat="31.7771686" lon="35.4111541">
<ele>-83.020004</ele>
<time>2012-04-14T08:53:39.000Z</time>
</trkpt>
<trkpt lat="31.7771838" lon="35.4111943">
<ele>-83.500000</ele>
<time>2012-04-14T08:53:40.000Z</time>
</trkpt>
<trkpt lat="31.7772002" lon="35.4112350">
<ele>-83.500000</ele>
<time>2012-04-14T08:53:41.000Z</time>
</trkpt>
<trkpt lat="31.7772923" lon="35.4116147">
<ele>-81.089996</ele>
<time>2012-04-14T08:53:54.000Z</time>
</trkpt>
<trkpt lat="31.7774036" lon="35.4119389">
<ele>-79.169998</ele>
<time>2012-04-14T08:54:07.000Z</time>
</trkpt>
<trkpt lat="31.7776209" lon="35.4122976">
<ele>-78.209999</ele>
<time>2012-04-14T08:54:21.000Z</time>
</trkpt>
<trkpt lat="31.7780173" lon="35.4126512">
<ele>-78.209999</ele>
<time>2012-04-14T08:54:34.000Z</time>
</trkpt>
<trkpt lat="31.7786703" lon="35.4131703">
<ele>-81.089996</ele>
<time>2012-04-14T08:54:48.000Z</time>
</trkpt>
<trkpt lat="31.7789075" lon="35.4134094">
<ele>-82.059998</ele>
<time>2012-04-14T08:54:53.000Z</time>
</trkpt>
<trkpt lat="31.7792856" lon="35.4140107">
<ele>-85.419998</ele>
<time>2012-04-14T08:55:03.000Z</time>
</trkpt>
<trkpt lat="31.7797265" lon="35.4148824">
<ele>-88.299995</ele>
<time>2012-04-14T08:55:16.000Z</time>
</trkpt>
<trkpt lat="31.7800632" lon="35.4154576">
<ele>-91.670006</ele>
<time>2012-04-14T08:55:24.000Z</time>
</trkpt>
<trkpt lat="31.7801593" lon="35.4156203">
<ele>-92.150002</ele>
<time>2012-04-14T08:55:26.000Z</time>
</trkpt>
<trkpt lat="31.7806876" lon="35.4165949">
<ele>-94.070000</ele>
<time>2012-04-14T08:55:39.000Z</time>
</trkpt>
<trkpt lat="31.7810231" lon="35.4174564">
<ele>-97.439995</ele>
<time>2012-04-14T08:55:50.000Z</time>
</trkpt>
<trkpt lat="31.7809616" lon="35.4184729">
<ele>-97.920006</ele>
<time>2012-04-14T08:56:02.000Z</time>
</trkpt>
<trkpt lat="31.7806459" lon="35.4191318">
<ele>-96.959999</ele>
<time>2012-04-14T08:56:14.000Z</time>
</trkpt>
<trkpt lat="31.7802595" lon="35.4198055">
<ele>-95.030006</ele>
<time>2012-04-14T08:56:31.000Z</time>
</trkpt>
<trkpt lat="31.7800746" lon="35.4202602">
<ele>-91.670006</ele>
<time>2012-04-14T08:56:45.000Z</time>
</trkpt>
<trkpt lat="31.7800595" lon="35.4203539">
<ele>-90.709999</ele>
<time>2012-04-14T08:56:49.000Z</time>
</trkpt>
<trkpt lat="31.7800510" lon="35.4203791">
<ele>-90.709999</ele>
<time>2012-04-14T08:56:50.000Z</time>
</trkpt>
<trkpt lat="31.7800483" lon="35.4204053">
<ele>-90.229996</ele>
<time>2012-04-14T08:56:51.000Z</time>
</trkpt>
<trkpt lat="31.7800647" lon="35.4208622">
<ele>-87.820000</ele>
<time>2012-04-14T08:57:08.000Z</time>
</trkpt>
<trkpt lat="31.7801661" lon="35.4213294">
<ele>-86.380005</ele>
<time>2012-04-14T08:57:25.000Z</time>
</trkpt>
<trkpt lat="31.7803413" lon="35.4218143">
<ele>-85.900002</ele>
<time>2012-04-14T08:57:41.000Z</time>
</trkpt>
<trkpt lat="31.7805985" lon="35.4224556">
<ele>-85.419998</ele>
<time>2012-04-14T08:57:59.000Z</time>
</trkpt>
<trkpt lat="31.7808038" lon="35.4229696">
<ele>-83.979996</ele>
<time>2012-04-14T08:58:13.000Z</time>
</trkpt>
<trkpt lat="31.7809734" lon="35.4234157">
<ele>-81.089996</ele>
<time>2012-04-14T08:58:26.000Z</time>
</trkpt>
<trkpt lat="31.7811494" lon="35.4239605">
<ele>-78.689995</ele>
<time>2012-04-14T08:58:42.000Z</time>
</trkpt>
<trkpt lat="31.7813204" lon="35.4245028">
<ele>-78.689995</ele>
<time>2012-04-14T08:58:58.000Z</time>
</trkpt>
<trkpt lat="31.7814781" lon="35.4248751">
<ele>-79.169998</ele>
<time>2012-04-14T08:59:07.000Z</time>
</trkpt>
<trkpt lat="31.7815006" lon="35.4249247">
<ele>-79.650002</ele>
<time>2012-04-14T08:59:08.000Z</time>
</trkpt>
<trkpt lat="31.7815246" lon="35.4249764">
<ele>-79.650002</ele>
<time>2012-04-14T08:59:09.000Z</time>
</trkpt>
<trkpt lat="31.7819230" lon="35.4257294">
<ele>-83.020004</ele>
<time>2012-04-14T08:59:23.000Z</time>
</trkpt>
<trkpt lat="31.7819998" lon="35.4258447">
<ele>-83.020004</ele>
<time>2012-04-14T08:59:25.000Z</time>
</trkpt>
<trkpt lat="31.7824781" lon="35.4264265">
<ele>-85.900002</ele>
<time>2012-04-14T08:59:35.000Z</time>
</trkpt>
<trkpt lat="31.7830101" lon="35.4269912">
<ele>-89.750000</ele>
<time>2012-04-14T08:59:45.000Z</time>
</trkpt>
<trkpt lat="31.7831969" lon="35.4271672">
<ele>-91.189995</ele>
<time>2012-04-14T08:59:48.000Z</time>
</trkpt>
<trkpt lat="31.7836140" lon="35.4275886">
<ele>-94.549995</ele>
<time>2012-04-14T08:59:54.000Z</time>
</trkpt>
<trkpt lat="31.7838628" lon="35.4278396">
<ele>-97.920006</ele>
<time>2012-04-14T08:59:57.000Z</time>
</trkpt>
<trkpt lat="31.7842164" lon="35.4281883">
<ele>-100.799995</ele>
<time>2012-04-14T09:00:01.000Z</time>
</trkpt>
<trkpt lat="31.7851874" lon="35.4291186">
<ele>-102.239998</ele>
<time>2012-04-14T09:00:13.000Z</time>
</trkpt>
<trkpt lat="31.7857357" lon="35.4296140">
<ele>-100.799995</ele>
<time>2012-04-14T09:00:24.000Z</time>
</trkpt>
<trkpt lat="31.7861767" lon="35.4299128">
<ele>-98.400002</ele>
<time>2012-04-14T09:00:38.000Z</time>
</trkpt>
<trkpt lat="31.7865854" lon="35.4300973">
<ele>-98.880005</ele>
<time>2012-04-14T09:00:53.000Z</time>
</trkpt>
<trkpt lat="31.7868926" lon="35.4301366">
<ele>-99.839996</ele>
<time>2012-04-14T09:01:07.000Z</time>
</trkpt>
<trkpt lat="31.7872480" lon="35.4303349">
<ele>-101.760002</ele>
<time>2012-04-14T09:01:20.000Z</time>
</trkpt>
<trkpt lat="31.7873342" lon="35.4303981">
<ele>-102.239998</ele>
<time>2012-04-14T09:01:30.000Z</time>
</trkpt>
<trkpt lat="31.7873211" lon="35.4303929">
<ele>-102.720001</ele>
<time>2012-04-14T09:02:04.000Z</time>
</trkpt>
<trkpt lat="31.7873260" lon="35.4303969">
<ele>-102.720001</ele>
<time>2012-04-14T09:02:37.000Z</time>
</trkpt>
<trkpt lat="31.7873329" lon="35.4303989">
<ele>-102.239998</ele>
<time>2012-04-14T09:03:05.000Z</time>
</trkpt>
<trkpt lat="31.7873241" lon="35.4304034">
<ele>-102.239998</ele>
<time>2012-04-14T09:03:17.000Z</time>
</trkpt>
<trkpt lat="31.7873247" lon="35.4304011">
<ele>-102.239998</ele>
<time>2012-04-14T09:03:44.000Z</time>
</trkpt>
<trkpt lat="31.7873241" lon="35.4303977">
<ele>-102.720001</ele>
<time>2012-04-14T09:03:56.000Z</time>
</trkpt>
<trkpt lat="31.7873411" lon="35.4305593">
<ele>-102.720001</ele>
<time>2012-04-14T09:04:05.000Z</time>
</trkpt>
<trkpt lat="31.7873497" lon="35.4305921">
<ele>-103.199997</ele>
<time>2012-04-14T09:04:07.000Z</time>
</trkpt>
<trkpt lat="31.7873621" lon="35.4306559">
<ele>-103.199997</ele>
<time>2012-04-14T09:04:19.000Z</time>
</trkpt>
<trkpt lat="31.7873619" lon="35.4306544">
<ele>-103.199997</ele>
<time>2012-04-14T09:04:54.000Z</time>
</trkpt>
<trkpt lat="31.7873561" lon="35.4306563">
<ele>-103.199997</ele>
<time>2012-04-14T09:05:20.000Z</time>
</trkpt>
<trkpt lat="31.7873911" lon="35.4307028">
<ele>-103.199997</ele>
<time>2012-04-14T09:05:45.000Z</time>
</trkpt>
<trkpt lat="31.7876028" lon="35.4308256">
<ele>-105.130005</ele>
<time>2012-04-14T09:05:55.000Z</time>
</trkpt>
<trkpt lat="31.7879178" lon="35.4310266">
<ele>-106.570000</ele>
<time>2012-04-14T09:06:07.000Z</time>
</trkpt>
<trkpt lat="31.7879756" lon="35.4310788">
<ele>-107.049995</ele>
<time>2012-04-14T09:06:10.000Z</time>
</trkpt>
<trkpt lat="31.7880705" lon="35.4312236">
<ele>-110.409996</ele>
<time>2012-04-14T09:06:17.000Z</time>
</trkpt>
<trkpt lat="31.7881404" lon="35.4314347">
<ele>-113.299995</ele>
<time>2012-04-14T09:06:23.000Z</time>
</trkpt>
<trkpt lat="31.7882118" lon="35.4315840">
<ele>-115.220001</ele>
<time>2012-04-14T09:06:27.000Z</time>
</trkpt>
<trkpt lat="31.7883731" lon="35.4316972">
<ele>-116.180000</ele>
<time>2012-04-14T09:06:33.000Z</time>
</trkpt>
<trkpt lat="31.7886373" lon="35.4318274">
<ele>-118.099998</ele>
<time>2012-04-14T09:06:44.000Z</time>
</trkpt>
<trkpt lat="31.7889870" lon="35.4321582">
<ele>-120.510002</ele>
<time>2012-04-14T09:06:57.000Z</time>
</trkpt>
<trkpt lat="31.7890812" lon="35.4324602">
<ele>-121.949997</ele>
<time>2012-04-14T09:07:06.000Z</time>
</trkpt>
<trkpt lat="31.7892124" lon="35.4325060">
<ele>-123.870003</ele>
<time>2012-04-14T09:07:11.000Z</time>
</trkpt>
<trkpt lat="31.7892918" lon="35.4325121">
<ele>-123.390007</ele>
<time>2012-04-14T09:07:13.000Z</time>
</trkpt>
<trkpt lat="31.7893224" lon="35.4325036">
<ele>-123.870003</ele>
<time>2012-04-14T09:07:14.000Z</time>
</trkpt>
<trkpt lat="31.7894527" lon="35.4324437">
<ele>-124.830002</ele>
<time>2012-04-14T09:07:19.000Z</time>
</trkpt>
<trkpt lat="31.7894776" lon="35.4324449">
<ele>-124.349998</ele>
<time>2012-04-14T09:07:20.000Z</time>
</trkpt>
<trkpt lat="31.7895028" lon="35.4324490">
<ele>-124.830002</ele>
<time>2012-04-14T09:07:21.000Z</time>
</trkpt>
<trkpt lat="31.7895316" lon="35.4324568">
<ele>-124.830002</ele>
<time>2012-04-14T09:07:22.000Z</time>
</trkpt>
<trkpt lat="31.7895583" lon="35.4324756">
<ele>-124.830002</ele>
<time>2012-04-14T09:07:23.000Z</time>
</trkpt>
<trkpt lat="31.7895824" lon="35.4324958">
<ele>-124.830002</ele>
<time>2012-04-14T09:07:24.000Z</time>
</trkpt>
<trkpt lat="31.7896074" lon="35.4325130">
<ele>-124.830002</ele>
<time>2012-04-14T09:07:25.000Z</time>
</trkpt>
<trkpt lat="31.7896312" lon="35.4325309">
<ele>-125.309998</ele>
<time>2012-04-14T09:07:26.000Z</time>
</trkpt>
<trkpt lat="31.7896552" lon="35.4325511">
<ele>-125.799995</ele>
<time>2012-04-14T09:07:27.000Z</time>
</trkpt>
<trkpt lat="31.7896818" lon="35.4325751">
<ele>-125.799995</ele>
<time>2012-04-14T09:07:28.000Z</time>
</trkpt>
<trkpt lat="31.7899874" lon="35.4327610">
<ele>-127.720001</ele>
<time>2012-04-14T09:07:38.000Z</time>
</trkpt>
<trkpt lat="31.7902109" lon="35.4329223">
<ele>-128.679993</ele>
<time>2012-04-14T09:07:45.000Z</time>
</trkpt>
<trkpt lat="31.7902538" lon="35.4329383">
<ele>-128.199997</ele>
<time>2012-04-14T09:07:46.000Z</time>
</trkpt>
<trkpt lat="31.7904408" lon="35.4329720">
<ele>-128.199997</ele>
<time>2012-04-14T09:07:53.000Z</time>
</trkpt>
<trkpt lat="31.7905516" lon="35.4329995">
<ele>-129.160004</ele>
<time>2012-04-14T09:07:57.000Z</time>
</trkpt>
<trkpt lat="31.7905691" lon="35.4330016">
<ele>-129.639999</ele>
<time>2012-04-14T09:07:58.000Z</time>
</trkpt>
<trkpt lat="31.7905767" lon="35.4330037">
<ele>-129.639999</ele>
<time>2012-04-14T09:08:09.000Z</time>
</trkpt>
<trkpt lat="31.7905783" lon="35.4330038">
<ele>-130.600006</ele>
<time>2012-04-14T09:08:41.000Z</time>
</trkpt>
<trkpt lat="31.7905829" lon="35.4330092">
<ele>-130.119995</ele>
<time>2012-04-14T09:08:46.000Z</time>
</trkpt>
<trkpt lat="31.7905932" lon="35.4330183">
<ele>-130.119995</ele>
<time>2012-04-14T09:08:47.000Z</time>
</trkpt>
<trkpt lat="31.7906044" lon="35.4330286">
<ele>-130.600006</ele>
<time>2012-04-14T09:08:48.000Z</time>
</trkpt>
<trkpt lat="31.7906205" lon="35.4330381">
<ele>-130.600006</ele>
<time>2012-04-14T09:08:49.000Z</time>
</trkpt>
<trkpt lat="31.7906434" lon="35.4330491">
<ele>-130.119995</ele>
<time>2012-04-14T09:08:50.000Z</time>
</trkpt>
<trkpt lat="31.7908419" lon="35.4331807">
<ele>-129.639999</ele>
<time>2012-04-14T09:08:59.000Z</time>
</trkpt>
<trkpt lat="31.7909751" lon="35.4335487">
<ele>-132.520004</ele>
<time>2012-04-14T09:09:09.000Z</time>
</trkpt>
<trkpt lat="31.7909951" lon="35.4336492">
<ele>-133.010010</ele>
<time>2012-04-14T09:09:11.000Z</time>
</trkpt>
<trkpt lat="31.7910033" lon="35.4336986">
<ele>-133.490005</ele>
<time>2012-04-14T09:09:12.000Z</time>
</trkpt>
<trkpt lat="31.7910158" lon="35.4337431">
<ele>-133.970001</ele>
<time>2012-04-14T09:09:13.000Z</time>
</trkpt>
<trkpt lat="31.7910312" lon="35.4337820">
<ele>-133.490005</ele>
<time>2012-04-14T09:09:14.000Z</time>
</trkpt>
<trkpt lat="31.7910495" lon="35.4338173">
<ele>-133.970001</ele>
<time>2012-04-14T09:09:15.000Z</time>
</trkpt>
<trkpt lat="31.7910741" lon="35.4338503">
<ele>-133.970001</ele>
<time>2012-04-14T09:09:16.000Z</time>
</trkpt>
<trkpt lat="31.7910960" lon="35.4338818">
<ele>-133.970001</ele>
<time>2012-04-14T09:09:17.000Z</time>
</trkpt>
<trkpt lat="31.7911103" lon="35.4339155">
<ele>-134.449997</ele>
<time>2012-04-14T09:09:18.000Z</time>
</trkpt>
<trkpt lat="31.7911191" lon="35.4339523">
<ele>-134.449997</ele>
<time>2012-04-14T09:09:19.000Z</time>
</trkpt>
<trkpt lat="31.7911583" lon="35.4340230">
<ele>-134.929993</ele>
<time>2012-04-14T09:09:21.000Z</time>
</trkpt>
<trkpt lat="31.7914085" lon="35.4342098">
<ele>-135.889999</ele>
<time>2012-04-14T09:09:30.000Z</time>
</trkpt>
<trkpt lat="31.7914211" lon="35.4342448">
<ele>-135.889999</ele>
<time>2012-04-14T09:09:31.000Z</time>
</trkpt>
<trkpt lat="31.7914964" lon="35.4345448">
<ele>-136.850006</ele>
<time>2012-04-14T09:09:38.000Z</time>
</trkpt>
<trkpt lat="31.7915252" lon="35.4345824">
<ele>-136.850006</ele>
<time>2012-04-14T09:09:39.000Z</time>
</trkpt>
<trkpt lat="31.7915405" lon="35.4346268">
<ele>-136.850006</ele>
<time>2012-04-14T09:09:40.000Z</time>
</trkpt>
<trkpt lat="31.7915483" lon="35.4346723">
<ele>-137.330002</ele>
<time>2012-04-14T09:09:41.000Z</time>
</trkpt>
<trkpt lat="31.7915617" lon="35.4347220">
<ele>-137.330002</ele>
<time>2012-04-14T09:09:42.000Z</time>
</trkpt>
<trkpt lat="31.7915800" lon="35.4347701">
<ele>-137.330002</ele>
<time>2012-04-14T09:09:43.000Z</time>
</trkpt>
<trkpt lat="31.7915986" lon="35.4348171">
<ele>-137.809998</ele>
<time>2012-04-14T09:09:44.000Z</time>
</trkpt>
<trkpt lat="31.7916167" lon="35.4348615">
<ele>-137.809998</ele>
<time>2012-04-14T09:09:45.000Z</time>
</trkpt>
<trkpt lat="31.7916425" lon="35.4348973">
<ele>-137.809998</ele>
<time>2012-04-14T09:09:46.000Z</time>
</trkpt>
<trkpt lat="31.7916770" lon="35.4349320">
<ele>-137.809998</ele>
<time>2012-04-14T09:09:47.000Z</time>
</trkpt>
<trkpt lat="31.7917133" lon="35.4349679">
<ele>-137.809998</ele>
<time>2012-04-14T09:09:48.000Z</time>
</trkpt>
<trkpt lat="31.7917506" lon="35.4350039">
<ele>-138.289993</ele>
<time>2012-04-14T09:09:49.000Z</time>
</trkpt>
<trkpt lat="31.7917906" lon="35.4350359">
<ele>-138.289993</ele>
<time>2012-04-14T09:09:50.000Z</time>
</trkpt>
<trkpt lat="31.7918288" lon="35.4350707">
<ele>-138.289993</ele>
<time>2012-04-14T09:09:51.000Z</time>
</trkpt>
<trkpt lat="31.7918623" lon="35.4351032">
<ele>-138.289993</ele>
<time>2012-04-14T09:09:52.000Z</time>
</trkpt>
<trkpt lat="31.7918932" lon="35.4351306">
<ele>-138.289993</ele>
<time>2012-04-14T09:09:53.000Z</time>
</trkpt>
<trkpt lat="31.7919188" lon="35.4351549">
<ele>-138.289993</ele>
<time>2012-04-14T09:09:54.000Z</time>
</trkpt>
<trkpt lat="31.7919400" lon="35.4351785">
<ele>-138.289993</ele>
<time>2012-04-14T09:09:55.000Z</time>
</trkpt>
<trkpt lat="31.7919614" lon="35.4352059">
<ele>-138.289993</ele>
<time>2012-04-14T09:09:56.000Z</time>
</trkpt>
<trkpt lat="31.7919842" lon="35.4352363">
<ele>-137.809998</ele>
<time>2012-04-14T09:09:57.000Z</time>
</trkpt>
<trkpt lat="31.7920068" lon="35.4352653">
<ele>-138.289993</ele>
<time>2012-04-14T09:09:58.000Z</time>
</trkpt>
<trkpt lat="31.7921434" lon="35.4353884">
<ele>-139.250000</ele>
<time>2012-04-14T09:10:03.000Z</time>
</trkpt>
<trkpt lat="31.7921712" lon="35.4354220">
<ele>-139.250000</ele>
<time>2012-04-14T09:10:04.000Z</time>
</trkpt>
<trkpt lat="31.7921948" lon="35.4354590">
<ele>-139.729996</ele>
<time>2012-04-14T09:10:05.000Z</time>
</trkpt>
<trkpt lat="31.7923846" lon="35.4357211">
<ele>-142.139999</ele>
<time>2012-04-14T09:10:16.000Z</time>
</trkpt>
<trkpt lat="31.7924398" lon="35.4357773">
<ele>-142.619995</ele>
<time>2012-04-14T09:10:28.000Z</time>
</trkpt>
<trkpt lat="31.7924357" lon="35.4357771">
<ele>-142.619995</ele>
<time>2012-04-14T09:11:01.000Z</time>
</trkpt>
<trkpt lat="31.7924456" lon="35.4357773">
<ele>-142.619995</ele>
<time>2012-04-14T09:11:27.000Z</time>
</trkpt>
<trkpt lat="31.7924588" lon="35.4357824">
<ele>-143.100006</ele>
<time>2012-04-14T09:11:28.000Z</time>
</trkpt>
<trkpt lat="31.7924756" lon="35.4357900">
<ele>-142.619995</ele>
<time>2012-04-14T09:11:29.000Z</time>
</trkpt>
<trkpt lat="31.7926267" lon="35.4358670">
<ele>-142.139999</ele>
<time>2012-04-14T09:11:41.000Z</time>
</trkpt>
<trkpt lat="31.7928631" lon="35.4360510">
<ele>-144.059998</ele>
<time>2012-04-14T09:11:48.000Z</time>
</trkpt>
<trkpt lat="31.7928839" lon="35.4360888">
<ele>-144.539993</ele>
<time>2012-04-14T09:11:49.000Z</time>
</trkpt>
<trkpt lat="31.7928958" lon="35.4361257">
<ele>-145.020004</ele>
<time>2012-04-14T09:11:50.000Z</time>
</trkpt>
<trkpt lat="31.7929077" lon="35.4361502">
<ele>-145.020004</ele>
<time>2012-04-14T09:11:51.000Z</time>
</trkpt>
<trkpt lat="31.7929181" lon="35.4361672">
<ele>-144.539993</ele>
<time>2012-04-14T09:11:52.000Z</time>
</trkpt>
<trkpt lat="31.7929127" lon="35.4361642">
<ele>-144.059998</ele>
<time>2012-04-14T09:12:02.000Z</time>
</trkpt>
<trkpt lat="31.7929268" lon="35.4361744">
<ele>-144.059998</ele>
<time>2012-04-14T09:12:03.000Z</time>
</trkpt>
<trkpt lat="31.7929422" lon="35.4361901">
<ele>-144.539993</ele>
<time>2012-04-14T09:12:04.000Z</time>
</trkpt>
<trkpt lat="31.7929503" lon="35.4362057">
<ele>-144.059998</ele>
<time>2012-04-14T09:12:05.000Z</time>
</trkpt>
<trkpt lat="31.7929697" lon="35.4362650">
<ele>-143.100006</ele>
<time>2012-04-14T09:12:12.000Z</time>
</trkpt>
<trkpt lat="31.7931344" lon="35.4364519">
<ele>-145.020004</ele>
<time>2012-04-14T09:12:21.000Z</time>
</trkpt>
<trkpt lat="31.7931732" lon="35.4364699">
<ele>-145.500000</ele>
<time>2012-04-14T09:12:22.000Z</time>
</trkpt>
<trkpt lat="31.7932041" lon="35.4364941">
<ele>-145.979996</ele>
<time>2012-04-14T09:12:23.000Z</time>
</trkpt>
<trkpt lat="31.7932223" lon="35.4365206">
<ele>-145.979996</ele>
<time>2012-04-14T09:12:24.000Z</time>
</trkpt>
<trkpt lat="31.7932325" lon="35.4365451">
<ele>-145.979996</ele>
<time>2012-04-14T09:12:25.000Z</time>
</trkpt>
<trkpt lat="31.7932311" lon="35.4365861">
<ele>-145.979996</ele>
<time>2012-04-14T09:12:30.000Z</time>
</trkpt>
<trkpt lat="31.7932292" lon="35.4366008">
<ele>-145.979996</ele>
<time>2012-04-14T09:12:31.000Z</time>
</trkpt>
<trkpt lat="31.7932263" lon="35.4366155">
<ele>-145.979996</ele>
<time>2012-04-14T09:12:32.000Z</time>
</trkpt>
<trkpt lat="31.7932207" lon="35.4366320">
<ele>-146.460007</ele>
<time>2012-04-14T09:12:33.000Z</time>
</trkpt>
<trkpt lat="31.7932107" lon="35.4366472">
<ele>-146.940002</ele>
<time>2012-04-14T09:12:34.000Z</time>
</trkpt>
<trkpt lat="31.7931546" lon="35.4367437">
<ele>-147.429993</ele>
<time>2012-04-14T09:12:40.000Z</time>
</trkpt>
<trkpt lat="31.7931442" lon="35.4367683">
<ele>-147.429993</ele>
<time>2012-04-14T09:12:49.000Z</time>
</trkpt>
<trkpt lat="31.7931670" lon="35.4367150">
<ele>-146.940002</ele>
<time>2012-04-14T09:12:54.000Z</time>
</trkpt>
<trkpt lat="31.7931954" lon="35.4366606">
<ele>-146.940002</ele>
<time>2012-04-14T09:12:59.000Z</time>
</trkpt>
<trkpt lat="31.7932141" lon="35.4366461">
<ele>-146.940002</ele>
<time>2012-04-14T09:13:01.000Z</time>
</trkpt>
<trkpt lat="31.7932597" lon="35.4366862">
<ele>-145.979996</ele>
<time>2012-04-14T09:13:07.000Z</time>
</trkpt>
<trkpt lat="31.7932652" lon="35.4367550">
<ele>-145.979996</ele>
<time>2012-04-14T09:13:15.000Z</time>
</trkpt>
<trkpt lat="31.7933538" lon="35.4368336">
<ele>-146.940002</ele>
<time>2012-04-14T09:13:22.000Z</time>
</trkpt>
<trkpt lat="31.7934807" lon="35.4368863">
<ele>-150.309998</ele>
<time>2012-04-14T09:13:26.000Z</time>
</trkpt>
<trkpt lat="31.7935231" lon="35.4368846">
<ele>-150.309998</ele>
<time>2012-04-14T09:13:27.000Z</time>
</trkpt>
<trkpt lat="31.7935579" lon="35.4368804">
<ele>-150.309998</ele>
<time>2012-04-14T09:13:28.000Z</time>
</trkpt>
<trkpt lat="31.7935891" lon="35.4368845">
<ele>-150.309998</ele>
<time>2012-04-14T09:13:29.000Z</time>
</trkpt>
<trkpt lat="31.7936190" lon="35.4368977">
<ele>-150.309998</ele>
<time>2012-04-14T09:13:30.000Z</time>
</trkpt>
<trkpt lat="31.7936502" lon="35.4369181">
<ele>-150.309998</ele>
<time>2012-04-14T09:13:31.000Z</time>
</trkpt>
<trkpt lat="31.7937215" lon="35.4369749">
<ele>-150.309998</ele>
<time>2012-04-14T09:13:33.000Z</time>
</trkpt>
<trkpt lat="31.7937542" lon="35.4370089">
<ele>-150.789993</ele>
<time>2012-04-14T09:13:34.000Z</time>
</trkpt>
<trkpt lat="31.7938181" lon="35.4370764">
<ele>-150.789993</ele>
<time>2012-04-14T09:13:36.000Z</time>
</trkpt>
<trkpt lat="31.7938942" lon="35.4371489">
<ele>-151.270004</ele>
<time>2012-04-14T09:13:38.000Z</time>
</trkpt>
<trkpt lat="31.7939636" lon="35.4372272">
<ele>-151.270004</ele>
<time>2012-04-14T09:13:40.000Z</time>
</trkpt>
<trkpt lat="31.7940985" lon="35.4373685">
<ele>-153.190002</ele>
<time>2012-04-14T09:13:44.000Z</time>
</trkpt>
<trkpt lat="31.7941551" lon="35.4374430">
<ele>-152.710007</ele>
<time>2012-04-14T09:13:46.000Z</time>
</trkpt>
<trkpt lat="31.7941931" lon="35.4374668">
<ele>-152.710007</ele>
<time>2012-04-14T09:13:47.000Z</time>
</trkpt>
<trkpt lat="31.7942316" lon="35.4374917">
<ele>-153.190002</ele>
<time>2012-04-14T09:13:48.000Z</time>
</trkpt>
<trkpt lat="31.7943739" lon="35.4376117">
<ele>-153.669998</ele>
<time>2012-04-14T09:13:52.000Z</time>
</trkpt>
<trkpt lat="31.7944136" lon="35.4376279">
<ele>-153.669998</ele>
<time>2012-04-14T09:13:53.000Z</time>
</trkpt>
<trkpt lat="31.7944529" lon="35.4376397">
<ele>-154.149994</ele>
<time>2012-04-14T09:13:54.000Z</time>
</trkpt>
<trkpt lat="31.7944847" lon="35.4376574">
<ele>-154.149994</ele>
<time>2012-04-14T09:13:55.000Z</time>
</trkpt>
<trkpt lat="31.7945110" lon="35.4376789">
<ele>-154.639999</ele>
<time>2012-04-14T09:13:56.000Z</time>
</trkpt>
<trkpt lat="31.7945395" lon="35.4376960">
<ele>-154.639999</ele>
<time>2012-04-14T09:13:57.000Z</time>
</trkpt>
<trkpt lat="31.7945699" lon="35.4377089">
<ele>-154.639999</ele>
<time>2012-04-14T09:13:58.000Z</time>
</trkpt>
<trkpt lat="31.7945968" lon="35.4377302">
<ele>-155.119995</ele>
<time>2012-04-14T09:13:59.000Z</time>
</trkpt>
<trkpt lat="31.7946157" lon="35.4377628">
<ele>-155.600006</ele>
<time>2012-04-14T09:14:00.000Z</time>
</trkpt>
<trkpt lat="31.7946384" lon="35.4377929">
<ele>-156.080002</ele>
<time>2012-04-14T09:14:01.000Z</time>
</trkpt>
<trkpt lat="31.7947947" lon="35.4378705">
<ele>-155.119995</ele>
<time>2012-04-14T09:14:06.000Z</time>
</trkpt>
<trkpt lat="31.7948360" lon="35.4378882">
<ele>-155.119995</ele>
<time>2012-04-14T09:14:07.000Z</time>
</trkpt>
<trkpt lat="31.7948762" lon="35.4379025">
<ele>-155.600006</ele>
<time>2012-04-14T09:14:08.000Z</time>
</trkpt>
<trkpt lat="31.7949147" lon="35.4379113">
<ele>-155.600006</ele>
<time>2012-04-14T09:14:09.000Z</time>
</trkpt>
<trkpt lat="31.7949540" lon="35.4379183">
<ele>-155.600006</ele>
<time>2012-04-14T09:14:10.000Z</time>
</trkpt>
<trkpt lat="31.7949898" lon="35.4379221">
<ele>-155.600006</ele>
<time>2012-04-14T09:14:11.000Z</time>
</trkpt>
<trkpt lat="31.7950179" lon="35.4379299">
<ele>-155.600006</ele>
<time>2012-04-14T09:14:12.000Z</time>
</trkpt>
<trkpt lat="31.7950391" lon="35.4379401">
<ele>-155.600006</ele>
<time>2012-04-14T09:14:13.000Z</time>
</trkpt>
<trkpt lat="31.7952590" lon="35.4381823">
<ele>-155.600006</ele>
<time>2012-04-14T09:14:24.000Z</time>
</trkpt>
<trkpt lat="31.7953011" lon="35.4383646">
<ele>-156.080002</ele>
<time>2012-04-14T09:14:28.000Z</time>
</trkpt>
<trkpt lat="31.7953049" lon="35.4384212">
<ele>-156.560013</ele>
<time>2012-04-14T09:14:29.000Z</time>
</trkpt>
<trkpt lat="31.7953077" lon="35.4384859">
<ele>-156.560013</ele>
<time>2012-04-14T09:14:30.000Z</time>
</trkpt>
<trkpt lat="31.7953201" lon="35.4385524">
<ele>-157.520004</ele>
<time>2012-04-14T09:14:31.000Z</time>
</trkpt>
<trkpt lat="31.7953470" lon="35.4386083">
<ele>-157.520004</ele>
<time>2012-04-14T09:14:32.000Z</time>
</trkpt>
<trkpt lat="31.7953835" lon="35.4386539">
<ele>-157.520004</ele>
<time>2012-04-14T09:14:33.000Z</time>
</trkpt>
<trkpt lat="31.7954136" lon="35.4387027">
<ele>-157.520004</ele>
<time>2012-04-14T09:14:34.000Z</time>
</trkpt>
<trkpt lat="31.7954347" lon="35.4387621">
<ele>-158.000000</ele>
<time>2012-04-14T09:14:35.000Z</time>
</trkpt>
<trkpt lat="31.7954496" lon="35.4388251">
<ele>-158.000000</ele>
<time>2012-04-14T09:14:36.000Z</time>
</trkpt>
<trkpt lat="31.7954659" lon="35.4388883">
<ele>-158.000000</ele>
<time>2012-04-14T09:14:37.000Z</time>
</trkpt>
<trkpt lat="31.7954843" lon="35.4389491">
<ele>-158.479996</ele>
<time>2012-04-14T09:14:38.000Z</time>
</trkpt>
<trkpt lat="31.7955386" lon="35.4391177">
<ele>-157.520004</ele>
<time>2012-04-14T09:14:41.000Z</time>
</trkpt>
<trkpt lat="31.7955575" lon="35.4391641">
<ele>-157.520004</ele>
<time>2012-04-14T09:14:42.000Z</time>
</trkpt>
<trkpt lat="31.7956912" lon="35.4396217">
<ele>-156.560013</ele>
<time>2012-04-14T09:14:53.000Z</time>
</trkpt>
<trkpt lat="31.7957048" lon="35.4396661">
<ele>-156.560013</ele>
<time>2012-04-14T09:14:54.000Z</time>
</trkpt>
<trkpt lat="31.7957119" lon="35.4397101">
<ele>-157.039993</ele>
<time>2012-04-14T09:14:55.000Z</time>
</trkpt>
<trkpt lat="31.7957389" lon="35.4400332">
<ele>-157.520004</ele>
<time>2012-04-14T09:15:01.000Z</time>
</trkpt>
<trkpt lat="31.7957383" lon="35.4400982">
<ele>-157.520004</ele>
<time>2012-04-14T09:15:02.000Z</time>
</trkpt>
<trkpt lat="31.7957516" lon="35.4401534">
<ele>-158.000000</ele>
<time>2012-04-14T09:15:03.000Z</time>
</trkpt>
<trkpt lat="31.7957747" lon="35.4401918">
<ele>-157.520004</ele>
<time>2012-04-14T09:15:04.000Z</time>
</trkpt>
<trkpt lat="31.7957929" lon="35.4402358">
<ele>-157.039993</ele>
<time>2012-04-14T09:15:05.000Z</time>
</trkpt>
<trkpt lat="31.7958002" lon="35.4402802">
<ele>-157.039993</ele>
<time>2012-04-14T09:15:06.000Z</time>
</trkpt>
<trkpt lat="31.7958034" lon="35.4403264">
<ele>-157.039993</ele>
<time>2012-04-14T09:15:07.000Z</time>
</trkpt>
<trkpt lat="31.7958070" lon="35.4403791">
<ele>-157.520004</ele>
<time>2012-04-14T09:15:08.000Z</time>
</trkpt>
<trkpt lat="31.7958164" lon="35.4404422">
<ele>-157.520004</ele>
<time>2012-04-14T09:15:09.000Z</time>
</trkpt>
<trkpt lat="31.7958397" lon="35.4405043">
<ele>-158.000000</ele>
<time>2012-04-14T09:15:10.000Z</time>
</trkpt>
<trkpt lat="31.7958704" lon="35.4405500">
<ele>-157.520004</ele>
<time>2012-04-14T09:15:11.000Z</time>
</trkpt>
<trkpt lat="31.7958993" lon="35.4405911">
<ele>-157.520004</ele>
<time>2012-04-14T09:15:12.000Z</time>
</trkpt>
<trkpt lat="31.7959240" lon="35.4406323">
<ele>-157.520004</ele>
<time>2012-04-14T09:15:13.000Z</time>
</trkpt>
<trkpt lat="31.7959456" lon="35.4406730">
<ele>-157.520004</ele>
<time>2012-04-14T09:15:14.000Z</time>
</trkpt>
<trkpt lat="31.7959641" lon="35.4407200">
<ele>-157.520004</ele>
<time>2012-04-14T09:15:15.000Z</time>
</trkpt>
<trkpt lat="31.7959805" lon="35.4407657">
<ele>-157.039993</ele>
<time>2012-04-14T09:15:16.000Z</time>
</trkpt>
<trkpt lat="31.7961237" lon="35.4410072">
<ele>-156.560013</ele>
<time>2012-04-14T09:15:24.000Z</time>
</trkpt>
<trkpt lat="31.7962233" lon="35.4414163">
<ele>-157.520004</ele>
<time>2012-04-14T09:15:35.000Z</time>
</trkpt>
<trkpt lat="31.7962272" lon="35.4414658">
<ele>-157.520004</ele>
<time>2012-04-14T09:15:36.000Z</time>
</trkpt>
<trkpt lat="31.7962406" lon="35.4415085">
<ele>-157.520004</ele>
<time>2012-04-14T09:15:37.000Z</time>
</trkpt>
<trkpt lat="31.7962572" lon="35.4415497">
<ele>-157.520004</ele>
<time>2012-04-14T09:15:38.000Z</time>
</trkpt>
<trkpt lat="31.7962654" lon="35.4415962">
<ele>-157.520004</ele>
<time>2012-04-14T09:15:39.000Z</time>
</trkpt>
<trkpt lat="31.7962623" lon="35.4416453">
<ele>-157.520004</ele>
<time>2012-04-14T09:15:40.000Z</time>
</trkpt>
<trkpt lat="31.7962589" lon="35.4416962">
<ele>-158.000000</ele>
<time>2012-04-14T09:15:41.000Z</time>
</trkpt>
<trkpt lat="31.7962541" lon="35.4417474">
<ele>-158.479996</ele>
<time>2012-04-14T09:15:42.000Z</time>
</trkpt>
<trkpt lat="31.7962451" lon="35.4417947">
<ele>-158.960007</ele>
<time>2012-04-14T09:15:43.000Z</time>
</trkpt>
<trkpt lat="31.7962406" lon="35.4418333">
<ele>-159.440002</ele>
<time>2012-04-14T09:15:44.000Z</time>
</trkpt>
<trkpt lat="31.7962422" lon="35.4418592">
<ele>-159.440002</ele>
<time>2012-04-14T09:15:45.000Z</time>
</trkpt>
<trkpt lat="31.7962510" lon="35.4418787">
<ele>-158.960007</ele>
<time>2012-04-14T09:15:46.000Z</time>
</trkpt>
<trkpt lat="31.7962644" lon="35.4418885">
<ele>-158.960007</ele>
<time>2012-04-14T09:15:47.000Z</time>
</trkpt>
<trkpt lat="31.7962799" lon="35.4418924">
<ele>-158.479996</ele>
<time>2012-04-14T09:15:48.000Z</time>
</trkpt>
<trkpt lat="31.7964934" lon="35.4421806">
<ele>-158.960007</ele>
<time>2012-04-14T09:15:59.000Z</time>
</trkpt>
<trkpt lat="31.7965121" lon="35.4422109">
<ele>-158.960007</ele>
<time>2012-04-14T09:16:08.000Z</time>
</trkpt>
<trkpt lat="31.7965100" lon="35.4422016">
<ele>-159.440002</ele>
<time>2012-04-14T09:16:30.000Z</time>
</trkpt>
<trkpt lat="31.7965056" lon="35.4422254">
<ele>-159.920013</ele>
<time>2012-04-14T09:16:45.000Z</time>
</trkpt>
<trkpt lat="31.7965074" lon="35.4422467">
<ele>-159.440002</ele>
<time>2012-04-14T09:16:46.000Z</time>
</trkpt>
<trkpt lat="31.7965114" lon="35.4422749">
<ele>-159.920013</ele>
<time>2012-04-14T09:16:47.000Z</time>
</trkpt>
<trkpt lat="31.7965213" lon="35.4423099">
<ele>-159.920013</ele>
<time>2012-04-14T09:16:48.000Z</time>
</trkpt>
<trkpt lat="31.7965426" lon="35.4423435">
<ele>-160.399994</ele>
<time>2012-04-14T09:16:49.000Z</time>
</trkpt>
<trkpt lat="31.7965628" lon="35.4423694">
<ele>-159.920013</ele>
<time>2012-04-14T09:16:50.000Z</time>
</trkpt>
<trkpt lat="31.7965768" lon="35.4423916">
<ele>-159.440002</ele>
<time>2012-04-14T09:16:51.000Z</time>
</trkpt>
<trkpt lat="31.7965935" lon="35.4424129">
<ele>-159.920013</ele>
<time>2012-04-14T09:16:52.000Z</time>
</trkpt>
<trkpt lat="31.7966132" lon="35.4424363">
<ele>-159.920013</ele>
<time>2012-04-14T09:16:53.000Z</time>
</trkpt>
<trkpt lat="31.7966279" lon="35.4424573">
<ele>-159.440002</ele>
<time>2012-04-14T09:16:54.000Z</time>
</trkpt>
<trkpt lat="31.7966399" lon="35.4424748">
<ele>-159.440002</ele>
<time>2012-04-14T09:16:55.000Z</time>
</trkpt>
<trkpt lat="31.7966503" lon="35.4424899">
<ele>-158.960007</ele>
<time>2012-04-14T09:16:56.000Z</time>
</trkpt>
<trkpt lat="31.7966550" lon="35.4425102">
<ele>-158.960007</ele>
<time>2012-04-14T09:16:57.000Z</time>
</trkpt>
<trkpt lat="31.7966619" lon="35.4425387">
<ele>-158.960007</ele>
<time>2012-04-14T09:16:58.000Z</time>
</trkpt>
<trkpt lat="31.7966760" lon="35.4425682">
<ele>-159.440002</ele>
<time>2012-04-14T09:16:59.000Z</time>
</trkpt>
<trkpt lat="31.7966970" lon="35.4425917">
<ele>-159.920013</ele>
<time>2012-04-14T09:17:00.000Z</time>
</trkpt>
<trkpt lat="31.7967186" lon="35.4426060">
<ele>-159.440002</ele>
<time>2012-04-14T09:17:01.000Z</time>
</trkpt>
<trkpt lat="31.7967337" lon="35.4426232">
<ele>-159.920013</ele>
<time>2012-04-14T09:17:02.000Z</time>
</trkpt>
<trkpt lat="31.7967495" lon="35.4426553">
<ele>-159.920013</ele>
<time>2012-04-14T09:17:03.000Z</time>
</trkpt>
<trkpt lat="31.7967721" lon="35.4426911">
<ele>-160.399994</ele>
<time>2012-04-14T09:17:04.000Z</time>
</trkpt>
<trkpt lat="31.7967992" lon="35.4427098">
<ele>-160.880005</ele>
<time>2012-04-14T09:17:05.000Z</time>
</trkpt>
<trkpt lat="31.7968318" lon="35.4427196">
<ele>-160.880005</ele>
<time>2012-04-14T09:17:06.000Z</time>
</trkpt>
<trkpt lat="31.7970171" lon="35.4429420">
<ele>-162.330002</ele>
<time>2012-04-14T09:17:14.000Z</time>
</trkpt>
<trkpt lat="31.7971586" lon="35.4430555">
<ele>-162.330002</ele>
<time>2012-04-14T09:17:21.000Z</time>
</trkpt>
<trkpt lat="31.7971641" lon="35.4430704">
<ele>-162.330002</ele>
<time>2012-04-14T09:17:22.000Z</time>
</trkpt>
<trkpt lat="31.7971724" lon="35.4430900">
<ele>-163.289993</ele>
<time>2012-04-14T09:17:24.000Z</time>
</trkpt>
<trkpt lat="31.7971891" lon="35.4431044">
<ele>-162.810013</ele>
<time>2012-04-14T09:17:25.000Z</time>
</trkpt>
<trkpt lat="31.7973487" lon="35.4432080">
<ele>-166.170013</ele>
<time>2012-04-14T09:17:30.000Z</time>
</trkpt>
<trkpt lat="31.7973938" lon="35.4432398">
<ele>-166.170013</ele>
<time>2012-04-14T09:17:32.000Z</time>
</trkpt>
<trkpt lat="31.7974056" lon="35.4432620">
<ele>-166.170013</ele>
<time>2012-04-14T09:17:33.000Z</time>
</trkpt>
<trkpt lat="31.7974165" lon="35.4432831">
<ele>-166.170013</ele>
<time>2012-04-14T09:17:34.000Z</time>
</trkpt>
<trkpt lat="31.7974337" lon="35.4433697">
<ele>-166.649994</ele>
<time>2012-04-14T09:17:44.000Z</time>
</trkpt>
<trkpt lat="31.7974287" lon="35.4433200">
<ele>-166.649994</ele>
<time>2012-04-14T09:17:53.000Z</time>
</trkpt>
<trkpt lat="31.7974253" lon="35.4433034">
<ele>-166.649994</ele>
<time>2012-04-14T09:17:54.000Z</time>
</trkpt>
<trkpt lat="31.7974203" lon="35.4432857">
<ele>-166.170013</ele>
<time>2012-04-14T09:17:55.000Z</time>
</trkpt>
<trkpt lat="31.7974103" lon="35.4432620">
<ele>-166.649994</ele>
<time>2012-04-14T09:17:56.000Z</time>
</trkpt>
<trkpt lat="31.7974017" lon="35.4432376">
<ele>-166.170013</ele>
<time>2012-04-14T09:17:57.000Z</time>
</trkpt>
<trkpt lat="31.7973856" lon="35.4432156">
<ele>-165.690002</ele>
<time>2012-04-14T09:17:58.000Z</time>
</trkpt>
<trkpt lat="31.7973658" lon="35.4431994">
<ele>-166.170013</ele>
<time>2012-04-14T09:17:59.000Z</time>
</trkpt>
<trkpt lat="31.7973424" lon="35.4431866">
<ele>-166.170013</ele>
<time>2012-04-14T09:18:00.000Z</time>
</trkpt>
<trkpt lat="31.7970895" lon="35.4432173">
<ele>-164.250000</ele>
<time>2012-04-14T09:18:10.000Z</time>
</trkpt>
<trkpt lat="31.7970754" lon="35.4432412">
<ele>-164.250000</ele>
<time>2012-04-14T09:18:11.000Z</time>
</trkpt>
<trkpt lat="31.7970591" lon="35.4432652">
<ele>-164.250000</ele>
<time>2012-04-14T09:18:12.000Z</time>
</trkpt>
<trkpt lat="31.7970456" lon="35.4432967">
<ele>-164.250000</ele>
<time>2012-04-14T09:18:13.000Z</time>
</trkpt>
<trkpt lat="31.7970417" lon="35.4433341">
<ele>-164.250000</ele>
<time>2012-04-14T09:18:14.000Z</time>
</trkpt>
<trkpt lat="31.7970394" lon="35.4433730">
<ele>-164.250000</ele>
<time>2012-04-14T09:18:15.000Z</time>
</trkpt>
<trkpt lat="31.7970391" lon="35.4434143">
<ele>-164.729996</ele>
<time>2012-04-14T09:18:16.000Z</time>
</trkpt>
<trkpt lat="31.7970477" lon="35.4434577">
<ele>-164.729996</ele>
<time>2012-04-14T09:18:17.000Z</time>
</trkpt>
<trkpt lat="31.7970565" lon="35.4434998">
<ele>-165.210007</ele>
<time>2012-04-14T09:18:18.000Z</time>
</trkpt>
<trkpt lat="31.7970585" lon="35.4435318">
<ele>-165.210007</ele>
<time>2012-04-14T09:18:19.000Z</time>
</trkpt>
<trkpt lat="31.7970541" lon="35.4435557">
<ele>-165.210007</ele>
<time>2012-04-14T09:18:20.000Z</time>
</trkpt>
<trkpt lat="31.7970485" lon="35.4435830">
<ele>-165.210007</ele>
<time>2012-04-14T09:18:21.000Z</time>
</trkpt>
<trkpt lat="31.7970475" lon="35.4436158">
<ele>-165.690002</ele>
<time>2012-04-14T09:18:22.000Z</time>
</trkpt>
<trkpt lat="31.7970454" lon="35.4436492">
<ele>-166.170013</ele>
<time>2012-04-14T09:18:23.000Z</time>
</trkpt>
<trkpt lat="31.7970417" lon="35.4436848">
<ele>-166.170013</ele>
<time>2012-04-14T09:18:24.000Z</time>
</trkpt>
<trkpt lat="31.7970400" lon="35.4437221">
<ele>-166.649994</ele>
<time>2012-04-14T09:18:25.000Z</time>
</trkpt>
<trkpt lat="31.7970612" lon="35.4438007">
<ele>-167.130005</ele>
<time>2012-04-14T09:18:27.000Z</time>
</trkpt>
<trkpt lat="31.7970912" lon="35.4438278">
<ele>-168.089996</ele>
<time>2012-04-14T09:18:28.000Z</time>
</trkpt>
<trkpt lat="31.7971273" lon="35.4438492">
<ele>-168.089996</ele>
<time>2012-04-14T09:18:29.000Z</time>
</trkpt>
<trkpt lat="31.7972284" lon="35.4438971">
<ele>-169.539993</ele>
<time>2012-04-14T09:18:32.000Z</time>
</trkpt>
<trkpt lat="31.7974049" lon="35.4439843">
<ele>-172.420013</ele>
<time>2012-04-14T09:18:39.000Z</time>
</trkpt>
<trkpt lat="31.7974269" lon="35.4439836">
<ele>-172.420013</ele>
<time>2012-04-14T09:18:40.000Z</time>
</trkpt>
<trkpt lat="31.7975434" lon="35.4440055">
<ele>-175.779999</ele>
<time>2012-04-14T09:18:46.000Z</time>
</trkpt>
<trkpt lat="31.7977058" lon="35.4440440">
<ele>-178.670013</ele>
<time>2012-04-14T09:18:50.000Z</time>
</trkpt>
<trkpt lat="31.7979313" lon="35.4442235">
<ele>-178.670013</ele>
<time>2012-04-14T09:18:58.000Z</time>
</trkpt>
<trkpt lat="31.7979613" lon="35.4442495">
<ele>-179.149994</ele>
<time>2012-04-14T09:18:59.000Z</time>
</trkpt>
<trkpt lat="31.7979843" lon="35.4442723">
<ele>-178.670013</ele>
<time>2012-04-14T09:19:00.000Z</time>
</trkpt>
<trkpt lat="31.7980017" lon="35.4442907">
<ele>-179.149994</ele>
<time>2012-04-14T09:19:01.000Z</time>
</trkpt>
<trkpt lat="31.7980184" lon="35.4443071">
<ele>-178.190002</ele>
<time>2012-04-14T09:19:02.000Z</time>
</trkpt>
<trkpt lat="31.7980349" lon="35.4443188">
<ele>-178.190002</ele>
<time>2012-04-14T09:19:03.000Z</time>
</trkpt>
<trkpt lat="31.7980490" lon="35.4443322">
<ele>-176.750000</ele>
<time>2012-04-14T09:19:04.000Z</time>
</trkpt>
<trkpt lat="31.7980611" lon="35.4443459">
<ele>-176.750000</ele>
<time>2012-04-14T09:19:05.000Z</time>
</trkpt>
<trkpt lat="31.7980747" lon="35.4443583">
<ele>-176.259995</ele>
<time>2012-04-14T09:19:06.000Z</time>
</trkpt>
<trkpt lat="31.7981775" lon="35.4444719">
<ele>-173.380005</ele>
<time>2012-04-14T09:19:14.000Z</time>
</trkpt>
<trkpt lat="31.7983568" lon="35.4446839">
<ele>-174.820007</ele>
<time>2012-04-14T09:19:24.000Z</time>
</trkpt>
<trkpt lat="31.7984050" lon="35.4447726">
<ele>-175.300003</ele>
<time>2012-04-14T09:19:26.000Z</time>
</trkpt>
<trkpt lat="31.7985478" lon="35.4451427">
<ele>-178.190002</ele>
<time>2012-04-14T09:19:33.000Z</time>
</trkpt>
<trkpt lat="31.7985889" lon="35.4452625">
<ele>-179.630005</ele>
<time>2012-04-14T09:19:35.000Z</time>
</trkpt>
<trkpt lat="31.7986191" lon="35.4453889">
<ele>-180.109985</ele>
<time>2012-04-14T09:19:37.000Z</time>
</trkpt>
<trkpt lat="31.7986292" lon="35.4454523">
<ele>-181.070007</ele>
<time>2012-04-14T09:19:38.000Z</time>
</trkpt>
<trkpt lat="31.7986376" lon="35.4455171">
<ele>-181.550003</ele>
<time>2012-04-14T09:19:39.000Z</time>
</trkpt>
<trkpt lat="31.7986619" lon="35.4456954">
<ele>-182.990005</ele>
<time>2012-04-14T09:19:42.000Z</time>
</trkpt>
<trkpt lat="31.7986626" lon="35.4457472">
<ele>-182.990005</ele>
<time>2012-04-14T09:19:43.000Z</time>
</trkpt>
<trkpt lat="31.7986629" lon="35.4457985">
<ele>-183.469986</ele>
<time>2012-04-14T09:19:44.000Z</time>
</trkpt>
<trkpt lat="31.7986905" lon="35.4460639">
<ele>-185.880005</ele>
<time>2012-04-14T09:19:50.000Z</time>
</trkpt>
<trkpt lat="31.7986971" lon="35.4463003">
<ele>-189.240005</ele>
<time>2012-04-14T09:19:57.000Z</time>
</trkpt>
<trkpt lat="31.7986956" lon="35.4464284">
<ele>-190.680008</ele>
<time>2012-04-14T09:20:07.000Z</time>
</trkpt>
<trkpt lat="31.7986910" lon="35.4464410">
<ele>-191.169998</ele>
<time>2012-04-14T09:20:19.000Z</time>
</trkpt>
<trkpt lat="31.7986891" lon="35.4464836">
<ele>-191.649994</ele>
<time>2012-04-14T09:20:32.000Z</time>
</trkpt>
<trkpt lat="31.7986955" lon="35.4465644">
<ele>-194.529999</ele>
<time>2012-04-14T09:20:43.000Z</time>
</trkpt>
<trkpt lat="31.7986955" lon="35.4465727">
<ele>-195.490005</ele>
<time>2012-04-14T09:20:45.000Z</time>
</trkpt>
<trkpt lat="31.7986976" lon="35.4465928">
<ele>-195.490005</ele>
<time>2012-04-14T09:20:46.000Z</time>
</trkpt>
<trkpt lat="31.7986997" lon="35.4466156">
<ele>-196.449997</ele>
<time>2012-04-14T09:20:47.000Z</time>
</trkpt>
<trkpt lat="31.7987021" lon="35.4466369">
<ele>-197.410004</ele>
<time>2012-04-14T09:20:48.000Z</time>
</trkpt>
<trkpt lat="31.7987022" lon="35.4466578">
<ele>-197.410004</ele>
<time>2012-04-14T09:20:49.000Z</time>
</trkpt>
<trkpt lat="31.7987023" lon="35.4466726">
<ele>-198.369995</ele>
<time>2012-04-14T09:20:50.000Z</time>
</trkpt>
<trkpt lat="31.7986804" lon="35.4467114">
<ele>-199.339996</ele>
<time>2012-04-14T09:21:02.000Z</time>
</trkpt>
<trkpt lat="31.7986959" lon="35.4467219">
<ele>-199.339996</ele>
<time>2012-04-14T09:21:25.000Z</time>
</trkpt>
<trkpt lat="31.7986979" lon="35.4467350">
<ele>-199.339996</ele>
<time>2012-04-14T09:21:26.000Z</time>
</trkpt>
<trkpt lat="31.7987118" lon="35.4468712">
<ele>-199.820007</ele>
<time>2012-04-14T09:21:31.000Z</time>
</trkpt>
<trkpt lat="31.7987494" lon="35.4470811">
<ele>-200.779999</ele>
<time>2012-04-14T09:21:36.000Z</time>
</trkpt>
<trkpt lat="31.7989901" lon="35.4478547">
<ele>-202.699997</ele>
<time>2012-04-14T09:21:50.000Z</time>
</trkpt>
<trkpt lat="31.7991452" lon="35.4480764">
<ele>-203.660004</ele>
<time>2012-04-14T09:21:55.000Z</time>
</trkpt>
<trkpt lat="31.7991871" lon="35.4481095">
<ele>-203.660004</ele>
<time>2012-04-14T09:21:56.000Z</time>
</trkpt>
<trkpt lat="31.7992294" lon="35.4481390">
<ele>-203.660004</ele>
<time>2012-04-14T09:21:57.000Z</time>
</trkpt>
<trkpt lat="31.7992708" lon="35.4481679">
<ele>-203.660004</ele>
<time>2012-04-14T09:21:58.000Z</time>
</trkpt>
<trkpt lat="31.7993107" lon="35.4482010">
<ele>-203.660004</ele>
<time>2012-04-14T09:21:59.000Z</time>
</trkpt>
<trkpt lat="31.7993515" lon="35.4482363">
<ele>-204.139999</ele>
<time>2012-04-14T09:22:00.000Z</time>
</trkpt>
<trkpt lat="31.7993931" lon="35.4482678">
<ele>-204.139999</ele>
<time>2012-04-14T09:22:01.000Z</time>
</trkpt>
<trkpt lat="31.7996912" lon="35.4484231">
<ele>-205.579987</ele>
<time>2012-04-14T09:22:10.000Z</time>
</trkpt>
<trkpt lat="31.7998467" lon="35.4486021">
<ele>-208.949997</ele>
<time>2012-04-14T09:22:17.000Z</time>
</trkpt>
<trkpt lat="31.7999426" lon="35.4487772">
<ele>-210.869995</ele>
<time>2012-04-14T09:22:22.000Z</time>
</trkpt>
<trkpt lat="31.7999879" lon="35.4491751">
<ele>-215.199997</ele>
<time>2012-04-14T09:22:28.000Z</time>
</trkpt>
<trkpt lat="31.8000202" lon="35.4493343">
<ele>-217.119995</ele>
<time>2012-04-14T09:22:30.000Z</time>
</trkpt>
<trkpt lat="31.8000397" lon="35.4496266">
<ele>-218.079987</ele>
<time>2012-04-14T09:22:34.000Z</time>
</trkpt>
<trkpt lat="31.8000391" lon="35.4497311">
<ele>-218.079987</ele>
<time>2012-04-14T09:22:36.000Z</time>
</trkpt>
<trkpt lat="31.8000765" lon="35.4499349">
<ele>-220.490005</ele>
<time>2012-04-14T09:22:39.000Z</time>
</trkpt>
<trkpt lat="31.8001352" lon="35.4500281">
<ele>-221.449997</ele>
<time>2012-04-14T09:22:41.000Z</time>
</trkpt>
<trkpt lat="31.8001735" lon="35.4500627">
<ele>-221.930008</ele>
<time>2012-04-14T09:22:42.000Z</time>
</trkpt>
<trkpt lat="31.8002051" lon="35.4500997">
<ele>-222.410004</ele>
<time>2012-04-14T09:22:43.000Z</time>
</trkpt>
<trkpt lat="31.8002284" lon="35.4501443">
<ele>-221.930008</ele>
<time>2012-04-14T09:22:44.000Z</time>
</trkpt>
<trkpt lat="31.8002504" lon="35.4501996">
<ele>-221.930008</ele>
<time>2012-04-14T09:22:45.000Z</time>
</trkpt>
<trkpt lat="31.8003039" lon="35.4503094">
<ele>-222.410004</ele>
<time>2012-04-14T09:22:47.000Z</time>
</trkpt>
<trkpt lat="31.8003383" lon="35.4503590">
<ele>-222.889999</ele>
<time>2012-04-14T09:22:48.000Z</time>
</trkpt>
<trkpt lat="31.8003768" lon="35.4504008">
<ele>-222.889999</ele>
<time>2012-04-14T09:22:49.000Z</time>
</trkpt>
<trkpt lat="31.8004997" lon="35.4505409">
<ele>-222.889999</ele>
<time>2012-04-14T09:22:53.000Z</time>
</trkpt>
<trkpt lat="31.8005025" lon="35.4505658">
<ele>-222.410004</ele>
<time>2012-04-14T09:22:54.000Z</time>
</trkpt>
<trkpt lat="31.8005039" lon="35.4505895">
<ele>-222.889999</ele>
<time>2012-04-14T09:22:55.000Z</time>
</trkpt>
<trkpt lat="31.8005049" lon="35.4506140">
<ele>-222.889999</ele>
<time>2012-04-14T09:22:56.000Z</time>
</trkpt>
<trkpt lat="31.8005061" lon="35.4506431">
<ele>-222.410004</ele>
<time>2012-04-14T09:22:57.000Z</time>
</trkpt>
<trkpt lat="31.8005391" lon="35.4508819">
<ele>-222.889999</ele>
<time>2012-04-14T09:23:04.000Z</time>
</trkpt>
<trkpt lat="31.8005639" lon="35.4508959">
<ele>-222.889999</ele>
<time>2012-04-14T09:23:05.000Z</time>
</trkpt>
<trkpt lat="31.8005937" lon="35.4509021">
<ele>-222.889999</ele>
<time>2012-04-14T09:23:06.000Z</time>
</trkpt>
<trkpt lat="31.8006278" lon="35.4509004">
<ele>-222.410004</ele>
<time>2012-04-14T09:23:07.000Z</time>
</trkpt>
<trkpt lat="31.8006629" lon="35.4508935">
<ele>-222.410004</ele>
<time>2012-04-14T09:23:08.000Z</time>
</trkpt>
<trkpt lat="31.8006981" lon="35.4508851">
<ele>-222.410004</ele>
<time>2012-04-14T09:23:09.000Z</time>
</trkpt>
<trkpt lat="31.8010720" lon="35.4510093">
<ele>-220.000000</ele>
<time>2012-04-14T09:23:21.000Z</time>
</trkpt>
<trkpt lat="31.8011919" lon="35.4512681">
<ele>-220.000000</ele>
<time>2012-04-14T09:23:28.000Z</time>
</trkpt>
<trkpt lat="31.8011925" lon="35.4513179">
<ele>-219.519989</ele>
<time>2012-04-14T09:23:29.000Z</time>
</trkpt>
<trkpt lat="31.8011880" lon="35.4513690">
<ele>-220.000000</ele>
<time>2012-04-14T09:23:30.000Z</time>
</trkpt>
<trkpt lat="31.8011783" lon="35.4514197">
<ele>-220.000000</ele>
<time>2012-04-14T09:23:31.000Z</time>
</trkpt>
<trkpt lat="31.8011671" lon="35.4514721">
<ele>-220.000000</ele>
<time>2012-04-14T09:23:32.000Z</time>
</trkpt>
<trkpt lat="31.8010413" lon="35.4518994">
<ele>-220.969986</ele>
<time>2012-04-14T09:23:39.000Z</time>
</trkpt>
<trkpt lat="31.8008768" lon="35.4524364">
<ele>-223.369995</ele>
<time>2012-04-14T09:23:47.000Z</time>
</trkpt>
<trkpt lat="31.8008474" lon="35.4524955">
<ele>-223.850006</ele>
<time>2012-04-14T09:23:48.000Z</time>
</trkpt>
<trkpt lat="31.8007867" lon="35.4525935">
<ele>-224.329987</ele>
<time>2012-04-14T09:23:50.000Z</time>
</trkpt>
<trkpt lat="31.8007574" lon="35.4526238">
<ele>-223.850006</ele>
<time>2012-04-14T09:23:51.000Z</time>
</trkpt>
<trkpt lat="31.8007180" lon="35.4526517">
<ele>-224.329987</ele>
<time>2012-04-14T09:23:53.000Z</time>
</trkpt>
<trkpt lat="31.8006926" lon="35.4526592">
<ele>-224.329987</ele>
<time>2012-04-14T09:23:54.000Z</time>
</trkpt>
<trkpt lat="31.8004329" lon="35.4526825">
<ele>-225.290009</ele>
<time>2012-04-14T09:24:06.000Z</time>
</trkpt>
<trkpt lat="31.8004313" lon="35.4526768">
<ele>-225.290009</ele>
<time>2012-04-14T09:24:32.000Z</time>
</trkpt>
<trkpt lat="31.8004242" lon="35.4526784">
<ele>-225.769989</ele>
<time>2012-04-14T09:24:51.000Z</time>
</trkpt>
<trkpt lat="31.8004135" lon="35.4526752">
<ele>-225.769989</ele>
<time>2012-04-14T09:25:25.000Z</time>
</trkpt>
<trkpt lat="31.8004216" lon="35.4526756">
<ele>-225.769989</ele>
<time>2012-04-14T09:25:59.000Z</time>
</trkpt>
<trkpt lat="31.8004151" lon="35.4526745">
<ele>-225.769989</ele>
<time>2012-04-14T09:26:29.000Z</time>
</trkpt>
<trkpt lat="31.8004185" lon="35.4526726">
<ele>-225.290009</ele>
<time>2012-04-14T09:27:00.000Z</time>
</trkpt>
<trkpt lat="31.8004185" lon="35.4526706">
<ele>-225.290009</ele>
<time>2012-04-14T09:27:41.000Z</time>
</trkpt>
<trkpt lat="31.8004128" lon="35.4526675">
<ele>-225.290009</ele>
<time>2012-04-14T09:28:14.000Z</time>
</trkpt>
<trkpt lat="31.8004182" lon="35.4526566">
<ele>-225.290009</ele>
<time>2012-04-14T09:28:50.000Z</time>
</trkpt>
<trkpt lat="31.8004128" lon="35.4526659">
<ele>-225.769989</ele>
<time>2012-04-14T09:29:27.000Z</time>
</trkpt>
<trkpt lat="31.8004179" lon="35.4526673">
<ele>-225.769989</ele>
<time>2012-04-14T09:29:57.000Z</time>
</trkpt>
<trkpt lat="31.8004161" lon="35.4526695">
<ele>-225.769989</ele>
<time>2012-04-14T09:30:29.000Z</time>
</trkpt>
<trkpt lat="31.8004186" lon="35.4526691">
<ele>-226.250000</ele>
<time>2012-04-14T09:31:04.000Z</time>
</trkpt>
<trkpt lat="31.8004245" lon="35.4526742">
<ele>-225.769989</ele>
<time>2012-04-14T09:31:23.000Z</time>
</trkpt>
<trkpt lat="31.8004270" lon="35.4526670">
<ele>-225.290009</ele>
<time>2012-04-14T09:31:27.000Z</time>
</trkpt>
</trkseg>
</trk>
</gpx>
